[[{"header":{"parameterUnit":"m.s-1","parameterCategory":1,"la1":30.6,"la2":29.2853,"lo1":-89.7004,"lo2":-87.6739,"dy":0.0162,"dx":0.0183,"nx":112,"ny":82,"refTime":"2025-08-26T12:00:00:Z","depth":0,"parameterNumber":2,"parameterNumberName":"U-component_of_WINDS"},"data":[0.0,0.0,0.0,0.0,0.0,0.0,0.0,0.0,0.0,0.0,0.0,0.0,0.0,0.0,0.0,0.0,0.0,0.0,0.0,0.0,0.0,0.0,0.0,0.0,0.0,0.0,0.0,0.0,0.0,0.0,0.0,0.0,0.0,0.0,0.0,0.0,0.0,0.0,0.0,0.0,0.0,0.0,0.0,0.0,0.0,0.0,0.0,0.0,0.0,0.0,0.0,0.0,0.0,0.0,0.0,0.0,0.0,0.0,0.0,0.0,0.0,0.0,0.0,0.0,0.0,0.0,0.0,0.0,0.0,0.0,0.0,0.0,0.0,0.0,0.0,0.0,0.0,0.0,0.0,0.0,0.0,0.0,0.0,0.0,0.0,0.0,0.0,0.0,0.0,0.0,1.3529,1.4387,1.568,1.65,1.65,1.65,1.5856,1.433,0.0,0.0,0.0,0.0,0.0,0.0,0.0,0.0,0.0,0.0,0.0,0.0,0.0,0.0,0.0,0.0,0.0,0.0,0.0,0.0,0.0,0.0,0.0,0.0,0.0,0.0,0.0,0.0,0.0,0.0,0.0,0.0,0.0,0.0,0.0,0.0,0.0,0.0,0.0,0.0,0.0,0.0,0.0,0.0,0.0,0.0,0.0,0.0,0.0,0.0,0.0,0.0,0.0,0.0,0.0,0.0,0.0,0.0,0.0,0.0,0.0,0.0,0.0,0.0,0.0,0.0,0.0,0.0,0.0,0.0,0.0,0.0,0.0,0.0,0.0,0.0,0.0,0.0,0.0,0.0,0.0,0.0,0.0,0.0,0.0,0.0,0.0,0.0,0.0,0.0,0.0,0.0,0.0,0.0,0.0,0.0,0.0,0.0,0.0,0.0,0.0,0.0,0.0,0.0,1.3955,1.5932,1.635,1.65,1.65,1.65,1.6007,1.4846,0.0,0.0,0.0,0.0,0.0,0.0,0.0,0.0,0.0,0.0,0.0,0.0,0.0,0.0,0.0,0.0,0.0,0.0,0.0,0.0,0.0,0.0,0.0,0.0,0.0,0.0,0.0,0.0,0.0,0.0,0.0,0.0,0.0,0.0,0.0,0.0,0.0,0.0,0.0,0.0,0.0,0.0,0.0,0.0,0.0,0.0,0.0,0.0,0.0,0.0,0.0,0.0,0.0,0.0,0.0,0.0,0.0,0.0,0.0,0.0,0.0,0.0,0.0,0.0,0.0,0.0,0.0,0.0,0.0,0.0,0.0,0.0,0.0,0.0,0.0,0.0,0.0,0.0,0.0,0.0,0.0,0.0,0.0,0.0,0.0,0.0,0.0,0.0,0.0,0.0,0.0,0.0,0.0,0.0,0.0,0.0,0.0,0.0,0.0,0.0,0.0,0.0,0.0,1.3383,1.44,1.63,1.65,1.65,1.65,1.65,1.6045,1.4979,1.3835,0.0,0.0,0.0,0.0,0.0,0.0,0.0,0.0,0.0,0.0,0.0,0.0,0.0,0.0,0.0,0.0,0.0,0.0,0.0,0.0,0.0,0.0,0.0,0.0,0.0,0.0,0.0,0.0,0.0,0.0,0.0,0.0,0.0,0.0,0.0,0.0,0.0,0.0,0.0,0.0,0.0,0.0,0.0,0.0,0.0,0.0,0.0,0.0,0.0,0.0,0.0,0.0,0.0,0.0,0.0,0.0,0.0,0.0,0.0,0.0,0.0,0.0,0.0,0.0,0.0,0.0,0.0,0.0,0.0,0.0,0.0,0.0,0.0,0.0,0.0,0.0,0.0,0.0,0.0,0.0,0.0,0.0,0.0,0.0,0.0,0.0,0.0,0.0,0.0,0.0,0.0,0.0,0.0,0.0,0.0,0.0,0.0,0.0,0.0,0.0,0.0,0.0,1.4614,1.5135,1.6362,1.65,1.65,1.65,1.6375,1.5906,1.4947,1.3704,0.0,0.0,0.0,0.0,0.0,0.0,0.0,0.0,0.0,0.0,0.0,0.0,0.0,0.0,0.0,0.0,0.0,0.0,0.0,0.0,0.0,0.0,0.0,0.0,0.0,0.0,0.0,0.0,0.0,0.0,0.0,0.0,0.0,0.0,0.0,0.0,0.0,0.0,0.0,0.0,0.0,0.0,0.0,0.0,0.0,0.0,0.0,0.0,0.0,0.0,0.0,0.0,0.0,0.0,0.0,0.0,0.0,0.0,0.0,0.0,0.0,0.0,0.0,0.0,0.0,0.0,0.0,0.0,0.0,0.0,0.0,0.0,0.0,0.0,0.0,0.0,0.0,0.0,0.0,0.0,0.0,0.0,0.0,0.0,0.0,0.0,0.0,0.0,0.0,0.0,0.0,0.0,0.0,0.0,0.0,0.0,0.0,0.0,0.0,0.0,0.0,0.0,1.5083,1.6362,1.6488,1.65,1.65,1.65,1.6045,1.5512,1.4934,1.3358,0.0,0.0,0.0,0.0,0.0,0.0,0.0,0.0,0.0,0.0,0.0,0.0,0.0,0.0,0.0,0.0,0.0,0.0,0.0,0.0,0.0,0.0,0.0,0.0,0.0,0.0,0.0,0.0,0.0,0.0,0.0,0.0,0.0,0.0,0.0,0.0,0.0,0.0,0.0,0.0,0.0,0.0,0.0,0.0,0.0,0.0,0.0,0.0,0.0,0.0,0.0,0.0,0.0,0.0,0.0,0.0,0.0,0.0,0.0,0.0,0.0,0.0,0.0,0.0,0.0,0.0,0.0,0.0,0.0,0.0,0.0,0.0,0.0,0.0,0.0,0.0,0.0,0.0,0.0,0.0,0.0,0.0,0.0,0.0,0.0,0.0,0.0,0.0,0.0,0.0,0.0,0.0,0.0,0.0,0.0,0.0,0.0,0.0,0.0,0.0,0.0,0.0,1.4227,1.5193,0.0,1.5599,1.5533,1.5908,1.5748,1.5274,1.4456,0.0,0.0,0.0,0.0,0.0,0.0,0.0,0.0,0.0,0.0,0.0,0.0,0.0,0.0,0.0,0.0,0.0,0.0,0.0,0.0,0.0,0.0,0.0,0.0,0.0,0.0,0.0,0.0,0.0,0.0,0.0,0.0,0.0,0.0,0.0,0.0,0.0,0.0,0.0,0.0,0.0,0.0,0.0,0.0,0.0,0.0,0.0,0.0,0.0,0.0,0.0,0.0,0.0,0.0,0.0,0.0,0.0,0.0,0.0,0.0,0.0,0.0,0.0,0.0,0.0,0.0,0.0,0.0,0.0,0.0,0.0,0.0,0.0,0.0,0.0,0.0,0.0,0.0,0.0,0.0,0.0,0.0,0.0,0.0,0.0,0.0,0.0,0.0,0.0,0.0,0.0,0.0,0.0,0.0,0.0,0.0,0.0,0.0,0.0,0.0,0.0,0.0,1.3035,1.4127,1.5069,0.0,1.5354,1.5242,1.582,1.5554,1.4955,1.3976,0.0,0.0,0.0,0.0,0.0,0.0,0.0,0.0,0.0,0.0,0.0,0.0,0.0,0.0,0.0,0.0,0.0,0.0,0.0,0.0,0.0,0.0,0.0,0.0,0.0,0.0,0.0,0.0,0.0,0.0,0.0,0.0,0.0,0.0,0.0,0.0,0.0,0.0,0.0,0.0,0.0,0.0,0.0,0.0,0.0,0.0,0.0,0.0,0.0,0.0,0.0,0.0,0.0,0.0,0.0,0.0,0.0,0.0,0.0,0.0,0.0,0.0,0.0,0.0,0.0,0.0,0.0,0.0,0.0,0.0,0.0,0.0,0.0,0.0,0.0,0.0,0.0,0.0,0.0,0.0,0.0,0.0,0.0,0.0,0.0,0.0,0.0,0.0,0.0,0.0,0.0,0.0,0.0,0.0,0.0,0.0,0.0,0.0,0.0,0.0,0.0,0.0,1.3123,1.5114,1.6466,1.65,1.593,1.582,1.6423,1.5459,1.4419,0.0,0.0,0.0,0.0,0.0,0.0,0.0,0.0,0.0,0.0,0.0,0.0,0.0,0.0,0.0,0.0,0.0,0.0,0.0,0.0,0.0,0.0,0.0,0.0,0.0,0.0,0.0,0.0,0.0,0.0,0.0,0.0,0.0,0.0,0.0,0.0,0.0,0.0,0.0,0.0,0.0,0.0,0.0,0.0,0.0,0.0,0.0,0.0,0.0,0.0,0.0,0.0,0.0,0.0,0.0,0.0,0.0,0.0,0.0,0.0,0.0,0.0,0.0,0.0,0.0,0.0,0.0,0.0,0.0,0.0,0.0,0.0,0.0,0.0,0.0,0.0,0.0,0.0,0.0,0.0,0.0,0.0,0.0,0.0,0.0,0.0,0.0,0.0,0.0,0.0,0.0,0.0,0.0,0.0,0.0,0.0,0.0,0.0,0.0,0.0,0.0,0.0,0.0,1.3123,1.4388,1.5399,1.582,1.4926,1.4572,1.5175,1.5303,1.4592,1.2763,0.0,0.0,0.0,0.0,0.0,0.0,0.0,0.0,0.0,0.0,0.0,0.0,0.0,0.0,0.0,0.0,0.0,0.0,0.0,0.0,0.0,0.0,0.0,0.0,0.0,0.0,0.0,0.0,0.0,0.0,0.0,0.0,0.0,0.0,0.0,0.0,0.0,0.0,0.0,0.0,0.0,0.0,0.0,0.0,0.0,0.0,0.0,0.0,0.0,0.0,0.0,0.0,0.0,0.0,0.0,0.0,0.0,0.0,0.0,0.0,0.0,0.0,0.0,0.0,0.0,0.0,0.0,0.0,0.0,0.0,0.0,0.0,0.0,0.0,0.0,0.0,0.0,0.0,0.0,0.0,0.0,0.0,0.0,0.0,0.0,0.0,0.0,0.0,0.0,0.0,0.0,0.0,0.0,0.0,0.0,0.0,0.0,0.0,0.0,0.0,0.0,0.0,1.3074,1.427,1.5096,1.5231,1.4388,1.4143,1.4983,1.5163,1.4537,1.2882,0.0,0.0,0.0,0.0,0.0,0.0,0.0,0.0,0.0,0.0,0.0,0.0,0.0,0.0,0.0,0.0,0.0,0.0,0.0,0.0,0.0,0.0,0.0,0.0,0.0,0.0,0.0,0.0,0.0,0.0,0.0,0.0,0.0,0.0,0.0,0.0,0.0,0.0,0.0,0.0,0.0,0.0,0.0,0.0,0.0,0.0,0.0,0.0,0.0,0.0,0.0,0.0,0.0,0.0,0.0,0.0,0.0,0.0,0.0,0.0,0.0,0.0,0.0,0.0,0.0,0.0,0.0,0.0,0.0,0.0,0.0,0.0,0.0,0.0,0.0,0.0,0.0,0.0,0.0,0.0,0.0,0.0,0.0,0.0,0.0,0.0,0.0,0.0,0.0,0.0,0.0,0.0,0.0,0.0,0.0,0.0,0.0,0.0,0.0,0.0,0.0,0.0,1.2993,1.452,1.532,1.4835,1.419,1.4272,1.541,1.5062,1.4431,1.3607,0.0,0.0,0.0,0.0,0.0,0.0,0.0,0.0,0.0,0.0,0.0,0.0,0.0,0.0,0.0,0.0,0.0,0.0,0.0,0.0,0.0,0.0,0.0,0.0,0.0,0.0,0.0,0.0,0.0,0.0,0.0,0.0,0.0,0.0,0.0,0.0,0.0,0.0,0.0,0.0,0.0,0.0,0.0,0.0,0.0,0.0,0.0,0.0,0.0,0.0,0.0,0.0,0.0,0.0,0.0,0.0,0.0,0.0,0.0,0.0,1.3899,0.0,0.0,0.0,0.0,0.0,0.0,0.0,0.0,0.0,0.0,0.0,0.0,0.0,0.0,0.0,0.0,0.0,0.0,0.0,0.0,0.0,0.0,0.0,0.0,0.0,0.0,0.0,0.0,0.0,0.0,0.0,0.0,0.0,0.0,0.0,0.0,0.0,0.0,0.0,0.0,0.0,1.3176,1.4217,1.5017,1.5365,1.4434,1.4097,1.4835,1.5208,1.4971,1.3951,1.3355,0.0,0.0,0.0,0.0,0.0,0.0,0.0,0.0,0.0,0.0,0.0,0.0,0.0,0.0,0.0,0.0,0.0,0.0,0.0,0.0,0.0,0.0,0.0,0.0,0.0,0.0,0.0,0.0,0.0,0.0,0.0,0.0,0.0,0.0,0.0,0.0,0.0,0.0,0.0,0.0,0.0,0.0,0.0,0.0,0.0,0.0,0.0,0.0,0.0,0.0,0.0,0.0,0.0,0.0,0.0,0.0,0.0,0.0,0.0,0.0,1.5028,0.0,0.0,0.0,0.0,0.0,0.0,0.0,0.0,0.0,0.0,0.0,0.0,0.0,0.0,0.0,0.0,0.0,0.0,0.0,0.0,0.0,0.0,0.0,0.0,0.0,0.0,0.0,0.0,0.0,0.0,0.0,0.0,0.0,0.0,0.0,0.0,0.0,0.0,0.0,0.0,1.3046,1.3816,1.4283,1.4306,1.3742,1.36,1.4224,1.4824,1.4927,1.4411,1.4153,0.0,0.0,0.0,0.0,0.0,0.0,0.0,0.0,0.0,0.0,0.0,0.0,0.0,0.0,0.0,0.0,0.0,0.0,0.0,0.0,0.0,0.0,0.0,0.0,0.0,0.0,0.0,0.0,0.0,0.0,0.0,0.0,0.0,0.0,0.0,0.0,0.0,0.0,0.0,0.0,0.0,0.0,0.0,0.0,0.0,0.0,0.0,0.0,0.0,0.0,0.0,0.0,0.0,1.6,1.6599,1.7983,1.7437,1.774,1.8594,1.6579,1.6312,1.7136,1.5571,0.0,0.0,0.0,0.0,0.0,0.0,0.0,0.0,0.0,0.0,0.0,0.0,0.0,0.0,0.0,0.0,0.0,0.0,0.0,0.0,0.0,0.0,0.0,0.0,1.6002,1.5756,0.0,0.0,0.0,0.0,0.0,0.0,0.0,0.0,0.0,0.0,0.0,0.0,1.3081,1.3559,1.3624,1.3104,1.2968,1.3152,1.3755,1.426,1.4665,1.492,1.4902,1.4518,0.0,0.0,0.0,0.0,0.0,0.0,0.0,0.0,0.0,0.0,0.0,0.0,0.0,0.0,0.0,0.0,0.0,0.0,0.0,0.0,0.0,0.0,0.0,0.0,0.0,0.0,0.0,0.0,0.0,0.0,0.0,0.0,1.1278,1.214,0.0,0.0,0.0,0.0,0.0,0.0,0.0,0.0,0.0,0.0,0.0,0.0,0.0,1.538,1.522,1.7107,1.8003,1.7922,1.8762,1.9044,1.8843,1.8741,1.8559,1.8253,1.7938,0.0,1.7871,1.7605,0.0,0.0,0.0,0.0,0.0,0.0,0.0,0.0,0.0,0.0,0.0,0.0,0.0,0.0,0.0,0.0,0.0,0.0,0.0,0.0,0.0,0.0,1.7137,1.7159,1.7521,1.7815,0.0,1.5676,1.3778,1.3115,1.2551,0.0,0.0,0.0,0.0,0.0,0.0,0.0,1.3853,1.3865,1.3768,1.3684,1.3214,1.3152,1.3755,1.3862,1.4366,1.5426,1.5071,1.4987,1.5359,1.4412,0.0,0.0,0.0,0.0,0.0,0.0,0.0,0.0,0.0,0.0,0.0,0.0,0.0,0.0,0.0,0.0,0.0,0.0,0.0,0.0,0.0,0.0,0.0,0.0,0.0,0.0,0.0,0.0,0.0,1.0882,1.2361,1.2449,1.3124,1.3111,0.0,0.0,0.0,0.0,0.0,0.0,0.0,0.0,0.0,1.5766,1.6656,1.7233,1.7429,1.8109,1.852,1.8657,1.9136,1.9385,1.9452,1.9452,1.9305,1.9108,1.9108,1.8885,1.8516,1.79,1.7183,1.6426,0.0,0.0,0.0,0.0,1.6585,1.6426,1.7097,1.7101,0.0,1.6259,0.0,0.0,0.0,0.0,0.0,0.0,0.0,0.0,0.0,0.0,1.7229,1.7229,1.7411,1.7485,1.7058,1.6669,1.6153,0.0,1.4619,1.3885,1.2701,0.0,0.0,0.0,0.0,1.3232,1.3756,1.351,1.3377,1.3595,1.3204,1.3017,1.3262,1.3624,1.4027,1.4538,1.4699,1.5005,1.5611,1.4915,1.4283,0.0,0.0,0.0,0.0,0.0,0.0,0.0,0.0,0.0,0.0,0.0,0.0,0.0,0.0,0.0,0.0,0.0,0.0,0.0,0.0,0.0,0.0,0.0,0.0,0.0,0.0,0.0,0.0,1.2001,1.3344,1.326,1.445,1.4579,0.0,0.0,0.0,0.0,0.0,0.0,1.5691,1.6246,1.6936,1.7868,1.8265,1.8704,1.9188,1.9102,1.9246,1.9635,1.9635,1.9861,2.0225,2.0225,2.012,1.9896,1.9896,1.9685,1.9228,1.8209,1.7714,1.7597,1.7487,1.745,1.7545,1.834,1.8403,1.818,1.9079,1.8966,1.8305,1.7705,1.6983,1.6124,1.4992,0.0,0.0,0.0,0.0,1.5976,1.6814,1.7027,1.7025,1.7025,1.713,1.7072,1.6535,1.7272,1.7775,0.0,1.648,1.5802,1.4119,0.0,0.0,0.0,0.0,1.3343,1.391,1.3531,1.332,1.3633,1.3389,1.3164,1.3047,1.3472,1.3738,1.3802,1.4376,1.4971,1.5588,1.5372,1.5179,1.511,0.0,0.0,0.0,0.0,0.0,0.0,0.0,0.0,0.0,0.0,0.0,0.0,0.0,0.0,0.0,0.0,0.0,0.0,0.0,0.0,0.0,0.0,0.0,0.0,0.0,0.0,0.0,0.0,0.0,1.5961,1.6066,0.0,0.0,0.0,0.0,1.577,1.5874,1.6434,1.7787,1.7883,1.7983,1.8161,1.9183,1.9723,1.9762,2.0817,2.1343,2.1355,2.1355,2.138,2.1405,2.1405,2.0948,2.0172,2.0172,2.016,2.0087,1.9252,1.8607,1.8154,1.8152,1.814,1.8176,1.8224,1.8201,1.819,1.8262,1.8577,1.8953,1.8924,1.8529,1.7965,1.7385,1.6699,0.0,0.0,1.6108,1.5989,1.607,1.6439,1.6807,1.6807,1.7192,1.7555,1.7527,1.7582,1.7504,0.0,1.7603,1.7505,1.5778,0.0,1.5223,1.4507,1.3918,1.3928,1.4893,1.4433,1.4055,1.4075,1.4055,1.388,1.3506,1.3502,1.3606,1.38,1.4376,1.4971,1.5588,1.6114,1.6178,1.5668,1.4576,0.0,0.0,0.0,0.0,0.0,0.0,0.0,0.0,0.0,0.0,0.0,0.0,0.0,0.0,0.0,0.0,0.0,0.0,0.0,0.0,0.0,0.0,0.0,0.0,0.0,0.0,0.0,0.0,1.6197,1.6598,0.0,1.6539,1.6593,1.6817,1.7246,1.7367,1.7772,1.8594,1.8632,1.8991,1.9786,2.0189,2.0553,2.0878,2.1292,2.1493,2.1493,2.1493,2.1493,2.1493,2.1493,2.1341,2.1006,2.044,2.0197,2.0121,1.9284,1.9494,2.0313,2.0313,2.0313,2.0313,2.0313,2.0313,2.0263,1.9937,1.9927,1.9877,1.8682,1.7933,1.7364,1.6713,1.6313,1.6173,1.6528,1.6553,1.6599,1.6948,1.6809,1.662,1.662,1.6749,1.6754,1.6301,1.694,1.7412,1.6835,1.7043,1.6888,1.5574,1.5642,1.5503,1.4456,1.4443,1.464,1.4891,1.4442,1.4211,1.4521,1.427,1.4046,1.3899,1.3662,1.3706,1.4171,1.415,1.4572,1.5565,1.582,1.6009,1.6199,1.5512,1.4299,0.0,0.0,0.0,0.0,0.0,0.0,0.0,0.0,0.0,0.0,0.0,0.0,0.0,0.0,0.0,0.0,0.0,0.0,0.0,0.0,0.0,0.0,0.0,0.0,0.0,0.0,1.571,1.629,1.7071,1.7471,1.7278,1.7759,1.8135,1.8305,1.8409,1.8782,1.9535,1.9572,1.9999,2.0943,2.1157,2.1393,2.1757,2.1945,2.2046,2.2046,2.2046,2.2046,2.2046,2.2046,2.1889,2.1588,2.0701,2.0331,2.0271,1.9379,1.9879,2.116,2.0757,2.0612,2.0612,2.0612,2.0612,2.0564,2.0213,2.0,1.9691,1.8451,1.7694,1.7173,1.6684,1.6372,1.6238,1.6607,1.6531,1.6415,1.677,1.65,1.6122,1.6122,1.6122,1.6007,1.5497,1.6159,1.6715,1.6226,1.6637,1.6724,1.5611,1.5742,1.5618,1.4557,1.4745,1.5002,1.4998,1.4746,1.465,1.4971,1.4708,1.4475,1.4338,1.3938,1.389,1.4362,1.4212,1.4549,1.5565,1.5798,1.6095,1.65,1.5793,1.4701,1.3185,0.0,0.0,0.0,0.0,0.0,0.0,0.0,0.0,0.0,0.0,0.0,0.0,0.0,0.0,0.0,0.0,0.0,0.0,0.0,0.0,0.0,0.0,0.0,1.4226,1.5092,1.5957,1.65,1.7541,1.8028,1.7524,1.794,1.8456,1.9008,1.9058,1.9547,2.0666,2.0717,2.0968,2.1493,2.2033,2.2322,2.2305,2.2844,2.3108,2.3108,2.3108,2.3108,2.3108,2.3108,2.2659,2.1877,2.1005,2.0623,2.0526,1.9661,1.9792,2.0394,1.9363,1.8955,1.8955,1.8955,1.8955,1.8933,1.8933,1.8651,1.8309,1.828,1.7985,1.7595,1.7573,1.7056,1.6475,1.6464,1.595,1.541,1.541,1.541,1.541,1.541,1.541,1.541,1.541,1.541,1.541,1.541,1.6546,1.7175,1.6056,1.5873,1.5649,1.4944,1.4833,0.0,1.5361,1.541,1.541,1.541,1.541,1.5244,1.4844,1.4367,1.4198,1.4443,1.4602,1.4994,1.561,1.6194,1.65,1.65,1.5462,1.4362,1.3248,0.0,0.0,0.0,0.0,0.0,0.0,0.0,0.0,0.0,0.0,0.0,0.0,0.0,0.0,0.0,0.0,0.0,0.0,0.0,0.0,0.0,1.5527,1.6499,1.5724,1.6384,1.7275,1.8205,1.8594,1.8857,1.912,1.9271,1.9597,2.0201,2.0239,2.0553,2.1257,2.1295,2.1546,2.2071,2.2234,2.2498,2.2882,2.3032,2.3108,2.3108,2.3108,2.3108,2.3108,2.3108,2.2975,2.272,2.1908,2.1175,2.0526,1.9661,1.9077,1.8824,1.9747,2.0113,2.0113,2.0113,1.9847,1.9474,1.9474,1.9152,1.8663,1.8107,1.7841,1.7582,1.6754,1.6376,1.6138,1.579,1.5555,1.541,1.541,1.541,1.541,1.541,1.541,1.541,1.541,1.541,1.541,1.541,1.5719,1.5899,1.5588,1.554,1.5483,1.5273,1.5244,0.0,1.54,1.541,1.541,1.541,1.541,1.5371,1.5244,1.4533,1.4512,1.5488,1.5026,1.5175,1.6216,1.6402,1.65,1.65,1.5831,1.5135,0.0,0.0,0.0,0.0,0.0,0.0,0.0,0.0,0.0,0.0,0.0,0.0,0.0,0.0,0.0,0.0,0.0,0.0,0.0,0.0,0.0,0.0,1.743,1.8431,1.8198,1.8358,1.8623,1.8969,1.9196,1.9472,1.9773,2.0024,2.0327,2.0666,2.0905,2.1282,2.1807,2.1832,2.2083,2.2606,2.2631,2.2782,2.3108,2.3108,2.3108,2.3108,2.3108,2.3108,2.3108,2.3108,2.3108,2.3078,2.2261,2.1616,2.108,2.0204,1.9562,0.0,0.0,0.0,0.0,0.0,1.9284,1.8976,1.8976,1.868,1.8207,1.7789,1.751,1.7213,1.654,1.6338,1.6289,1.6035,1.583,1.5684,1.5684,1.5547,1.541,1.541,1.541,1.541,1.541,1.541,1.541,1.541,1.541,0.0,1.541,1.541,1.541,1.541,1.541,1.541,1.541,1.541,1.541,1.541,1.541,1.541,1.541,1.5054,0.0,0.0,0.0,1.5735,1.6457,1.65,0.0,0.0,0.0,0.0,0.0,0.0,0.0,0.0,1.4769,1.4933,0.0,0.0,0.0,0.0,0.0,0.0,0.0,0.0,0.0,0.0,0.0,0.0,0.0,0.0,0.0,0.0,1.9286,2.0395,2.0927,2.0588,2.0054,1.9392,1.9661,1.9901,1.9901,2.0378,2.0717,2.0779,2.1295,2.182,2.2343,0.0,0.0,0.0,0.0,2.3108,2.3108,2.3108,2.3108,2.3108,2.3108,2.3108,2.3108,2.3108,2.3108,2.3078,2.2353,2.197,2.1846,2.108,2.0687,2.043,1.8787,1.8076,1.8008,1.8008,1.8008,1.8008,1.8008,0.0,0.0,1.7484,1.7197,1.6833,1.6785,1.6775,1.6765,1.6716,1.6445,1.6153,1.6105,1.5801,1.5469,1.542,1.541,1.541,1.541,1.541,1.541,1.541,1.541,1.541,1.541,1.541,1.541,1.541,1.541,1.541,1.541,1.541,1.541,1.541,0.0,0.0,1.541,1.572,1.594,1.6074,1.6406,1.6633,1.6679,1.6688,1.6948,1.7486,1.7498,1.7714,1.8204,1.8204,1.8242,1.8242,1.6216,1.6065,0.0,0.0,0.0,0.0,0.0,0.0,0.0,0.0,0.0,0.0,0.0,0.0,0.0,0.0,0.0,1.9236,2.0916,2.2022,2.1606,2.1922,2.1945,2.1261,2.0851,2.0597,2.0597,2.0654,2.088,2.1292,2.1845,2.2397,2.292,2.2945,2.2995,2.3108,2.3108,2.3108,2.3108,2.3108,2.3108,2.3108,0.0,0.0,2.3108,2.3108,2.3108,2.3078,2.2944,2.2506,2.1877,2.1721,2.1227,2.0494,1.9464,1.862,1.8008,1.8008,1.8008,1.8008,1.8008,1.7959,1.7891,1.7891,1.7832,1.7695,1.7363,1.7256,0.0,1.6804,1.6638,1.6523,1.6183,1.6026,1.588,1.5498,1.541,1.541,1.541,1.541,1.541,1.541,1.541,1.541,1.541,1.541,1.541,1.541,1.541,1.541,1.541,1.541,1.541,1.541,1.541,1.541,1.541,1.572,1.6106,1.6602,1.7397,1.7861,1.7877,1.7877,1.7928,1.8041,1.8053,1.8103,1.8204,1.8204,1.8406,1.882,1.7965,1.7739,0.0,0.0,0.0,0.0,0.0,0.0,0.0,0.0,0.0,0.0,0.0,1.7056,1.8012,0.0,2.0423,2.1085,2.2044,2.2688,2.265,2.2952,2.2793,2.1828,2.1424,2.1137,2.082,2.1004,2.1243,2.1471,2.1995,2.2518,2.307,2.3108,2.3108,2.3108,2.3108,2.3108,2.3108,2.3108,2.3108,2.3108,2.3108,2.3108,2.3108,2.3108,2.3108,2.3108,2.3108,2.2884,2.2506,2.2506,2.2002,2.1207,2.0782,1.9814,1.8654,1.8654,1.8361,1.8008,1.8008,1.8008,1.8008,1.8008,1.8008,1.7969,1.7764,1.7695,1.7646,1.7432,1.7227,1.6953,1.6514,1.6261,1.5977,1.5518,1.541,1.541,1.541,1.541,1.541,1.541,1.541,1.541,1.541,1.541,1.541,1.541,1.541,1.541,1.541,1.541,1.541,1.541,1.541,1.541,1.541,1.5988,1.6629,1.7312,1.7885,1.8204,1.8204,1.8204,1.8342,1.8606,1.8594,1.8882,1.9459,1.9459,1.9723,2.025,1.9974,1.9698,0.0,0.0,0.0,0.0,0.0,0.0,0.0,1.577,1.6623,1.7488,1.8536,1.945,1.9992,2.1066,2.2054,2.2613,2.2808,2.3047,2.3535,2.3595,2.3216,2.2202,2.1969,2.17,2.1224,2.1537,2.1826,2.19,2.2396,2.2959,2.3535,2.356,2.356,2.356,2.3424,2.3395,2.356,2.3382,2.3335,2.3335,2.3471,2.3382,2.3108,2.3245,2.3245,2.3108,2.3108,2.3108,2.3108,2.3108,2.2732,2.2137,2.2137,2.1164,1.9748,1.9431,1.8854,1.8236,1.8076,1.8008,1.8008,1.8008,1.8008,1.8008,1.8008,1.8008,1.8008,1.8008,1.7764,1.7383,1.6833,1.6465,1.6095,1.5537,1.541,1.541,1.541,1.541,1.541,1.541,1.541,1.541,1.541,1.541,1.541,1.541,1.541,1.541,1.541,1.541,1.541,1.541,1.541,1.5468,1.5613,1.6431,1.7277,1.8007,1.8326,1.8518,1.8518,1.8618,1.8894,1.9309,1.9421,1.9949,2.0855,2.0855,2.1081,2.1493,2.1594,2.1355,1.238,1.3311,1.4383,1.5532,1.5743,1.6398,0.0,1.9121,1.8897,2.0767,2.1261,2.138,2.1455,2.2089,2.2613,2.2688,2.3152,2.352,2.3595,2.3595,2.3551,2.3406,2.2905,2.2558,2.2489,2.2484,2.2736,2.3315,2.3863,2.445,2.5106,2.5147,2.5147,2.5147,2.4509,2.4481,2.5147,2.4481,2.4176,2.4176,2.4838,2.4439,2.3138,2.3826,2.3767,2.3108,2.3108,2.3108,2.3108,2.3108,2.3047,2.2975,2.2975,2.2414,2.1428,1.9879,1.9233,1.9044,1.8269,1.8008,1.8008,1.8008,1.8008,1.8008,1.8008,1.8008,1.8008,1.8008,1.7978,1.7754,1.6911,1.6668,1.6414,1.5615,1.541,1.541,1.541,1.541,1.541,1.541,1.541,1.541,1.541,1.541,1.541,1.541,1.541,1.541,1.541,1.541,1.541,1.541,1.541,1.5671,1.6312,1.7064,1.7816,1.8567,1.925,1.9623,1.9623,2.0151,2.044,2.0515,2.0993,2.128,2.1393,2.1393,2.143,2.1493,2.1995,2.192,1.5117,1.5513,1.5899,1.7429,1.8231,1.9016,2.0374,2.0572,2.0677,2.153,2.1994,2.2283,2.2283,2.2808,2.3206,2.3206,2.343,2.3595,2.3595,2.3595,2.346,2.3122,2.3155,2.3076,2.2717,2.2671,2.2929,2.3545,2.3823,2.4349,2.5356,2.5398,2.5398,2.5398,2.5091,2.5091,2.5398,2.5091,2.4922,2.4922,2.5259,2.5063,2.4439,2.4781,2.4538,2.3796,2.3796,2.3531,2.3138,2.3603,2.3501,2.3108,2.3108,2.2884,2.2445,2.1259,2.0171,1.9299,1.9464,1.8854,1.8076,1.8596,1.8395,1.8008,1.8008,1.8361,1.8754,1.8754,1.888,1.886,1.8236,1.7552,1.6839,1.6189,1.5719,1.541,1.541,1.541,1.541,1.541,1.541,1.541,1.541,1.541,1.541,1.541,1.541,1.541,1.541,1.541,1.541,1.541,1.541,1.5526,1.5835,1.6539,1.7423,1.8506,1.9272,2.0025,2.0765,2.1043,2.1169,2.1169,2.1408,2.1644,2.197,2.197,2.2133,2.2447,2.2656,2.2644,1.6618,1.7055,1.7533,1.8801,2.0055,2.1017,2.1216,2.162,2.2009,2.2188,2.2478,2.2703,2.2703,2.2912,2.3131,2.331,2.334,2.34,2.358,2.3445,2.3299,2.3181,2.3282,2.3293,2.3179,2.3054,2.3201,2.3823,2.4063,2.4614,2.5675,2.5901,2.6,2.6,2.581,2.581,2.6,2.581,2.5701,2.5701,2.5919,2.5783,2.5398,2.5175,2.4823,2.4292,2.406,2.3767,2.3454,2.3826,2.3767,2.3395,2.3198,2.3108,2.3035,2.2445,2.129,2.0074,2.0462,1.9781,1.8821,1.9464,1.9243,1.8654,1.8428,1.8977,1.9595,1.9365,1.963,1.9867,1.9437,1.8539,1.7571,1.689,1.6204,1.5642,1.5439,1.541,1.541,1.541,1.541,1.541,1.541,1.541,1.541,1.541,1.5508,1.5547,1.543,1.5518,1.5644,1.5762,1.5771,1.5771,1.5771,1.6431,1.7267,1.8254,1.8988,1.9932,2.1078,2.1267,2.148,2.1719,2.187,2.2133,2.2506,2.2506,2.2719,2.3108,2.3108,2.3108,1.6174,1.7685,1.9615,1.966,2.0677,2.1829,2.2493,2.2658,2.2838,2.3415,2.3092,2.2703,2.2703,2.2194,2.1964,2.2628,2.2718,2.2942,2.352,2.3107,2.3135,2.4235,2.3396,2.3151,0.0,2.3879,2.385,2.4507,2.5171,2.5828,2.6523,2.7166,2.7534,2.7534,2.6826,2.68,2.7524,2.6826,2.6484,2.6484,2.7188,2.6771,2.537,2.4652,2.4321,2.4263,2.3484,2.3573,2.4205,2.3454,2.3573,2.4205,2.3395,2.3108,2.3108,2.3078,2.2537,2.169,2.0878,2.0558,2.0526,2.0558,2.0526,2.0365,1.9529,1.989,2.0365,1.9529,1.9901,2.0488,2.0014,1.9459,1.8759,1.7629,1.6922,1.6265,1.5555,1.541,1.541,1.541,1.541,1.541,1.541,1.541,1.541,1.541,1.5801,1.5919,1.5469,1.5811,1.6242,1.6619,1.6658,1.6658,1.6658,1.7338,1.779,1.7831,1.8509,1.9315,2.0197,2.0742,2.1414,2.2255,2.2782,2.3058,2.3083,2.3083,2.3083,2.3108,2.3108,2.3108,1.8687,1.9361,2.0022,2.1355,2.2029,2.2626,2.3616,2.3836,2.3856,2.3924,2.3768,2.3486,2.2992,2.2447,2.2275,2.2811,2.2792,2.2851,2.3341,2.3341,2.329,2.3268,2.3288,0.0,0.0,0.0,0.0,2.4545,2.5217,2.5899,2.6557,2.724,2.76,2.76,2.7357,2.7357,2.76,2.7357,2.7229,2.7229,2.7484,2.7357,2.6811,2.5577,2.5035,2.5007,2.4753,2.4208,2.356,2.4323,2.4509,2.4234,2.3424,2.3424,2.3826,2.3305,2.2914,2.2659,2.2372,2.1542,2.0687,2.1259,2.1069,2.0558,2.0236,2.0782,2.1396,2.1112,2.1357,2.1626,2.1093,2.0206,1.9221,1.8437,1.7367,1.6425,1.6179,1.5748,1.541,1.541,1.5644,1.587,1.587,1.6094,1.6258,1.6258,1.6162,1.6144,1.6239,1.6416,1.6562,1.6687,1.6697,1.6697,1.6697,1.6939,1.7416,1.8291,1.8553,1.9244,2.0418,2.119,2.1738,2.2025,2.2737,2.3108,2.3108,2.3108,2.3108,2.3108,2.3108,2.3308,1.9884,2.0378,2.0824,2.2526,2.3132,2.3468,2.4146,2.4173,2.3931,2.3529,2.3272,2.2957,2.2479,2.1944,2.1761,2.2299,2.2355,2.252,2.3021,2.3205,2.329,2.3303,2.3293,2.3275,0.0,0.0,0.0,2.4201,2.5083,2.5794,2.6213,2.7106,2.76,2.76,2.76,2.76,2.76,2.76,2.76,2.76,2.76,2.76,2.756,2.6349,2.5646,2.5398,2.5398,2.4838,2.4018,2.5007,2.5119,2.4652,2.4134,2.3901,2.3826,2.3619,2.3335,2.3108,2.3108,2.2402,2.1573,2.2156,2.1959,2.1447,2.1164,2.1647,2.2261,2.197,2.2232,2.2493,2.2171,2.1168,2.0116,1.9451,1.8085,1.6821,1.6578,1.5921,1.5459,1.5615,1.5899,1.6144,1.6279,1.6543,1.6755,1.6911,1.6719,1.6672,1.6934,1.6963,1.7021,1.7145,1.7155,1.7155,1.7155,1.7155,1.7523,1.8328,1.8381,1.8929,2.0096,2.0974,2.1585,2.1877,2.2702,2.3108,2.3108,2.3108,2.3208,2.3409,2.3409,2.3722,1.9783,2.0775,2.2053,2.3137,2.3894,2.4293,2.4115,2.3718,2.3173,2.2399,2.1721,2.1277,2.12,2.0671,2.0469,2.1138,2.1497,2.1939,2.2594,2.2724,2.3151,2.4246,2.3411,2.3166,2.4246,2.39,0.0,2.3655,0.0,2.5615,2.5659,2.6896,2.76,2.76,2.76,2.76,2.76,2.76,2.76,2.76,2.756,2.756,2.7575,2.68,2.6095,2.5453,2.5453,2.5398,2.5342,2.5425,2.5398,2.5342,2.5398,2.4496,2.3245,2.4031,2.3796,2.3108,2.3108,2.3108,2.3108,2.3108,2.3108,2.2944,2.2187,2.2506,2.2944,2.2199,2.2506,2.3095,2.3032,2.2272,2.13,2.0564,1.8967,1.744,1.6708,1.5999,1.5625,1.6016,1.6134,1.63,1.6687,1.6765,1.6911,1.7353,1.7422,1.7422,1.7422,1.7422,1.7568,1.7969,1.8008,1.8008,1.8008,1.8008,1.8008,1.8008,1.8008,1.8361,1.921,2.0074,2.0942,2.1815,2.2628,2.306,2.3145,2.3145,2.3446,2.4042,2.4042,2.4343,2.1035,2.207,2.3069,2.3455,2.3565,2.3595,2.3569,2.3374,2.283,2.1658,2.126,2.0831,1.9779,1.961,1.9779,2.0258,2.1108,2.1858,2.2347,2.2969,2.3479,2.3758,2.3552,2.3479,2.3779,2.3681,0.0,0.0,2.5113,2.5824,2.6318,2.7151,2.76,2.76,2.76,2.76,2.76,2.76,2.76,2.76,2.7034,2.706,2.7575,2.6269,2.5864,2.6229,2.6229,2.5591,2.4681,2.5755,2.5563,2.4652,2.5175,2.4809,2.4031,2.4234,2.3796,2.3108,2.3108,2.3108,2.3108,2.3108,2.3108,2.3078,2.2854,2.2944,2.3078,2.2854,2.2944,2.292,2.2121,2.1707,2.124,2.0213,1.9158,1.8232,1.7468,1.7002,1.6605,1.6186,1.6623,1.721,1.7607,1.7686,1.7725,1.7832,1.7852,1.7852,1.7852,1.7852,1.7891,1.7998,1.8008,1.8008,1.8008,1.8008,1.8008,1.8008,1.8008,1.811,1.8337,1.9177,2.0042,2.091,2.1772,2.2714,2.3778,2.3778,2.4067,2.4587,2.4587,2.4895,2.2583,2.3475,2.4186,2.4147,2.3901,2.3532,2.2853,2.2325,2.1494,1.9813,1.9824,1.9676,1.8137,1.8819,1.9547,1.9324,2.0395,2.1448,2.1957,2.2712,2.3295,2.3565,2.3595,2.3595,2.3595,2.3595,2.3999,0.0,2.5382,2.5899,2.6557,2.724,2.76,2.76,2.76,2.76,2.76,2.728,2.728,2.76,2.6852,2.6721,2.7086,2.5919,2.5618,2.6041,0.0,2.6041,2.5315,2.6149,2.6014,2.5315,2.5728,2.5231,2.435,2.4652,2.4279,2.3632,2.3632,2.3632,2.3573,2.3215,2.3108,2.3108,2.3108,2.3108,2.3108,2.3108,2.2932,2.2606,2.2008,2.1493,2.0993,2.0365,1.9187,1.8085,1.7688,1.7155,1.6719,1.6687,1.723,1.7734,1.7969,1.8008,1.8008,1.8008,1.8008,1.8008,1.8008,1.8008,1.8008,1.8008,1.8008,1.8008,1.8008,1.8008,1.8008,1.8008,1.8008,1.8008,1.8008,1.8854,1.9726,2.059,2.1681,2.2832,2.4004,2.4243,2.4644,2.5159,2.5159,2.5448,2.3749,2.4441,2.4938,2.463,2.4225,2.35,2.195,2.0895,1.9638,1.7615,1.7816,1.7913,1.6456,1.7913,1.9137,1.8424,1.9578,2.0812,2.147,2.2224,2.2897,2.3415,2.355,2.3595,2.3595,2.3595,2.4118,2.5375,2.5555,2.5929,2.6701,2.7285,2.76,2.76,2.76,2.7534,2.7458,2.6826,2.6774,2.7291,2.6654,2.6336,2.6336,2.5673,2.5398,2.5425,2.6095,2.6336,2.6336,2.6336,2.6283,2.6229,2.6431,2.5591,2.4408,2.5119,2.5007,2.4423,2.4321,2.435,2.4308,2.3501,2.3198,2.3108,2.3108,2.3108,2.3095,2.3007,2.2656,2.2284,2.2133,2.1408,2.0679,2.0591,1.9141,1.7715,1.7633,1.685,1.6447,1.7295,1.7764,1.8008,1.8008,1.8008,1.8008,1.8008,1.8008,1.8008,1.8008,1.8008,1.8008,1.8008,1.8008,1.8008,1.8008,1.8008,1.8008,1.8008,1.8008,1.8008,1.8008,1.8721,1.9551,2.0497,2.1835,2.3023,2.4016,2.463,2.5197,2.5711,2.5711,2.6009,2.2452,2.3154,2.3862,2.3415,2.2829,2.2074,2.0853,1.9639,1.8253,1.6454,1.5788,1.5423,1.5142,1.585,1.6803,1.7693,1.8979,2.0109,2.0778,2.1939,2.2733,2.2838,2.3295,2.3595,2.3595,2.3595,0.0,0.0,2.5277,2.6138,2.736,2.754,2.76,2.76,2.76,2.7306,2.6695,2.6563,2.6256,2.5783,2.5646,2.5591,2.5591,2.5453,2.5398,2.5398,2.5536,0.0,2.5591,2.5591,2.5231,2.4794,2.6014,2.5591,2.4408,2.5119,2.5315,2.5119,2.4509,2.4709,2.5091,2.4337,2.3649,2.3108,2.3108,2.3108,2.3007,2.2556,2.2355,2.2096,2.1219,2.083,2.0566,2.0062,1.9223,1.8328,1.7731,1.7052,1.6833,1.7734,1.7959,1.8008,1.8008,1.8008,1.8008,1.8008,1.8008,1.8008,1.8008,1.8008,1.8008,1.8008,1.8008,1.8008,1.8008,1.8008,1.8008,1.8008,1.8008,1.8008,1.8008,1.8144,1.8792,2.0014,2.1075,2.2472,2.4174,2.5045,2.5749,2.6348,2.6348,2.6399,2.2998,2.3391,2.372,2.3309,2.2471,2.1359,1.9957,1.8532,1.6985,1.5137,1.4639,1.426,1.3397,1.4775,1.6145,1.6406,1.7677,1.9086,2.0273,2.1136,2.1924,2.2613,2.3242,2.3595,2.3595,2.3595,2.3879,2.4545,2.5217,2.6033,2.7031,2.7052,2.6837,2.6481,2.6455,2.6295,2.5933,2.5933,2.5755,2.5398,2.5007,2.4823,2.4823,2.4381,2.4439,2.4823,2.4823,0.0,2.5933,2.5563,2.5425,2.5481,2.5783,2.5508,2.4922,2.5259,2.5398,2.5342,2.5007,2.5091,2.5342,2.4979,2.4337,2.3708,2.3708,2.3424,2.2995,2.2443,2.2108,2.1694,2.0905,2.0465,2.015,1.9874,1.9228,1.8507,1.7864,1.7488,1.74,1.7909,1.8008,1.8008,1.8008,1.8008,1.8008,1.8008,1.8008,1.8008,1.8008,1.8008,1.8008,1.8008,1.8008,1.8008,1.8008,1.8008,1.8008,1.8008,1.8008,1.8008,1.8008,1.8008,1.8594,1.9868,2.116,2.2616,2.4197,2.5447,2.6223,2.6499,2.6499,2.6499,2.3306,2.3423,2.3371,2.322,2.2264,2.0931,1.9177,1.7599,1.595,1.3989,1.3678,1.3409,1.2219,1.3953,1.5512,1.5419,1.6577,1.8051,1.9655,2.0488,2.1306,2.2358,2.3152,2.3595,2.3595,2.3595,0.0,2.435,2.4901,2.5604,2.6515,2.6418,2.5962,2.5218,2.5107,2.5012,2.497,2.497,2.4955,2.4894,2.4481,2.4205,2.4031,2.3573,2.3619,2.4031,2.4031,2.4809,0.0,2.5231,2.5342,2.5987,2.5398,2.5147,2.5175,2.5342,2.5508,2.5618,2.5453,2.5618,2.5837,2.5673,2.5147,2.4509,2.435,2.3855,2.3196,2.2351,2.1832,2.1358,2.0679,2.0163,1.9747,1.9605,1.9208,1.8732,1.8207,1.8018,1.8092,1.8468,1.8269,1.8076,1.8236,1.81,1.8008,1.8008,1.8008,1.8008,1.8008,1.8008,1.8008,1.8008,1.8008,1.8008,1.8008,1.8008,1.8008,1.8008,1.8008,1.8008,1.8008,1.8096,1.8641,1.9737,2.1268,2.2601,2.3746,2.5375,2.6176,2.6164,2.6383,2.6499,2.1702,2.1811,2.1917,2.2298,2.173,2.0527,1.8538,1.6941,1.5305,1.331,1.2422,1.2174,1.2621,1.2929,1.3705,1.548,1.6338,1.728,1.8631,2.0427,2.165,2.1769,2.2862,2.3595,2.3595,2.3595,2.3625,2.3684,2.381,2.4645,2.6402,2.5983,2.5331,2.4622,2.4107,2.3779,2.36,2.3572,2.3483,2.3335,2.3972,2.3914,2.3215,2.3884,2.3826,2.3215,2.3215,2.3708,0.0,2.3649,2.3796,2.4509,2.4423,2.4408,2.4481,2.5147,2.581,2.6283,2.5618,2.6269,2.7306,2.6616,2.5906,2.5175,2.4509,2.4263,2.3825,2.2084,2.1531,2.1242,2.0162,1.9849,1.9631,1.8953,1.9176,1.9411,1.9048,1.8725,1.8882,2.0137,1.9077,1.8236,1.9044,1.8529,1.8008,1.8008,1.8008,1.8008,1.8008,1.8008,1.8008,1.8008,1.8008,1.8008,1.8008,1.8008,1.8008,1.8008,1.8008,1.8008,1.8008,1.8344,1.8815,1.9354,2.0746,2.1697,2.2227,2.4169,2.5158,2.5158,2.606,2.6499,2.0735,2.1023,2.1275,2.1461,2.1039,2.005,1.8091,1.6697,1.5173,1.2959,1.2126,1.1825,1.1883,1.2393,1.3262,1.4671,0.0,1.6097,1.7654,1.9036,2.0198,2.1006,2.2263,2.3191,2.3565,2.3595,2.3628,2.3655,2.3688,2.3843,2.4144,2.3913,2.3472,2.2703,2.2924,2.2791,2.226,2.3029,2.2979,2.2146,2.2792,2.2916,2.2636,2.2945,2.3107,2.3108,2.3108,2.3573,0.0,2.3943,2.4002,2.4292,2.4292,2.4292,2.435,2.4624,2.5203,2.5783,2.5508,2.6081,2.6878,2.659,2.6602,2.6508,2.5315,2.4652,2.3977,2.2426,2.1744,2.1393,2.0928,2.0815,2.0761,2.0449,2.0567,2.0665,2.0317,2.0121,2.0141,2.0522,1.9628,1.8877,1.9233,1.8596,1.8008,1.8008,1.8008,1.8008,1.8008,1.8008,1.8008,1.8008,1.8008,1.8008,1.8008,1.8008,1.8008,1.8008,1.8008,1.8125,1.8344,1.9093,1.9858,2.0549,2.1696,2.2491,2.2925,2.4301,2.5004,2.5004,2.6025,2.6499,1.9899,2.0409,2.0829,2.0959,2.0508,1.9525,1.7549,1.6278,1.4861,1.2619,1.1891,1.1615,1.1468,1.195,1.2688,0.0,0.0,1.5343,1.689,1.8193,1.942,2.0554,2.171,2.2658,2.3266,2.349,2.3548,2.3421,2.3225,2.2797,2.2114,2.1878,2.1624,2.127,2.1583,2.161,2.127,2.215,2.224,2.1493,2.1882,2.2071,2.2071,2.2071,2.2284,2.2619,2.2619,2.303,0.0,2.3725,2.3787,2.3943,2.3943,2.3943,2.3972,2.4205,2.4766,2.5398,2.5398,2.5864,2.6457,2.6256,2.668,2.7034,2.5783,2.5175,2.466,2.3341,2.2418,2.1829,2.1829,2.1675,2.1493,2.1493,2.1606,2.1677,2.1455,2.132,2.1292,2.1315,2.0236,1.9365,1.965,1.8754,1.8008,1.8008,1.8008,1.8008,1.8008,1.8008,1.8008,1.8008,1.8008,1.8008,1.8008,1.8008,1.8057,1.8184,1.8159,1.8354,1.8773,1.9601,2.0456,2.1382,2.2212,2.2925,2.3514,2.4528,2.4862,2.46,2.5873,2.6499,1.9102,1.985,2.0416,2.0878,2.0209,1.8889,1.6876,1.5574,1.4242,1.2224,1.1549,1.1412,1.1725,1.1538,1.1641,1.2649,1.3927,0.0,1.6532,1.8433,1.9929,2.0613,2.1306,2.1964,2.2643,2.3236,2.3355,2.2754,2.2114,0.0,2.0833,2.0195,2.0113,2.0679,2.0151,2.0113,2.0691,2.0731,2.0981,2.1493,2.1493,2.1493,2.1493,2.1493,2.1493,2.1506,2.1506,2.1807,0.0,2.2322,2.2636,2.3108,2.3108,2.3108,2.3215,2.4002,2.4766,2.5398,2.5398,2.5864,2.6377,2.5646,2.5906,2.6363,2.5618,2.5906,2.6208,2.4838,2.3581,2.2604,2.2604,2.2063,2.1493,2.1493,2.1907,2.2297,2.228,2.2097,2.2125,2.2914,2.1026,1.9562,2.043,1.9144,1.8008,1.8008,1.8008,1.8008,1.8008,1.8008,1.8008,1.8008,1.8008,1.8008,1.8008,1.8008,1.8184,1.8568,1.8598,1.8792,1.9268,1.9678,2.0369,2.1392,2.1796,2.2515,2.3514,2.4528,2.4492,2.3551,2.5569,2.6499,1.6834,1.7786,1.8458,1.7651,1.7402,1.687,1.5045,1.4362,1.3562,1.1594,1.1256,1.1205,1.0902,1.1089,1.1846,1.3547,1.4378,0.0,1.7145,1.8326,1.9435,2.0554,2.2069,2.2923,0.0,0.0,2.2543,2.1489,2.1199,2.0807,2.0144,1.9927,1.9886,2.0075,1.9899,1.9886,2.0075,2.049,2.0578,2.0338,2.0767,2.0955,2.0955,2.0955,2.1157,2.1493,2.1493,2.1594,0.0,2.1744,2.2071,2.2543,2.2543,2.2782,2.3138,2.3395,2.3972,2.4709,2.5231,2.5864,2.6537,2.6811,2.706,2.7214,2.6967,2.6707,2.6234,2.4865,2.4517,2.4313,2.3375,2.3282,2.3295,2.2728,2.2719,2.2844,2.2844,2.279,2.2793,2.3047,2.199,2.0974,2.0655,1.9661,1.8687,1.8076,1.8008,1.8008,1.8008,1.8008,1.8008,1.8008,1.8008,1.8008,1.8008,1.8008,1.8448,1.9558,1.9624,2.0268,2.1679,2.1898,2.2234,2.2805,2.2959,2.3184,2.3514,2.4528,2.5182,2.5569,2.6198,2.6499,1.4957,1.6144,1.6896,1.6018,1.58,1.5448,1.4113,1.3513,1.2812,1.1353,1.0999,1.0891,1.0629,1.0904,1.1677,1.3273,1.4031,1.5111,1.704,1.8117,1.9301,2.0902,2.2147,0.0,0.0,2.2309,2.1903,2.087,2.0795,2.0497,1.9824,1.9798,1.9798,1.9798,1.9798,1.9798,1.9798,2.0189,2.0189,1.9811,2.0189,2.0365,2.0365,2.0365,2.0553,2.0853,2.0853,0.0,0.0,2.1207,2.1631,2.2309,2.2309,2.2619,2.3108,2.3108,2.3796,2.4794,2.5231,2.5864,2.6537,2.6707,2.6785,2.6864,2.7433,2.728,2.6739,2.5899,2.5742,2.5603,2.4778,2.4442,2.4176,2.3649,2.3305,2.3108,2.3108,2.3108,2.3108,2.3108,2.2445,2.1721,2.1175,2.0074,1.911,1.8553,1.8202,1.8008,1.8008,1.8008,1.8008,1.8008,1.8008,1.8008,1.8008,1.812,1.8824,2.0257,2.0516,2.1363,2.308,2.2742,2.2849,2.3478,2.3514,2.3708,2.4072,2.4707,2.5511,2.6499,2.6094,2.6129,0.0,1.4653,1.5453,1.5394,1.4887,1.4275,1.3707,1.2834,0.0,1.1388,1.0808,1.0522,1.0935,1.0993,1.1334,1.2413,1.3384,1.4679,1.6577,1.8042,1.9615,2.147,2.1724,0.0,2.1707,2.1671,2.139,2.0771,2.0721,2.0446,1.9824,1.9798,1.9798,1.9798,1.9798,1.9798,1.9798,1.9798,1.9798,1.9798,1.9798,1.9798,1.9798,1.9798,1.9798,0.0,1.9798,0.0,0.0,2.0629,2.1257,2.2196,2.2196,2.2506,2.2995,2.3032,2.3955,2.5191,2.5342,2.5836,2.6332,2.5741,2.5563,2.581,2.7188,2.76,2.76,2.76,2.7126,2.6563,2.651,2.5481,2.4423,2.4321,2.3767,2.3245,2.3138,2.3125,2.3168,2.3108,2.2506,2.197,2.1908,2.0558,1.9464,1.9398,1.8654,1.8076,1.8076,1.8042,1.8008,1.8008,1.8008,1.8042,1.8076,1.8389,1.9233,2.0698,2.1248,2.2142,2.354,2.2702,2.2664,2.3588,2.3599,2.4108,2.5123,2.5123,2.5594,2.6499,2.5546,2.5616,0.9725,0.0,1.1991,1.1427,1.1019,1.0877,0.0,1.1009,1.0641,1.0931,1.0678,1.075,1.1831,1.184,1.2474,1.4964,1.5728,1.6547,1.8012,1.9824,2.1171,2.1635,2.214,2.2246,2.1736,2.1284,2.0733,2.0067,2.0029,1.9978,1.9798,1.9798,1.9798,1.9798,1.9798,1.9798,1.9798,1.9798,1.9798,1.9798,1.9798,1.9798,1.9798,1.9798,1.9798,1.9798,0.0,0.0,2.0012,2.0012,2.044,2.1081,2.1081,2.1393,2.1933,2.2347,2.2753,2.3338,2.4888,2.5541,2.5885,2.678,2.7071,2.7163,2.7484,2.76,2.76,2.76,2.7473,2.7214,2.6642,2.6229,2.5701,2.4567,2.4595,2.4525,2.3365,2.3573,2.3826,2.3215,2.2944,2.2628,2.2002,2.1565,2.1069,2.0398,1.9562,1.8977,1.8977,1.8395,1.8008,1.8008,1.8008,1.8269,1.8944,1.876,1.9233,2.0698,2.1892,2.3165,2.4576,2.4409,2.442,2.4636,2.4636,2.5146,2.6129,2.6129,2.628,2.6487,2.6245,2.628,0.7776,0.9373,1.0894,1.0692,1.0681,1.0908,1.1576,1.103,1.0539,1.0989,1.0726,1.0749,1.1952,1.2183,1.2983,1.5428,1.6134,1.7143,1.931,2.0827,2.1803,2.2113,2.2195,2.1983,0.0,2.0708,2.0207,1.9824,1.9798,1.9798,1.9798,1.9798,1.9798,1.9798,1.9798,1.9798,1.9798,1.9798,1.9798,1.9798,1.9798,1.9798,1.9798,1.9798,1.9798,1.9798,0.0,0.0,1.9798,1.9798,2.015,2.0691,2.0691,2.1182,2.187,2.192,2.2334,2.3027,2.4163,2.4978,2.5734,2.7134,2.7382,2.7178,2.7484,2.76,2.76,2.76,2.76,2.7524,2.7126,2.6747,2.6283,2.5508,2.537,2.5175,2.4323,2.4509,2.4595,2.3796,2.3662,2.3382,2.2598,2.2125,2.1753,2.127,2.0462,1.989,1.989,1.9144,1.8596,1.8596,1.8236,1.8202,1.8654,1.8844,1.9824,2.1909,2.273,2.394,2.5616,2.4814,2.4528,2.4981,2.5004,2.5476,2.6499,2.6499,2.6499,2.6499,2.6499,2.6499,0.7027,0.8899,1.0778,1.094,1.1382,1.1905,1.2361,1.158,1.0878,1.1331,1.0972,1.0951,1.2128,1.2609,1.347,1.5396,1.6092,1.7415,2.0288,2.1276,2.1904,2.2488,2.2044,0.0,2.087,2.0207,1.9798,1.9798,1.9798,1.9798,1.9798,1.9798,1.9798,1.9798,1.9798,1.9798,1.9798,1.9798,1.9798,1.9798,1.9798,1.9798,1.9798,1.9798,1.9798,1.9798,0.0,0.0,1.9798,1.9798,2.0087,2.0566,2.0566,2.1131,2.1882,2.1506,2.2082,2.3082,2.3595,2.4523,2.5736,2.7138,2.7086,2.6642,2.7382,2.76,2.76,2.76,2.76,2.76,2.76,2.7152,2.6642,2.6537,2.6122,2.5673,2.5453,2.5481,2.5342,2.4595,2.4379,2.4089,2.3395,2.2628,2.2063,2.2063,2.1365,2.0814,2.0814,2.0042,1.9464,1.9299,1.863,1.8202,1.8202,1.9133,2.0815,2.3335,2.351,2.4397,2.6418,2.4874,2.4361,2.5229,2.5229,2.5664,2.6499,2.6499,2.6499,2.6499,2.6499,2.6499,0.7814,0.9056,0.9824,0.8861,0.9229,1.0039,1.0833,1.0512,1.0405,1.1638,1.1635,1.2021,1.399,1.4358,1.5049,1.7153,1.7942,1.8855,0.0,0.0,2.1741,2.1838,0.0,2.1448,2.087,2.0207,1.9798,1.9798,1.9798,1.9798,1.9798,1.9798,1.9798,1.9798,1.9798,1.9798,1.9798,1.9798,1.9798,1.9798,1.9798,1.9798,1.9798,1.9798,1.9798,1.9798,0.0,1.9798,1.9798,1.9798,1.9849,1.9936,1.9936,2.0037,2.0238,2.0666,2.0964,2.1526,2.377,2.4909,2.5656,2.7119,2.7086,2.6642,2.7382,2.76,2.76,2.76,2.76,2.76,2.76,2.7524,2.728,2.6642,2.6878,2.6916,2.5673,2.5892,2.6122,2.537,2.4738,2.4263,2.4147,2.3442,2.2914,2.2914,2.2218,2.169,2.169,2.0942,2.0107,1.9365,1.9177,1.911,1.911,2.0721,2.2264,2.3435,2.351,2.4397,2.6418,2.6198,2.6117,2.628,2.628,2.6349,2.6499,2.6499,2.6499,2.6499,2.6499,2.6499,0.7247,0.8399,0.9385,0.9047,1.014,1.1531,1.244,1.2064,1.1845,1.2955,1.2951,1.3194,1.4738,1.5254,1.6121,1.811,0.0,2.0124,2.1111,2.1814,2.2096,0.0,0.0,2.1328,2.0346,1.9978,1.9798,1.9798,1.9798,1.9798,1.9798,1.9798,1.9798,1.9798,1.9798,1.9798,1.9798,1.9798,1.9798,1.9798,1.9798,1.9798,1.9798,1.9798,1.9798,1.9798,0.0,1.9798,1.9798,1.9798,1.9798,1.9798,1.9798,1.9987,2.0327,2.0591,2.0733,2.1067,2.293,2.3934,2.4714,2.6437,2.6774,2.6642,2.7382,2.76,2.76,2.76,2.76,2.76,2.76,2.76,2.7509,2.7163,2.7357,2.7408,2.6733,2.6864,2.6878,2.6149,2.5728,2.5231,2.4423,2.4002,2.359,2.3168,2.2793,2.2537,2.2537,2.1803,2.1144,2.0751,1.9846,1.9299,1.9299,2.0619,2.2259,2.4186,2.4836,2.5276,2.5652,2.6198,2.6499,2.6499,2.6499,2.6499,2.6499,2.6499,2.6499,2.6499,2.6499,2.6499,0.6925,0.8022,0.9245,0.989,1.1295,1.2797,1.396,1.3531,1.3185,1.4159,1.4158,1.4241,1.5141,1.6001,1.7121,1.8809,2.0,2.0874,2.1396,2.2028,2.2222,2.157,2.1496,2.1037,1.9927,1.9798,1.9798,1.9798,1.9798,1.9798,1.9798,1.9798,1.9798,1.9798,1.9798,1.9798,1.9798,1.9798,1.9798,1.9798,1.9798,1.9798,1.9798,1.9798,1.9798,1.9798,1.9798,1.9798,1.9798,1.9798,1.9798,1.9798,1.9798,2.0075,2.049,2.049,2.0603,2.0949,2.2168,2.2911,2.3659,2.5794,2.6377,2.6416,2.7331,2.76,2.76,2.76,2.76,2.76,2.76,2.76,2.76,2.76,2.76,2.76,2.76,2.76,2.7433,2.6878,2.6616,2.6149,2.5007,2.4681,2.4337,2.3725,2.3501,2.3395,2.3395,2.2689,2.2094,2.1908,2.0719,1.9955,2.0107,2.0922,2.2509,2.4977,2.5985,2.6164,2.537,2.6094,2.6499,2.6499,2.6499,2.6499,2.6499,2.6499,2.6499,2.6499,2.6499,2.6499,0.7886,0.8636,0.9412,1.0756,1.1215,1.1781,1.3533,1.3403,1.3275,1.4593,1.4828,1.4992,1.5547,1.6917,1.834,1.9464,2.024,2.0724,2.0775,0.0,2.1552,2.0937,2.087,2.0597,1.9875,1.9798,1.9798,1.9798,1.9798,1.9798,1.9798,1.9798,1.9798,1.9798,1.9798,1.9798,1.9798,1.9798,1.9798,1.9798,1.9798,1.9798,1.9798,1.9798,1.9798,1.9798,1.9798,1.9798,1.9798,1.9798,1.9798,1.9798,1.9798,1.9823,1.9861,1.9861,2.0227,2.0891,2.2153,2.2509,2.284,2.5585,2.6041,2.5755,2.7163,2.76,2.76,2.76,2.76,2.76,2.76,2.76,2.76,2.76,2.76,2.76,2.76,2.76,2.7575,2.7524,2.6956,2.6484,2.6363,2.5755,2.5287,2.5231,2.4652,2.4205,2.4205,2.3501,2.2732,2.197,2.1784,2.191,2.2427,2.2982,2.3941,2.5444,2.6163,2.6452,2.6383,2.6452,2.6499,2.6499,2.6499,2.6499,2.6499,2.6499,2.6499,2.6499,2.6499,2.6499,0.6882,0.8264,0.9792,1.0609,1.1796,1.3017,1.4036,1.4393,1.4859,1.6133,1.6399,1.6551,1.7103,1.7417,1.7947,1.9024,1.9757,2.032,2.0653,2.1272,2.1476,2.0868,2.0795,2.0535,1.9875,1.9798,1.9798,1.9798,1.9798,1.9798,1.9798,1.9798,1.9579,1.9123,1.9553,1.9579,1.9123,1.9553,1.9798,1.9798,1.9798,1.9798,1.9798,1.9798,1.9798,1.9798,1.9798,1.9798,1.9798,1.9798,1.9798,1.9836,2.02,2.0125,1.9849,2.0239,2.0503,2.0821,2.1637,2.2087,2.2703,2.5053,2.5618,2.5673,2.7163,2.76,2.76,2.76,2.76,2.76,2.76,2.76,2.76,2.76,2.76,2.76,2.76,2.76,2.76,2.76,2.7382,2.7034,2.659,2.6256,2.5933,2.5481,2.5147,2.4823,2.435,2.4031,2.3531,2.272,2.2199,2.2123,2.2647,2.3203,2.4096,2.5528,2.6172,2.6499,2.6499,2.6499,2.6499,2.6499,2.6499,2.6499,2.6499,2.6499,2.6499,2.6499,2.6499,2.6499,0.6486,0.8026,0.983,1.0595,1.2139,1.3709,1.4574,1.5149,1.5812,1.7054,1.7167,1.7209,1.7747,1.7544,0.0,0.0,1.9362,1.9966,2.0131,2.0882,2.1172,2.0547,2.0472,2.0295,1.985,1.9798,1.9798,1.9798,1.9798,1.9798,1.9798,1.9579,1.9228,1.8715,1.9202,1.9202,1.8688,1.9423,1.9798,1.9798,1.9798,1.9798,1.9798,1.9798,1.9798,1.9798,1.9798,1.9798,1.9798,1.9798,1.9798,1.9861,2.0465,2.0453,2.0137,2.0742,2.0955,2.1006,2.1355,2.1845,2.262,2.4489,2.5232,2.5673,2.7163,2.76,2.76,2.76,2.76,2.76,2.76,2.76,2.76,2.76,2.76,2.76,2.76,2.76,2.76,2.76,2.76,2.7433,2.693,2.6852,2.668,2.6162,2.5892,2.5481,2.4738,2.4423,2.4002,2.3198,2.2598,2.2437,2.28,2.3478,2.4312,2.5302,2.6084,2.6499,2.6499,2.6499,2.6499,2.6499,2.6499,2.6499,2.6499,2.6499,2.6499,2.6499,2.6499,2.6499,0.7097,0.8085,0.945,1.086,1.2126,1.3443,1.5053,1.5419,1.5775,1.7047,1.6879,1.668,1.7188,1.7312,0.0,1.8007,1.9114,1.9661,1.9067,2.0046,2.0547,1.9863,1.9798,1.9798,1.9798,1.9798,1.9798,1.9798,1.9798,1.9798,1.9798,1.9097,1.8688,1.8688,1.8688,1.8688,1.8688,1.9423,1.9798,1.9798,1.9798,1.9798,1.9798,1.9798,1.9798,1.9798,1.9798,1.9798,1.9798,1.9798,1.9798,1.9861,2.0465,2.0691,2.0754,2.1307,2.1493,2.1493,2.1493,2.1845,2.2556,2.4028,2.4914,2.5673,2.7163,2.76,2.76,2.76,2.76,2.76,2.76,2.76,2.76,2.76,2.76,2.76,2.76,2.76,2.76,2.76,2.76,2.76,2.76,2.76,2.76,2.76,2.6982,2.6229,2.5508,2.4766,2.4002,2.3198,2.3108,2.3108,2.3108,2.4148,2.4788,2.48,2.585,2.6499,2.6499,2.6499,2.6499,2.6499,2.6499,2.6499,2.6499,2.6499,2.6499,2.6499,2.6499,2.6499,0.6754,0.8382,1.0243,1.1249,1.3204,1.512,1.597,1.6101,1.6271,1.7113,1.7167,1.7118,1.7271,1.6993,0.0,1.7442,1.7873,1.8208,1.8407,1.9068,1.9458,1.9258,1.9572,1.9798,1.9798,1.9798,1.9798,1.9798,1.9798,1.9798,1.9798,1.9097,1.8463,1.7922,1.8421,1.8447,1.7934,1.8661,1.9281,1.9798,1.9281,1.9293,1.9798,1.9798,1.9798,1.9798,1.9798,1.9798,1.9798,1.9798,1.9798,1.9861,2.0465,2.0691,2.0754,2.1307,2.1493,2.1493,2.1493,2.1845,2.2556,2.4028,2.4914,2.5673,2.7163,2.76,2.76,2.76,2.76,2.76,2.76,2.76,2.76,2.76,2.76,2.76,2.76,2.76,2.76,2.76,2.76,2.76,2.76,2.76,2.76,2.76,2.7408,2.6811,2.5563,2.4766,2.4002,2.3198,2.3108,2.3271,2.3703,2.4374,2.4938,2.5347,2.6084,2.6499,2.6499,2.6499,2.6499,2.6499,2.6499,2.6499,2.6499,2.6499,2.6499,2.6499,2.6499,2.6499,0.7417,0.9099,1.0943,1.2268,1.3991,1.558,1.6324,1.6596,1.6748,1.6949,1.6972,1.6972,1.6972,1.671,0.0,1.693,1.7228,1.751,1.7841,1.834,1.8669,1.8669,1.9146,1.9497,1.9497,1.9673,1.9798,1.9798,1.9798,1.9669,1.9371,1.8661,1.7934,1.7202,1.7594,1.7605,1.7163,1.7907,1.8635,1.9371,1.89,1.9097,1.9798,1.9798,1.9798,1.9798,1.9798,1.9798,1.9798,1.9798,1.9798,1.9861,2.0465,2.0691,2.0779,2.1531,2.1681,2.1493,2.1493,2.1707,2.2226,2.3702,2.4567,2.5365,2.7074,2.76,2.76,2.76,2.76,2.76,2.76,2.76,2.76,2.76,2.76,2.76,2.76,2.76,2.76,2.76,2.76,2.76,2.76,2.76,2.76,2.76,2.7357,2.6837,2.5946,2.4922,2.4118,2.3632,2.3275,2.3333,2.3954,2.4506,2.5046,2.5561,2.6172,2.6499,2.6499,2.6499,2.6499,2.6499,2.6499,2.6499,2.6499,2.6499,2.6499,2.6499,2.6499,2.6499,0.8593,0.9962,1.1499,1.3568,1.4576,1.5299,1.6283,1.6879,1.7097,1.6595,1.65,1.65,1.65,1.65,1.65,1.65,1.6961,1.7322,1.7322,1.779,1.8105,1.8045,1.8557,1.892,1.8921,1.9359,1.9698,1.9798,1.9697,1.9374,1.8741,1.7922,1.7202,1.651,1.6492,1.6492,1.6492,1.7174,1.7868,1.8608,1.8608,1.8992,1.9695,1.9773,1.9798,1.9798,1.9798,1.9798,1.9798,1.9798,1.9798,1.9849,2.0402,2.0641,2.0817,2.1845,2.1882,2.1418,2.1468,2.1455,2.1682,2.3197,2.4066,2.4889,2.6982,2.76,2.76,2.76,2.76,2.76,2.76,2.76,2.76,2.76,2.76,2.76,2.76,2.76,2.76,2.76,2.76,2.76,2.76,2.76,2.76,2.76,2.7034,2.659,2.651,2.5315,2.4452,2.4321,2.3662,2.345,2.4017,2.4531,2.5059,2.5636,2.6197,2.6499,2.6499,2.6499,2.6499,2.6499,2.6499,2.6499,2.6499,2.6499,2.6499,2.6499,2.6499,2.6499,0.8249,0.9807,1.163,1.3616,1.5135,1.6233,1.6437,1.6595,1.6637,1.6522,1.65,1.65,1.65,1.65,1.65,1.65,1.66,1.6688,1.6688,1.72,1.7378,1.6867,1.7733,1.8349,1.8285,1.845,1.8894,1.9736,1.8863,1.8416,1.8691,1.744,1.6652,1.6521,1.6492,1.6492,1.6492,1.6652,1.7118,0.0,1.7852,1.8232,1.8953,1.9527,1.9798,1.9798,1.9798,1.9798,1.9798,1.9798,1.9798,1.9811,1.9936,2.0289,2.0779,2.1446,2.1345,2.093,2.1343,2.1232,2.1188,2.3087,2.4066,2.4889,2.6982,2.76,2.76,2.76,2.76,2.76,2.76,2.76,2.76,2.76,2.76,2.76,2.76,2.76,2.76,2.76,2.76,2.76,2.76,2.76,2.76,2.76,2.7473,2.7152,2.6563,2.6229,2.5563,2.4436,2.4147,2.4193,2.4588,2.4725,2.5234,2.6248,2.6424,2.6499,2.6499,2.6499,2.6499,2.6499,2.6499,2.6499,2.6499,2.6499,2.6499,2.6499,2.6499,2.6499,0.8374,1.016,1.2212,1.4643,1.5881,1.65,1.65,1.65,1.65,1.65,1.65,1.65,1.65,1.65,1.65,1.65,1.65,1.65,1.65,1.6519,1.6412,1.606,1.655,1.6895,1.685,1.7156,1.7579,1.8132,1.7735,1.7438,1.7359,1.6794,1.635,1.5979,1.5979,1.5979,1.5979,1.5979,1.6528,1.7605,1.7605,1.8167,1.9228,1.9605,1.9798,1.9798,1.9798,1.9798,1.9798,1.9798,1.9798,1.9798,1.9798,1.9987,2.0352,2.0918,2.0767,2.0365,2.093,2.0956,2.1069,2.3053,2.4103,2.4975,2.6994,2.76,2.76,2.76,2.76,2.76,2.76,2.76,2.76,2.76,2.76,2.76,2.76,2.76,2.76,2.76,2.76,2.76,2.76,2.76,2.76,2.76,2.76,2.7458,2.7086,2.6721,2.6203,2.5425,2.5035,2.4946,2.5305,2.5345,2.5671,2.6458,2.6499,2.6499,2.6499,2.6499,2.6499,2.6499,2.6499,2.6499,2.6499,2.6499,2.6499,2.6499,2.6499,2.6499,0.834,1.0381,1.2707,1.5416,1.6133,1.6194,1.6194,1.6194,1.6194,1.6194,1.6358,1.6466,1.6358,1.6423,1.6423,1.6216,1.6272,1.6315,1.6194,1.5754,1.541,1.5298,1.5337,1.5372,1.5354,1.5813,1.6194,1.6389,1.6479,1.6359,1.5933,1.6102,1.5955,1.541,1.541,1.541,1.541,1.541,1.6083,1.7413,1.766,1.8501,1.9798,1.9798,1.9798,1.9798,1.9798,1.9798,1.9798,1.9798,1.9798,1.9798,1.9798,1.9798,1.9874,2.0478,2.0327,1.9886,2.049,2.0668,2.0943,2.2881,2.3955,2.4885,2.6815,2.7484,2.76,2.76,2.76,2.76,2.76,2.76,2.76,2.76,2.76,2.76,2.76,2.76,2.76,2.76,2.76,2.76,2.76,2.76,2.76,2.76,2.76,2.76,2.76,2.706,2.6642,2.651,2.596,2.574,2.6077,2.5999,2.6134,2.6671,2.6589,2.6499,2.6499,2.6499,2.6499,2.6499,2.6499,2.6499,2.6499,2.6499,2.6499,2.6499,2.6499,2.6499,0.7249,0.9642,1.2321,1.3987,1.4685,1.4926,1.4926,1.4926,1.4926,1.4926,1.5766,1.6337,1.582,1.6151,1.6163,1.5107,1.5377,1.5543,1.5017,1.488,1.4629,1.4086,1.45,1.478,1.4738,1.4852,1.534,1.6332,1.5357,1.5078,1.5864,1.5343,1.5153,1.54,1.541,1.541,1.541,1.541,1.5806,1.6652,1.7922,1.8992,1.9798,1.9798,1.9798,1.9798,1.9798,1.9798,1.9798,1.9798,1.9798,1.9798,1.9798,1.9798,1.9874,2.0478,2.0327,1.9886,2.049,2.0367,2.0233,2.2128,2.3237,2.4193,2.6081,2.7086,2.76,2.76,2.76,2.76,2.76,2.76,2.76,2.76,2.76,2.76,2.76,2.76,2.76,2.76,2.76,2.76,2.76,2.76,2.76,2.76,2.76,2.76,2.76,2.7509,2.7203,2.6563,2.6404,2.6536,2.7008,2.6337,2.6375,2.7472,2.6871,2.6499,2.6499,2.6499,2.6499,2.6499,2.6499,2.6499,2.6499,2.6499,2.6499,2.6499,2.6499,2.6499,0.8219,0.9922,1.1638,1.3618,1.4237,1.4418,1.4642,1.4698,1.4698,1.4698,1.5107,1.5399,1.5141,1.531,1.531,1.4801,1.4926,1.5005,1.4744,1.4399,1.4097,1.3815,1.3742,1.3683,1.3657,1.3662,1.3896,1.4402,1.4102,1.4179,1.4851,1.4832,1.498,1.54,1.541,1.541,1.541,1.541,1.5968,1.7146,1.8194,1.9097,1.9798,1.9798,1.9798,1.9798,1.9798,1.9798,1.9798,1.9798,1.9798,1.9798,1.9798,1.9798,1.9836,2.0087,2.0024,1.9836,2.0087,2.0271,2.0564,2.1772,2.2837,2.3947,2.5561,2.6497,2.706,2.7484,2.76,2.76,2.76,2.76,2.76,2.76,2.76,2.76,2.76,2.76,2.76,2.76,2.76,2.76,2.76,2.76,2.76,2.76,2.76,2.76,2.76,2.76,2.7473,2.7152,2.7465,2.7717,2.781,2.7825,2.7786,2.7703,2.7384,2.6973,2.6521,2.6499,2.6499,2.6499,2.6499,2.6499,2.6499,2.6499,2.6499,2.6499,2.6499,2.6499,0.8387,0.943,1.0365,1.2431,1.3214,1.3576,1.3977,1.416,1.4247,1.4247,1.4247,1.4247,1.4247,1.4502,1.4606,1.4294,1.4363,1.4422,1.4271,1.386,1.3576,1.3576,1.3176,1.2905,1.2905,1.2905,1.2905,1.2905,1.3174,1.3525,1.3929,1.4385,1.4814,1.5234,1.5352,1.541,1.541,1.5584,1.633,1.7605,1.8167,1.89,1.9798,1.9618,1.9605,1.9798,1.9798,1.9798,1.9798,1.9798,1.9798,1.9798,1.9798,1.9798,1.9798,1.9798,1.9798,1.9798,1.9798,2.0131,2.0677,2.1472,2.247,2.3623,2.5159,2.6031,2.6642,2.7382,2.76,2.76,2.76,2.76,2.76,2.76,2.76,2.76,2.76,2.76,2.76,2.76,2.76,2.76,2.76,2.76,2.76,2.76,2.76,2.76,2.76,2.76,2.766,2.7839,2.8293,2.8667,2.8839,2.9146,2.8949,2.8076,2.7835,2.7351,2.6521,2.6499,2.6499,2.6499,2.6499,2.6499,2.6499,2.6499,2.6499,2.6499,2.6499,2.6499,0.6313,0.7195,0.8165,0.9505,1.0784,1.1841,1.225,1.2673,1.2992,1.2992,1.2992,1.2992,1.2992,1.3931,1.434,1.3176,1.3467,1.3637,1.3065,1.2978,1.2954,1.2954,1.2929,1.2905,1.2905,1.2905,1.2905,1.2905,1.2925,1.3096,1.3516,1.3919,1.4338,1.4833,1.5205,1.541,1.541,1.6093,1.6838,1.7605,1.7633,1.8421,1.9773,1.9071,1.915,1.9798,1.9798,1.9798,1.9798,1.9798,1.9798,1.9798,1.9798,1.9798,1.9798,1.9798,1.9798,1.9798,1.9798,1.9824,2.0039,2.1134,2.2037,2.3004,2.4847,2.5932,2.6642,2.7382,2.76,2.76,2.76,2.76,2.76,2.76,2.76,2.76,2.76,2.76,2.76,2.76,2.76,2.76,2.76,2.76,2.76,2.76,2.76,2.76,2.76,2.76,2.7839,2.8472,2.8577,2.9074,3.0287,2.9725,2.919,2.8961,2.8149,2.7351,2.6521,2.6499,2.6499,2.6499,2.6499,2.6499,2.6499,2.6499,2.6499,2.6499,2.6499,2.6499,0.616,0.6628,0.7242,0.8821,0.9767,1.0488,1.1221,1.1921,1.2461,1.2461,1.2686,1.2905,1.2905,1.3248,1.3406,1.2978,1.3079,1.3152,1.2929,1.2905,1.2905,1.2905,1.2905,1.2905,1.2905,1.2905,1.2905,1.2905,1.2905,1.3091,1.3486,1.3652,1.4053,1.4793,1.4932,1.5137,1.541,1.5661,1.6169,1.6894,1.6894,1.7413,1.8394,1.8608,1.8847,1.9123,1.9579,1.9798,1.9798,1.9798,1.9798,1.9798,1.9798,1.9798,1.9798,1.9798,1.9798,1.9798,1.9798,1.9798,1.9874,2.0275,2.1067,2.2195,2.3822,2.5004,2.6054,2.7265,2.76,2.76,2.76,2.76,2.76,2.76,2.76,2.76,2.76,2.76,2.76,2.76,2.76,2.76,2.76,2.76,2.76,2.76,2.76,2.76,2.76,2.76,2.7869,2.8532,2.8981,2.9579,3.0432,3.064,3.0218,2.9083,2.8716,2.792,2.6555,2.6499,2.6499,2.6499,2.6499,2.6499,2.6499,2.6499,2.6499,2.6499,2.6499,2.6499,0.5798,0.6084,0.6582,0.8158,0.8772,0.9309,1.0595,1.1229,1.1677,1.2116,1.2461,1.2705,1.2876,1.2905,1.2905,1.2905,1.2905,1.2905,1.2905,1.2905,1.2905,1.2905,1.2905,1.2905,1.2905,1.2905,1.2905,1.2905,1.2905,0.0,1.3281,1.3437,1.3906,1.4784,1.4813,1.498,1.541,1.541,1.5777,1.6492,1.6265,1.6641,1.7633,1.8124,1.8474,1.8741,1.9475,1.9798,1.9798,1.9798,1.9798,1.9798,1.9798,1.9798,1.9798,1.9798,1.9798,1.9798,1.9798,1.9798,1.9836,2.0024,2.0727,2.1756,2.3165,2.4435,2.5673,2.6904,2.7408,2.76,2.76,2.76,2.76,2.76,2.76,2.76,2.76,2.76,2.76,2.76,2.76,2.76,2.76,2.76,2.76,2.76,2.76,2.76,2.76,2.76,2.7944,2.8831,2.9325,2.9924,3.0776,3.1241,3.0896,2.9504,2.9442,2.8812,2.7384,2.7074,2.6905,2.6905,2.6658,2.6499,2.6499,2.6499,2.6499,2.6499,2.6499,2.66,0.0,0.0,0.0,0.7326,0.7632,0.8211,1.0322,1.0498,1.0605,1.1859,1.2141,1.232,1.2783,1.2895,1.2905,1.2905,1.2905,1.2905,1.2905,1.2905,1.2905,1.2905,1.2905,1.2905,1.2905,1.2905,1.2905,1.2905,1.2905,1.2905,1.2905,1.3281,1.3887,1.4717,1.4803,1.498,1.5391,1.5371,1.5748,1.6464,1.5748,1.6159,1.7578,1.7578,1.8015,1.8741,1.9475,1.9798,1.9798,1.9798,1.9798,1.9798,1.9798,1.9798,1.9798,1.9798,1.9798,1.9798,1.9798,1.9798,1.9899,2.0478,2.1056,2.1736,2.3003,2.431,2.5536,2.6283,2.7034,2.76,2.76,2.76,2.76,2.76,2.76,2.76,2.76,2.76,2.76,2.76,2.76,2.76,2.76,2.76,2.76,2.76,2.76,2.76,2.76,2.76,2.8109,2.9472,2.9606,3.0118,3.1391,3.1511,3.1161,3.0359,3.0299,2.9919,2.9034,2.8149,2.7703,2.7736,2.6939,2.6521,2.6521,2.6499,2.6499,2.6499,2.6499,2.6801,0.4584,0.0,0.0,0.0,0.0,0.0,0.0,0.0,0.9207,1.0182,1.0891,1.155,1.2254,1.2666,1.2905,1.2905,1.2905,1.2905,1.2905,1.2905,1.2905,1.2905,1.2905,1.2905,1.2905,1.2905,1.2905,0.0,1.2905,1.2905,1.2905,1.3281,1.3613,1.3857,1.4463,1.4844,1.4951,1.5254,1.5497,1.569,1.5497,1.5892,1.6821,1.7357,1.8015,1.8741,1.9475,1.9798,1.9798,1.9798,1.9798,1.9798,1.9798,1.9798,1.9798,1.9798,1.9798,1.9798,1.9798,1.9798,1.9823,1.9987,2.0702,2.1673,2.2546,2.4041,2.5536,2.6283,2.7034,2.76,2.76,2.76,2.76,2.76,2.76,2.76,2.76,2.76,2.76,2.76,2.76,2.76,2.76,2.76,2.76,2.76,2.76,2.76,2.76,2.76,2.8109,2.9472,2.9606,3.0118,3.1391,3.1511,3.1161,3.0359,3.0299,2.9919,2.9034,2.8149,2.7986,2.862,2.7802,2.7384,2.7384,2.6782,2.6499,2.6499,2.6499,2.7002,0.0,0.0,0.0,0.0,0.0,0.0,0.7338,0.7752,0.8251,0.0,1.035,1.0956,1.1791,1.2181,1.2416,1.2578,1.2607,1.2676,1.2876,1.2905,1.2905,1.2905,1.2905,1.2905,1.2905,1.2905,1.2905,1.2905,1.2905,1.2905,1.2905,1.3115,1.333,1.3496,1.416,1.46,1.4813,1.5205,1.541,1.541,1.541,1.5777,1.651,1.695,1.755,1.8259,1.8688,1.9071,1.9333,1.9333,1.9527,1.9798,1.9798,1.9798,1.9798,1.9798,1.9798,1.9798,1.9798,1.9798,1.9798,1.9798,2.0564,2.1564,2.2008,2.3453,2.5035,2.5453,2.6322,2.7214,2.7524,2.76,2.76,2.76,2.76,2.76,2.76,2.76,2.76,2.76,2.76,2.76,2.76,2.76,2.76,2.76,2.76,2.76,2.76,2.7839,2.8438,2.9502,2.9846,3.0387,3.1406,3.1511,3.1307,3.0837,3.0807,3.0584,3.0042,2.9223,2.9034,2.9535,2.8684,2.8051,2.7703,2.7229,2.685,2.6499,2.6499,2.6839,0.0,0.0,0.0,0.0,0.0,0.0,0.772,0.7589,0.7626,0.0,0.9925,1.0224,1.1085,1.1308,1.147,1.1795,1.1991,1.2303,1.2822,1.2905,1.2905,1.2905,1.2905,1.2905,1.2905,1.2905,1.2905,1.2905,1.2905,1.2905,1.2905,1.2905,1.3047,1.3428,1.386,1.4289,1.4707,1.5176,1.541,1.541,1.541,1.5777,1.6492,1.6492,1.6894,1.7605,1.7605,1.8015,1.8688,1.8688,1.9123,1.9798,1.9798,1.9798,1.9798,1.9798,1.9798,1.9798,1.9798,1.9798,1.9798,1.9798,2.0564,2.1493,2.1493,2.2819,2.4321,2.4509,2.5536,2.6774,2.7433,2.76,2.76,2.76,2.76,2.76,2.76,2.76,2.76,2.76,2.76,2.76,2.76,2.76,2.76,2.76,2.76,2.763,2.7705,2.8218,2.8876,2.9609,3.0178,3.0776,3.1451,3.1511,3.1511,3.1511,3.1511,3.1511,3.1511,3.0748,3.0329,3.0419,2.9473,2.862,2.7835,2.767,2.7196,2.6499,2.6499,2.6524,0.0,0.0,0.0,0.0,0.0,0.0,0.6552,0.6753,0.7118,0.0,0.7542,0.8064,0.8867,0.9524,0.9867,0.9721,1.0757,1.1874,1.2764,1.2905,1.2905,1.2905,1.2905,1.2905,1.2905,1.2905,1.2905,1.2905,1.2905,1.2905,1.2905,1.2905,1.2944,1.2998,1.3714,1.4143,1.4231,1.5019,1.541,1.541,1.541,1.5777,1.6492,1.6492,1.6894,1.7605,1.7605,1.8015,1.8688,1.8688,1.9123,1.9798,1.9798,1.9798,1.9798,1.9798,1.9798,1.9798,1.9798,1.9798,1.9798,1.9798,2.0564,2.1493,2.1493,2.2819,2.4538,2.5728,2.6721,2.7408,2.756,2.76,2.76,2.76,2.76,2.76,2.76,2.76,2.76,2.76,2.76,2.76,2.76,2.76,2.76,2.76,2.76,2.7794,2.8323,2.8517,2.9041,3.0193,3.0432,3.0776,3.1451,3.1511,3.1511,3.1511,3.1511,3.1511,3.1511,3.0748,3.0614,3.1248,2.9766,2.8907,2.8748,2.7384,2.6658,2.6499,2.6499,2.6738,0.0,0.0,0.0,0.674,0.0,0.0,0.0,0.7261,0.7251,0.7783,0.7491,0.7432,0.8378,0.8703,0.8889,0.8978,0.9988,1.0925,1.1427,1.2319,1.2905,1.2905,1.2905,1.2905,1.2905,1.2905,1.2905,1.2905,1.2905,1.2905,1.2905,1.2905,1.2905,1.2905,1.3665,1.4104,1.4104,1.4952,1.541,1.541,1.541,1.5777,1.6492,1.6122,1.6368,1.7034,1.6669,1.6912,1.7605,1.7605,1.8248,1.9281,1.9669,1.9798,1.9798,1.9798,1.9798,1.9798,1.9798,1.9798,1.9798,1.9798,2.0564,2.1493,2.1493,2.2534,2.3943,2.5091,2.5673,2.612,2.6864,2.7034,2.7137,2.7524,2.76,2.76,2.76,2.76,2.76,2.76,2.76,2.76,2.76,2.76,2.76,2.76,2.7884,2.8203,2.8562,2.916,2.9789,3.0432,3.0806,3.1122,3.1466,3.1511,3.1511,3.1511,3.1511,3.1511,3.1511,3.1117,3.1087,3.1511,3.0269,2.9659,2.9628,2.792,2.6871,2.6499,2.6499,2.6637,0.0,0.0,0.0,0.0,0.0,0.7823,0.0,0.0,0.0,0.0,0.0,0.0,0.0,0.0,0.0,0.834,0.0,0.0,0.0,1.1261,0.0,1.25,1.2656,1.2778,1.2778,1.27,1.2719,1.2895,1.2749,1.2729,1.2895,1.2905,1.2905,1.2905,1.3613,1.4026,1.4104,1.4902,1.5332,1.541,1.541,1.5719,1.6265,1.5671,1.5719,1.6265,1.5671,1.5806,1.6492,1.6492,1.7357,1.8768,1.9371,1.9669,1.9798,1.9798,1.9798,1.9798,1.9798,1.9798,1.9823,1.9936,2.0727,2.1669,2.1782,2.251,2.3484,2.4118,2.4408,2.4794,2.5987,2.6404,2.6642,2.7255,2.7484,2.76,2.76,2.76,2.76,2.76,2.76,2.76,2.76,2.76,2.7645,2.7779,2.8248,2.8682,2.8936,2.9864,3.0552,3.0687,3.1182,3.1511,3.1511,3.1511,3.1511,3.1511,3.1511,3.1511,3.1511,3.1511,3.1511,3.1511,3.0703,3.0299,3.0299,2.8716,2.755,2.6714,2.6555,2.6499,0.0,0.0,0.0,0.0,0.8996,0.0,0.0,0.0,0.8998,0.7562,0.0,0.0,0.0,0.0,0.0,0.0,0.0,0.0,0.8568,0.9643,1.0584,1.107,1.1804,1.2281,1.2281,1.1966,1.2064,1.2846,1.2171,1.2074,1.2866,1.2905,1.2905,1.2905,1.334,1.3734,1.4104,1.4609,1.5039,1.541,1.541,1.5439,1.5526,1.5439,1.5439,1.5526,1.5439,1.5806,1.6492,1.6492,1.7357,1.8715,1.8794,1.9228,1.9798,1.9798,1.9798,1.9798,1.9798,1.9798,1.9886,2.0427,2.1345,2.2309,2.2769,2.3487,2.4176,2.4263,2.4766,2.5315,2.5481,2.6014,2.651,2.6616,2.7111,2.76,2.76,2.76,2.76,2.76,2.76,2.76,2.76,2.76,2.7809,2.8397,2.8547,2.9011,3.0148,3.0417,3.0731,3.1316,3.1451,3.1511,3.1511,3.1511,3.1511,3.1511,3.1511,3.1511,3.1511,3.1511,3.1511,3.1511,3.0703,3.0299,3.0299,2.9317,2.8395,2.7537,2.685,2.6499,0.0,0.0,0.0,0.0,0.0,0.0,0.8754,0.0,0.8718,0.0,0.0,0.0,0.0,0.0,0.0,0.0,0.7269,0.0,0.0,0.0,0.9734,0.0,0.0,0.0,1.1797,1.1692,1.1848,1.2461,1.1937,1.1858,1.2471,1.2744,1.2905,1.2905,1.3291,1.3685,1.4104,1.457,1.5,1.541,1.541,1.541,1.541,1.541,1.541,1.541,1.541,1.5584,1.5864,1.5864,1.6715,1.8058,1.8058,1.8768,1.9798,1.9798,1.9798,1.9798,1.9798,2.0024,2.0478,2.133,2.1933,2.2393,2.2945,2.3335,2.359,2.359,2.3826,2.415,2.4652,2.5315,2.5987,2.6404,2.706,2.76,2.76,2.76,2.76,2.76,2.76,2.76,2.76,2.76,2.7824,2.8502,2.8921,2.949,3.0387,3.0823,3.1182,3.1466,3.1511,3.1511,3.1511,3.1511,3.1511,3.1511,3.1511,3.1511,3.1511,3.1511,3.1511,3.1511,3.1161,3.0999,3.0999,3.0178,2.9317,2.846,2.8117,2.7417,0.8205,0.0,0.0,0.0,0.0,0.0,0.0,0.0,0.0,0.0,0.0,0.0,0.0,0.0,0.0,0.0,0.0,0.7711,0.0,0.8155,0.0,0.0,0.0,0.0,0.0,1.1261,1.134,1.1992,1.1416,1.1387,1.2164,1.2529,1.2778,1.2905,1.3174,1.3594,1.4104,1.4453,1.4873,1.541,1.541,1.541,1.541,1.541,1.541,1.541,1.541,1.541,1.541,1.541,1.6273,1.7605,1.7605,1.8489,1.9798,1.9798,1.9798,1.9798,1.9798,2.0275,2.1069,2.1995,2.241,2.2581,2.2982,2.3108,2.3108,2.3108,2.3108,2.3215,2.3826,2.4525,2.5287,2.6014,2.6759,2.7357,2.7575,2.76,2.7645,2.7839,2.7884,2.7929,2.8124,2.8004,2.8109,2.8771,2.943,3.0058,3.0702,3.1197,3.1511,3.1511,3.1511,3.1511,3.1511,3.1511,3.1511,3.1511,3.1511,3.1511,3.1511,3.1511,3.1511,3.1511,3.1511,3.1511,3.1511,3.0896,3.0208,2.9348,2.9097,2.8117,0.0,0.0,0.0,0.8231,0.0,0.0,0.0,0.0,0.8853,0.0,0.0,0.0,0.0,0.0,0.0,0.0,0.0,0.0,0.0,0.0,0.0,0.0,0.0,0.0,0.0,1.043,1.0215,0.0,1.041,1.042,1.2116,1.2213,1.2418,1.2895,1.2915,1.3301,1.4104,1.4114,1.4552,1.541,1.541,1.541,1.541,1.541,1.541,1.541,1.541,1.541,1.541,1.541,1.6273,1.7605,1.7605,1.8489,1.9798,1.9798,1.9798,1.9798,1.9798,2.0526,2.1556,2.2133,2.2644,2.3083,2.3095,2.3108,2.3108,2.3108,2.3108,2.3108,2.3138,2.3738,2.4509,2.5259,2.6014,2.6721,2.7433,2.76,2.7794,2.8442,2.8562,2.8771,2.94,2.8981,2.8786,2.9472,3.0073,3.0717,3.1376,3.1496,3.1511,3.1511,3.1511,3.1511,3.1511,3.1511,3.1511,3.1511,3.1511,3.1511,3.1511,3.1511,3.1511,3.1511,3.1511,3.1511,3.1511,3.1467,3.1058,3.0238,2.938,2.8117,0.0,0.0,0.8717,0.8386,0.0,0.0,0.0,0.0,0.0,0.0,0.0,0.0,0.0,0.0,0.0,0.0,0.0,0.0,0.0,0.0,0.0,0.0,0.0,0.0,0.0,0.0,0.0,0.0,1.0566,0.0,1.1738,1.2344,1.2725,1.2895,1.2905,1.3154,1.3685,1.3968,1.4397,1.5,1.5283,1.541,1.541,1.541,1.541,1.541,1.541,1.541,1.541,1.541,1.6273,1.7605,1.7605,1.8489,1.9798,1.9798,1.9798,1.9911,2.0665,2.1405,2.2121,2.2644,2.2957,2.3108,2.3108,2.3108,2.3108,2.3108,2.3108,2.3108,2.3108,2.3708,2.435,2.4595,2.5231,2.5837,2.6081,2.6881,2.7606,2.7839,2.8628,2.9325,2.9577,2.9729,2.9939,3.0163,3.0372,3.0746,3.1406,3.1511,3.1511,3.1511,3.1511,3.1511,3.1511,3.1511,3.1511,3.1511,3.1511,3.1511,3.1511,3.1511,3.1511,3.1511,3.1511,3.1511,3.1511,3.1511,3.1087,3.0299,3.0554,2.9766,0.7643,0.8049,0.0,0.8393,0.823,0.0,0.7584,0.0,0.8089,0.0,0.0,0.0,0.0,0.0,0.0,0.0,0.0,0.0,0.0,0.7651,0.0,0.0,0.0,0.0,0.0,0.9316,0.9629,1.0254,1.0107,0.0,0.0,1.2122,1.2582,1.2895,1.2905,1.3076,1.3506,1.3899,1.4328,1.4785,1.5215,1.541,1.541,1.541,1.541,1.541,1.541,1.541,1.541,1.541,1.6273,1.7605,1.7605,1.8489,1.9823,2.0037,2.0238,2.0539,2.1455,2.202,2.2397,2.2932,2.3108,2.3108,2.3108,2.3108,2.3108,2.3108,2.3108,2.3108,2.3108,2.3484,2.3943,2.4234,2.4652,2.5063,2.5342,2.6495,2.7573,2.779,2.8952,2.9983,3.0238,3.0612,3.0763,3.0537,3.0717,3.1002,3.1451,3.1511,3.1511,3.1511,3.1511,3.1511,3.1511,3.1511,3.1511,3.1511,3.1511,3.1511,3.1511,3.1511,3.1511,3.1511,3.1511,3.1511,3.1511,3.1511,3.1219,3.0748,3.1248,3.0925]},{"header":{"parameterUnit":"m.s-1","parameterCategory":1,"la1":30.6,"la2":29.2853,"lo1":-89.7004,"lo2":-87.6739,"dy":0.0162,"dx":0.0183,"nx":112,"ny":82,"refTime":"2025-08-26T12:00:00:Z","depth":0,"parameterNumber":3,"parameterNumberName":"V-component_of_WINDS"},"data":[0.0,0.0,0.0,0.0,0.0,0.0,0.0,0.0,0.0,0.0,0.0,0.0,0.0,0.0,0.0,0.0,0.0,0.0,0.0,0.0,0.0,0.0,0.0,0.0,0.0,0.0,0.0,0.0,0.0,0.0,0.0,0.0,0.0,0.0,0.0,0.0,0.0,0.0,0.0,0.0,0.0,0.0,0.0,0.0,0.0,0.0,0.0,0.0,0.0,0.0,0.0,0.0,0.0,0.0,0.0,0.0,0.0,0.0,0.0,0.0,0.0,0.0,0.0,0.0,0.0,0.0,0.0,0.0,0.0,0.0,0.0,0.0,0.0,0.0,0.0,0.0,0.0,0.0,0.0,0.0,0.0,0.0,0.0,0.0,0.0,0.0,0.0,0.0,0.0,0.0,1.6159,1.707,1.8687,1.9708,1.9708,1.9708,1.8897,1.6965,0.0,0.0,0.0,0.0,0.0,0.0,0.0,0.0,0.0,0.0,0.0,0.0,0.0,0.0,0.0,0.0,0.0,0.0,0.0,0.0,0.0,0.0,0.0,0.0,0.0,0.0,0.0,0.0,0.0,0.0,0.0,0.0,0.0,0.0,0.0,0.0,0.0,0.0,0.0,0.0,0.0,0.0,0.0,0.0,0.0,0.0,0.0,0.0,0.0,0.0,0.0,0.0,0.0,0.0,0.0,0.0,0.0,0.0,0.0,0.0,0.0,0.0,0.0,0.0,0.0,0.0,0.0,0.0,0.0,0.0,0.0,0.0,0.0,0.0,0.0,0.0,0.0,0.0,0.0,0.0,0.0,0.0,0.0,0.0,0.0,0.0,0.0,0.0,0.0,0.0,0.0,0.0,0.0,0.0,0.0,0.0,0.0,0.0,0.0,0.0,0.0,0.0,0.0,0.0,1.6668,1.8986,1.9528,1.9708,1.9708,1.9708,1.9076,1.7654,0.0,0.0,0.0,0.0,0.0,0.0,0.0,0.0,0.0,0.0,0.0,0.0,0.0,0.0,0.0,0.0,0.0,0.0,0.0,0.0,0.0,0.0,0.0,0.0,0.0,0.0,0.0,0.0,0.0,0.0,0.0,0.0,0.0,0.0,0.0,0.0,0.0,0.0,0.0,0.0,0.0,0.0,0.0,0.0,0.0,0.0,0.0,0.0,0.0,0.0,0.0,0.0,0.0,0.0,0.0,0.0,0.0,0.0,0.0,0.0,0.0,0.0,0.0,0.0,0.0,0.0,0.0,0.0,0.0,0.0,0.0,0.0,0.0,0.0,0.0,0.0,0.0,0.0,0.0,0.0,0.0,0.0,0.0,0.0,0.0,0.0,0.0,0.0,0.0,0.0,0.0,0.0,0.0,0.0,0.0,0.0,0.0,0.0,0.0,0.0,0.0,0.0,0.0,1.5949,1.7161,1.9468,1.9708,1.9708,1.9708,1.9708,1.9121,1.7772,1.6488,0.0,0.0,0.0,0.0,0.0,0.0,0.0,0.0,0.0,0.0,0.0,0.0,0.0,0.0,0.0,0.0,0.0,0.0,0.0,0.0,0.0,0.0,0.0,0.0,0.0,0.0,0.0,0.0,0.0,0.0,0.0,0.0,0.0,0.0,0.0,0.0,0.0,0.0,0.0,0.0,0.0,0.0,0.0,0.0,0.0,0.0,0.0,0.0,0.0,0.0,0.0,0.0,0.0,0.0,0.0,0.0,0.0,0.0,0.0,0.0,0.0,0.0,0.0,0.0,0.0,0.0,0.0,0.0,0.0,0.0,0.0,0.0,0.0,0.0,0.0,0.0,0.0,0.0,0.0,0.0,0.0,0.0,0.0,0.0,0.0,0.0,0.0,0.0,0.0,0.0,0.0,0.0,0.0,0.0,0.0,0.0,0.0,0.0,0.0,0.0,0.0,0.0,1.7339,1.7997,1.9543,1.9708,1.9708,1.9708,1.9558,1.8957,1.7773,1.6368,0.0,0.0,0.0,0.0,0.0,0.0,0.0,0.0,0.0,0.0,0.0,0.0,0.0,0.0,0.0,0.0,0.0,0.0,0.0,0.0,0.0,0.0,0.0,0.0,0.0,0.0,0.0,0.0,0.0,0.0,0.0,0.0,0.0,0.0,0.0,0.0,0.0,0.0,0.0,0.0,0.0,0.0,0.0,0.0,0.0,0.0,0.0,0.0,0.0,0.0,0.0,0.0,0.0,0.0,0.0,0.0,0.0,0.0,0.0,0.0,0.0,0.0,0.0,0.0,0.0,0.0,0.0,0.0,0.0,0.0,0.0,0.0,0.0,0.0,0.0,0.0,0.0,0.0,0.0,0.0,0.0,0.0,0.0,0.0,0.0,0.0,0.0,0.0,0.0,0.0,0.0,0.0,0.0,0.0,0.0,0.0,0.0,0.0,0.0,0.0,0.0,0.0,1.8015,1.9543,1.9693,1.9708,1.9708,1.9708,1.9121,1.8446,1.7758,1.5919,0.0,0.0,0.0,0.0,0.0,0.0,0.0,0.0,0.0,0.0,0.0,0.0,0.0,0.0,0.0,0.0,0.0,0.0,0.0,0.0,0.0,0.0,0.0,0.0,0.0,0.0,0.0,0.0,0.0,0.0,0.0,0.0,0.0,0.0,0.0,0.0,0.0,0.0,0.0,0.0,0.0,0.0,0.0,0.0,0.0,0.0,0.0,0.0,0.0,0.0,0.0,0.0,0.0,0.0,0.0,0.0,0.0,0.0,0.0,0.0,0.0,0.0,0.0,0.0,0.0,0.0,0.0,0.0,0.0,0.0,0.0,0.0,0.0,0.0,0.0,0.0,0.0,0.0,0.0,0.0,0.0,0.0,0.0,0.0,0.0,0.0,0.0,0.0,0.0,0.0,0.0,0.0,0.0,0.0,0.0,0.0,0.0,0.0,0.0,0.0,0.0,0.0,1.7608,1.9186,0.0,2.033,2.0381,2.0089,1.9842,1.8946,1.719,0.0,0.0,0.0,0.0,0.0,0.0,0.0,0.0,0.0,0.0,0.0,0.0,0.0,0.0,0.0,0.0,0.0,0.0,0.0,0.0,0.0,0.0,0.0,0.0,0.0,0.0,0.0,0.0,0.0,0.0,0.0,0.0,0.0,0.0,0.0,0.0,0.0,0.0,0.0,0.0,0.0,0.0,0.0,0.0,0.0,0.0,0.0,0.0,0.0,0.0,0.0,0.0,0.0,0.0,0.0,0.0,0.0,0.0,0.0,0.0,0.0,0.0,0.0,0.0,0.0,0.0,0.0,0.0,0.0,0.0,0.0,0.0,0.0,0.0,0.0,0.0,0.0,0.0,0.0,0.0,0.0,0.0,0.0,0.0,0.0,0.0,0.0,0.0,0.0,0.0,0.0,0.0,0.0,0.0,0.0,0.0,0.0,0.0,0.0,0.0,0.0,0.0,1.5604,1.7562,1.9159,0.0,2.0515,2.0599,2.0158,2.0044,1.9099,1.6955,0.0,0.0,0.0,0.0,0.0,0.0,0.0,0.0,0.0,0.0,0.0,0.0,0.0,0.0,0.0,0.0,0.0,0.0,0.0,0.0,0.0,0.0,0.0,0.0,0.0,0.0,0.0,0.0,0.0,0.0,0.0,0.0,0.0,0.0,0.0,0.0,0.0,0.0,0.0,0.0,0.0,0.0,0.0,0.0,0.0,0.0,0.0,0.0,0.0,0.0,0.0,0.0,0.0,0.0,0.0,0.0,0.0,0.0,0.0,0.0,0.0,0.0,0.0,0.0,0.0,0.0,0.0,0.0,0.0,0.0,0.0,0.0,0.0,0.0,0.0,0.0,0.0,0.0,0.0,0.0,0.0,0.0,0.0,0.0,0.0,0.0,0.0,0.0,0.0,0.0,0.0,0.0,0.0,0.0,0.0,0.0,0.0,0.0,0.0,0.0,0.0,0.0,1.5709,1.8092,1.9711,1.9708,2.0072,2.0158,1.9747,1.9523,1.8749,0.0,0.0,0.0,0.0,0.0,0.0,0.0,0.0,0.0,0.0,0.0,0.0,0.0,0.0,0.0,0.0,0.0,0.0,0.0,0.0,0.0,0.0,0.0,0.0,0.0,0.0,0.0,0.0,0.0,0.0,0.0,0.0,0.0,0.0,0.0,0.0,0.0,0.0,0.0,0.0,0.0,0.0,0.0,0.0,0.0,0.0,0.0,0.0,0.0,0.0,0.0,0.0,0.0,0.0,0.0,0.0,0.0,0.0,0.0,0.0,0.0,0.0,0.0,0.0,0.0,0.0,0.0,0.0,0.0,0.0,0.0,0.0,0.0,0.0,0.0,0.0,0.0,0.0,0.0,0.0,0.0,0.0,0.0,0.0,0.0,0.0,0.0,0.0,0.0,0.0,0.0,0.0,0.0,0.0,0.0,0.0,0.0,0.0,0.0,0.0,0.0,0.0,0.0,1.5709,1.8625,2.0482,2.0158,2.0781,2.1055,2.0649,2.0261,1.9059,1.6746,0.0,0.0,0.0,0.0,0.0,0.0,0.0,0.0,0.0,0.0,0.0,0.0,0.0,0.0,0.0,0.0,0.0,0.0,0.0,0.0,0.0,0.0,0.0,0.0,0.0,0.0,0.0,0.0,0.0,0.0,0.0,0.0,0.0,0.0,0.0,0.0,0.0,0.0,0.0,0.0,0.0,0.0,0.0,0.0,0.0,0.0,0.0,0.0,0.0,0.0,0.0,0.0,0.0,0.0,0.0,0.0,0.0,0.0,0.0,0.0,0.0,0.0,0.0,0.0,0.0,0.0,0.0,0.0,0.0,0.0,0.0,0.0,0.0,0.0,0.0,0.0,0.0,0.0,0.0,0.0,0.0,0.0,0.0,0.0,0.0,0.0,0.0,0.0,0.0,0.0,0.0,0.0,0.0,0.0,0.0,0.0,0.0,0.0,0.0,0.0,0.0,0.0,1.6254,1.8936,2.0682,2.0583,2.1181,2.1368,2.0764,2.0633,1.9468,1.6826,0.0,0.0,0.0,0.0,0.0,0.0,0.0,0.0,0.0,0.0,0.0,0.0,0.0,0.0,0.0,0.0,0.0,0.0,0.0,0.0,0.0,0.0,0.0,0.0,0.0,0.0,0.0,0.0,0.0,0.0,0.0,0.0,0.0,0.0,0.0,0.0,0.0,0.0,0.0,0.0,0.0,0.0,0.0,0.0,0.0,0.0,0.0,0.0,0.0,0.0,0.0,0.0,0.0,0.0,0.0,0.0,0.0,0.0,0.0,0.0,0.0,0.0,0.0,0.0,0.0,0.0,0.0,0.0,0.0,0.0,0.0,0.0,0.0,0.0,0.0,0.0,0.0,0.0,0.0,0.0,0.0,0.0,0.0,0.0,0.0,0.0,0.0,0.0,0.0,0.0,0.0,0.0,0.0,0.0,0.0,0.0,0.0,0.0,0.0,0.0,0.0,0.0,1.7086,1.9139,2.0516,2.0894,2.1337,2.1259,2.0449,2.0731,1.9862,1.7377,0.0,0.0,0.0,0.0,0.0,0.0,0.0,0.0,0.0,0.0,0.0,0.0,0.0,0.0,0.0,0.0,0.0,0.0,0.0,0.0,0.0,0.0,0.0,0.0,0.0,0.0,0.0,0.0,0.0,0.0,0.0,0.0,0.0,0.0,0.0,0.0,0.0,0.0,0.0,0.0,0.0,0.0,0.0,0.0,0.0,0.0,0.0,0.0,0.0,0.0,0.0,0.0,0.0,0.0,0.0,0.0,0.0,0.0,0.0,0.0,1.2351,0.0,0.0,0.0,0.0,0.0,0.0,0.0,0.0,0.0,0.0,0.0,0.0,0.0,0.0,0.0,0.0,0.0,0.0,0.0,0.0,0.0,0.0,0.0,0.0,0.0,0.0,0.0,0.0,0.0,0.0,0.0,0.0,0.0,0.0,0.0,0.0,0.0,0.0,0.0,0.0,0.0,1.7093,1.9389,2.0764,2.0483,2.1149,2.1399,2.0894,2.06,1.9777,1.8222,1.6529,0.0,0.0,0.0,0.0,0.0,0.0,0.0,0.0,0.0,0.0,0.0,0.0,0.0,0.0,0.0,0.0,0.0,0.0,0.0,0.0,0.0,0.0,0.0,0.0,0.0,0.0,0.0,0.0,0.0,0.0,0.0,0.0,0.0,0.0,0.0,0.0,0.0,0.0,0.0,0.0,0.0,0.0,0.0,0.0,0.0,0.0,0.0,0.0,0.0,0.0,0.0,0.0,0.0,0.0,0.0,0.0,0.0,0.0,0.0,0.0,1.3983,0.0,0.0,0.0,0.0,0.0,0.0,0.0,0.0,0.0,0.0,0.0,0.0,0.0,0.0,0.0,0.0,0.0,0.0,0.0,0.0,0.0,0.0,0.0,0.0,0.0,0.0,0.0,0.0,0.0,0.0,0.0,0.0,0.0,0.0,0.0,0.0,0.0,0.0,0.0,0.0,1.7874,1.9962,2.1275,2.126,2.1675,2.1764,2.1338,2.0878,2.0127,1.8952,1.7516,0.0,0.0,0.0,0.0,0.0,0.0,0.0,0.0,0.0,0.0,0.0,0.0,0.0,0.0,0.0,0.0,0.0,0.0,0.0,0.0,0.0,0.0,0.0,0.0,0.0,0.0,0.0,0.0,0.0,0.0,0.0,0.0,0.0,0.0,0.0,0.0,0.0,0.0,0.0,0.0,0.0,0.0,0.0,0.0,0.0,0.0,0.0,0.0,0.0,0.0,0.0,0.0,0.0,1.675,1.734,1.8826,1.8375,1.8735,1.9594,1.7547,1.6965,1.7362,1.5915,0.0,0.0,0.0,0.0,0.0,0.0,0.0,0.0,0.0,0.0,0.0,0.0,0.0,0.0,0.0,0.0,0.0,0.0,0.0,0.0,0.0,0.0,0.0,0.0,1.849,1.8777,0.0,0.0,0.0,0.0,0.0,0.0,0.0,0.0,0.0,0.0,0.0,0.0,1.8856,2.0584,2.1749,2.2135,2.2237,2.2106,2.1643,2.1291,2.0655,1.962,1.8568,1.7495,0.0,0.0,0.0,0.0,0.0,0.0,0.0,0.0,0.0,0.0,0.0,0.0,0.0,0.0,0.0,0.0,0.0,0.0,0.0,0.0,0.0,0.0,0.0,0.0,0.0,0.0,0.0,0.0,0.0,0.0,0.0,0.0,1.0155,1.0506,0.0,0.0,0.0,0.0,0.0,0.0,0.0,0.0,0.0,0.0,0.0,0.0,0.0,1.6208,1.6756,1.7988,1.8888,1.9473,1.9514,1.9893,2.0563,2.0497,2.0793,2.1372,2.105,0.0,1.8146,1.7915,0.0,0.0,0.0,0.0,0.0,0.0,0.0,0.0,0.0,0.0,0.0,0.0,0.0,0.0,0.0,0.0,0.0,0.0,0.0,0.0,0.0,0.0,2.0244,2.0225,2.0789,2.1231,0.0,1.864,1.6383,1.5664,1.499,0.0,0.0,0.0,0.0,0.0,0.0,0.0,1.9556,2.0849,2.1612,2.1688,2.2046,2.2106,2.1643,2.1552,2.1149,2.0241,1.9553,1.8925,1.8345,1.71,0.0,0.0,0.0,0.0,0.0,0.0,0.0,0.0,0.0,0.0,0.0,0.0,0.0,0.0,0.0,0.0,0.0,0.0,0.0,0.0,0.0,0.0,0.0,0.0,0.0,0.0,0.0,0.0,0.0,1.0578,1.1602,1.2048,1.2158,1.1883,0.0,0.0,0.0,0.0,0.0,0.0,0.0,0.0,0.0,1.6433,1.7823,1.8806,1.9314,2.02,2.0933,2.1462,2.1535,2.1862,2.2427,2.2427,2.2553,2.2772,2.2772,2.2014,2.07,1.9968,1.9168,1.8404,0.0,0.0,0.0,0.0,1.7515,1.777,1.7782,1.8021,0.0,1.7097,0.0,0.0,0.0,0.0,0.0,0.0,0.0,0.0,0.0,0.0,2.1659,2.1659,2.1889,2.2179,2.2484,2.0956,1.9208,0.0,1.7461,1.6548,1.517,0.0,0.0,0.0,0.0,1.8941,2.0734,2.1567,2.2153,2.2569,2.2416,2.2209,2.2017,2.1749,2.1445,2.1054,2.0559,2.0094,1.9626,1.8708,1.7638,0.0,0.0,0.0,0.0,0.0,0.0,0.0,0.0,0.0,0.0,0.0,0.0,0.0,0.0,0.0,0.0,0.0,0.0,0.0,0.0,0.0,0.0,0.0,0.0,0.0,0.0,0.0,0.0,1.2001,1.3199,1.3912,1.4387,1.4172,0.0,0.0,0.0,0.0,0.0,0.0,1.6827,1.727,1.8043,1.9203,2.0375,2.1187,2.1593,2.2316,2.2936,2.3452,2.3452,2.367,2.4103,2.4103,2.4191,2.4351,2.4351,2.4094,2.3534,2.1894,2.1111,2.0878,2.0072,1.9767,1.9787,1.9884,2.0171,2.0503,2.0504,2.0926,2.1198,1.9407,1.9111,1.9131,1.7246,0.0,0.0,0.0,0.0,2.0085,2.1091,2.209,2.2851,2.2851,2.2992,2.323,2.3615,2.313,2.2147,0.0,1.9903,1.8916,1.7242,0.0,0.0,0.0,0.0,2.0352,2.21,2.2631,2.3071,2.3613,2.319,2.2801,2.2598,2.2256,2.1932,2.1613,2.1213,2.0797,2.0314,1.9765,1.8997,1.7968,0.0,0.0,0.0,0.0,0.0,0.0,0.0,0.0,0.0,0.0,0.0,0.0,0.0,0.0,0.0,0.0,0.0,0.0,0.0,0.0,0.0,0.0,0.0,0.0,0.0,0.0,0.0,0.0,0.0,1.5996,1.6278,0.0,0.0,0.0,0.0,1.6294,1.6438,1.7469,1.9754,1.9904,2.0416,2.1501,2.276,2.3454,2.3447,2.4754,2.5435,2.545,2.545,2.548,2.551,2.551,2.5811,2.6348,2.6348,2.6333,2.6118,2.3616,2.2224,2.1635,2.1585,2.157,2.1565,2.1575,2.1595,2.163,2.162,2.1324,2.1096,2.2108,2.2033,2.141,2.0673,2.0807,0.0,0.0,2.212,2.2995,2.3058,2.3586,2.4115,2.4115,2.4609,2.507,2.509,2.5051,2.4484,0.0,2.1885,2.1235,2.0241,0.0,2.0248,2.0767,2.133,2.2181,2.3604,2.4139,2.4406,2.444,2.4406,2.4101,2.3393,2.3327,2.2813,2.1661,2.1213,2.0797,2.0314,1.9899,1.9366,1.8672,1.7294,0.0,0.0,0.0,0.0,0.0,0.0,0.0,0.0,0.0,0.0,0.0,0.0,0.0,0.0,0.0,0.0,0.0,0.0,0.0,0.0,0.0,0.0,0.0,0.0,0.0,0.0,0.0,0.0,1.737,1.7877,0.0,1.7852,1.8068,1.8393,1.8821,1.9501,2.0445,2.1723,2.1767,2.2334,2.3528,2.4007,2.444,2.4881,2.5375,2.5615,2.5615,2.5615,2.5615,2.5615,2.5615,2.5716,2.594,2.6339,2.6501,2.6461,2.5942,2.512,2.4208,2.4208,2.4208,2.4208,2.4208,2.4208,2.4148,2.3708,2.3435,2.3273,2.3173,2.2696,2.2175,2.228,2.2453,2.2674,2.3117,2.3531,2.3927,2.4374,2.492,2.535,2.535,2.5546,2.5799,2.6087,2.5654,2.5099,2.4784,2.3949,2.2928,2.1734,2.1878,2.2192,2.2261,2.278,2.3601,2.4844,2.4701,2.4677,2.5152,2.4778,2.4389,2.4135,2.3663,2.3095,2.2351,2.1738,2.1055,2.0331,2.0158,1.9858,1.9348,1.8446,1.7041,0.0,0.0,0.0,0.0,0.0,0.0,0.0,0.0,0.0,0.0,0.0,0.0,0.0,0.0,0.0,0.0,0.0,0.0,0.0,0.0,0.0,0.0,0.0,0.0,0.0,0.0,1.7993,1.8576,1.9423,1.9878,1.9658,2.025,2.0725,2.0965,2.1649,2.2433,2.3281,2.3325,2.3834,2.4903,2.5158,2.5495,2.5929,2.6153,2.6273,2.6273,2.6273,2.6273,2.6273,2.6273,2.6378,2.66,2.7223,2.7476,2.752,2.8131,2.7804,2.6842,2.6389,2.6205,2.6205,2.6205,2.6205,2.6143,2.5698,2.5369,2.509,2.4541,2.3912,2.3421,2.3772,2.3989,2.4244,2.4679,2.4917,2.5157,2.5579,2.5962,2.6244,2.6244,2.6244,2.6314,2.6641,2.6176,2.5801,2.6157,2.5315,2.4221,2.3254,2.3448,2.3765,2.3813,2.4179,2.4845,2.5847,2.5541,2.5439,2.593,2.554,2.5134,2.4897,2.4203,2.3463,2.2762,2.1884,2.107,2.0331,2.0176,1.9965,1.9708,1.8822,1.752,1.5784,0.0,0.0,0.0,0.0,0.0,0.0,0.0,0.0,0.0,0.0,0.0,0.0,0.0,0.0,0.0,0.0,0.0,0.0,0.0,0.0,0.0,0.0,0.0,1.6694,1.7906,1.9016,1.9708,2.0951,2.1485,2.0838,2.138,2.2044,2.2703,2.2763,2.3295,2.4575,2.4634,2.4933,2.5615,2.6258,2.6602,2.6641,2.7285,2.76,2.76,2.76,2.76,2.76,2.76,2.7919,2.8511,2.9111,2.9384,2.9451,3.0059,2.9973,2.9329,2.7976,2.7451,2.7451,2.7451,2.7451,2.7419,2.7419,2.6948,2.633,2.635,2.5865,2.5304,2.5272,2.5647,2.6048,2.6031,2.6349,2.6691,2.6691,2.6691,2.6691,2.6691,2.6691,2.6691,2.6691,2.6691,2.6691,2.6691,2.591,2.5166,2.4902,2.4856,2.5044,2.5561,2.5626,0.0,2.6607,2.6691,2.6691,2.6691,2.6691,2.6404,2.571,2.4948,2.3984,2.278,2.1649,2.078,2.0297,1.9909,1.9708,1.9708,1.8386,1.7116,1.5858,0.0,0.0,0.0,0.0,0.0,0.0,0.0,0.0,0.0,0.0,0.0,0.0,0.0,0.0,0.0,0.0,0.0,0.0,0.0,0.0,0.0,1.5325,1.6974,1.7695,1.9141,2.0587,2.1744,2.2209,2.2523,2.2787,2.2966,2.3355,2.4022,2.4066,2.444,2.5277,2.5322,2.5621,2.6303,2.6497,2.6811,2.733,2.751,2.76,2.76,2.76,2.76,2.76,2.76,2.7685,2.787,2.8487,2.9012,2.9451,3.0059,3.0456,3.0567,2.9345,2.8858,2.8858,2.8858,2.8543,2.8137,2.8137,2.7671,2.7154,2.7552,2.7538,2.7334,2.714,2.7187,2.7193,2.6673,2.6607,2.6691,2.6691,2.6691,2.6691,2.6691,2.6691,2.6691,2.6691,2.6691,2.6691,2.6691,2.6487,2.6266,2.6202,2.6185,2.6219,2.6387,2.6404,0.0,2.6674,2.6691,2.6691,2.6691,2.6691,2.6623,2.6404,2.5235,2.4092,2.3125,2.1761,2.0649,1.9892,1.9764,1.9708,1.9708,1.8867,1.7997,0.0,0.0,0.0,0.0,0.0,0.0,0.0,0.0,0.0,0.0,0.0,0.0,0.0,0.0,0.0,0.0,0.0,0.0,0.0,0.0,0.0,0.0,1.6504,1.7915,1.9135,2.0344,2.1517,2.2557,2.2927,2.3206,2.3565,2.3864,2.4171,2.4575,2.4859,2.5307,2.5989,2.6019,2.6318,2.7001,2.7031,2.721,2.76,2.76,2.76,2.76,2.76,2.76,2.76,2.76,2.76,2.7625,2.8238,2.8685,2.9081,2.9673,3.0123,0.0,0.0,0.0,0.0,0.0,2.9908,2.9572,2.9572,2.9112,2.858,2.8888,2.8784,2.8507,2.8361,2.8298,2.8213,2.7774,2.7418,2.7165,2.7165,2.6928,2.6691,2.6691,2.6691,2.6691,2.6691,2.6691,2.6691,2.6691,2.6691,0.0,2.6691,2.6691,2.6691,2.6691,2.6691,2.6691,2.6691,2.6691,2.6691,2.6691,2.6691,2.6691,2.6691,2.5429,0.0,0.0,0.0,2.0693,1.9744,1.9708,0.0,0.0,0.0,0.0,0.0,0.0,0.0,0.0,1.7103,1.7065,0.0,0.0,0.0,0.0,0.0,0.0,0.0,0.0,0.0,0.0,0.0,0.0,0.0,0.0,0.0,0.0,1.7518,1.8853,2.0475,2.1226,2.1837,2.2505,2.3122,2.3508,2.3508,2.4179,2.4634,2.4709,2.5322,2.6004,2.6686,0.0,0.0,0.0,0.0,2.76,2.76,2.76,2.76,2.76,2.76,2.76,2.76,2.76,2.76,2.7625,2.8165,2.8439,2.8535,2.9081,2.9339,2.9518,3.0658,3.1151,3.119,3.119,3.119,3.119,3.119,0.0,0.0,3.0207,2.9786,2.923,2.9145,2.9128,2.9111,2.9027,2.8484,2.7908,2.7824,2.73,2.6793,2.6708,2.6691,2.6691,2.6691,2.6691,2.6691,2.6691,2.6691,2.6691,2.6691,2.6691,2.6691,2.6691,2.6691,2.6691,2.6691,2.6691,2.6691,2.6691,0.0,0.0,2.6691,2.5528,2.4371,2.3388,2.207,2.091,1.9966,1.9932,2.0198,2.0793,2.0808,2.1111,2.1695,2.1695,2.1739,2.1739,1.9283,1.9104,0.0,0.0,0.0,0.0,0.0,0.0,0.0,0.0,0.0,0.0,0.0,0.0,0.0,0.0,0.0,1.6393,1.7824,1.9144,2.0016,2.0622,2.1192,2.1825,2.2457,2.2875,2.2875,2.3918,2.4829,2.5375,2.6033,2.6692,2.7375,2.7405,2.7465,2.76,2.76,2.76,2.76,2.76,2.76,2.76,0.0,0.0,2.76,2.76,2.76,2.7625,2.771,2.8042,2.8511,2.863,2.895,2.9473,3.0187,3.076,3.119,3.119,3.119,3.119,3.119,3.1106,3.0987,3.0987,3.0886,3.0649,3.0074,2.9888,0.0,2.9179,2.8891,2.8619,2.7959,2.7689,2.7435,2.6843,2.6691,2.6691,2.6691,2.6691,2.6691,2.6691,2.6691,2.6691,2.6691,2.6691,2.6691,2.6691,2.6691,2.6691,2.6691,2.6691,2.6691,2.6691,2.6691,2.6691,2.6691,2.5528,2.4566,2.4044,2.252,2.1523,2.1306,2.1306,2.1365,2.15,2.1515,2.1575,2.1695,2.1695,2.1984,2.2478,2.141,2.1141,0.0,0.0,0.0,0.0,0.0,0.0,0.0,0.0,0.0,0.0,0.0,1.4312,1.5148,0.0,1.7137,1.7654,1.8456,1.9207,1.982,2.0128,2.0658,2.1592,2.1993,2.2323,2.2672,2.3585,2.4545,2.5531,2.6213,2.6896,2.7555,2.76,2.76,2.76,2.76,2.76,2.76,2.76,2.76,2.76,2.76,2.76,2.76,2.76,2.76,2.76,2.76,2.776,2.8042,2.8042,2.8415,2.8989,2.9271,2.9935,3.074,3.074,3.0938,3.119,3.119,3.119,3.119,3.119,3.119,3.1123,3.0768,3.0649,3.0565,3.0192,2.9837,2.9364,2.8602,2.8094,2.7604,2.6877,2.6691,2.6691,2.6691,2.6691,2.6691,2.6691,2.6691,2.6691,2.6691,2.6691,2.6691,2.6691,2.6691,2.6691,2.6691,2.6691,2.6691,2.6691,2.6691,2.6691,2.6691,2.5339,2.4309,2.3828,2.2485,2.1695,2.1695,2.1695,2.1859,2.2173,2.2209,2.2503,2.314,2.314,2.3505,2.4133,2.3804,2.3475,0.0,0.0,0.0,0.0,0.0,0.0,0.0,1.3232,1.3917,1.4739,1.5588,1.6321,1.6738,1.7677,1.8505,1.8933,1.9096,1.9296,1.9748,1.9798,2.0181,2.1207,2.1448,2.1748,2.2267,2.3046,2.3975,2.5138,2.582,2.6469,2.7133,2.7163,2.7163,2.7163,2.7306,2.7331,2.7163,2.7316,2.7382,2.7382,2.724,2.7316,2.76,2.7458,2.7458,2.76,2.76,2.76,2.76,2.76,2.7885,2.8334,2.8334,2.8996,2.9978,3.0208,3.0617,3.1035,3.1151,3.119,3.119,3.119,3.119,3.119,3.119,3.119,3.119,3.119,3.0768,3.0108,2.923,2.8518,2.7807,2.6911,2.6691,2.6691,2.6691,2.6691,2.6691,2.6691,2.6691,2.6691,2.6691,2.6691,2.6691,2.6691,2.6691,2.6691,2.6691,2.6691,2.6691,2.6691,2.6691,2.6657,2.6573,2.524,2.4166,2.3627,2.2631,2.2069,2.2069,2.2188,2.2517,2.3062,2.3197,2.3774,2.4799,2.4799,2.5068,2.5615,2.5734,2.545,1.2007,1.2359,1.2923,1.3924,1.3655,1.379,0.0,1.6045,1.5856,1.7426,1.784,1.794,1.8003,1.8494,1.8933,1.8995,1.9384,1.9736,1.9798,1.9798,1.985,1.9991,2.0534,2.0944,2.1017,2.2095,2.3086,2.3777,2.4389,2.4989,2.5604,2.5646,2.5646,2.5646,2.6283,2.631,2.5646,2.631,2.6616,2.6616,2.5946,2.6322,2.7575,2.693,2.6982,2.76,2.76,2.76,2.76,2.76,2.765,2.7685,2.7685,2.8116,2.8826,2.9892,3.0335,3.0477,3.1015,3.119,3.119,3.119,3.119,3.119,3.119,3.119,3.119,3.119,3.114,3.0751,2.9365,2.8942,2.8502,2.7046,2.6691,2.6691,2.6691,2.6691,2.6691,2.6691,2.6691,2.6691,2.6691,2.6691,2.6691,2.6691,2.6691,2.6691,2.6691,2.6691,2.6691,2.6691,2.6691,2.6539,2.6104,2.5478,2.4862,2.4306,2.3718,2.3385,2.3385,2.3962,2.4306,2.4395,2.4963,2.536,2.5495,2.5495,2.554,2.5615,2.6213,2.6123,1.4823,1.4466,1.4128,1.5728,1.5883,1.5957,1.7134,1.7262,1.735,1.8066,1.8455,1.8657,1.8657,1.9096,1.9472,1.9472,1.966,1.9798,1.9798,1.9798,1.9685,1.9359,1.9864,2.0371,2.0771,2.128,2.2142,2.3494,2.3823,2.4402,2.5356,2.5398,2.5398,2.5398,2.5701,2.5701,2.5398,2.5701,2.5864,2.5864,2.5536,2.5728,2.6322,2.6,2.6256,2.6956,2.6956,2.7188,2.7575,2.7152,2.7214,2.76,2.76,2.776,2.8091,2.8927,2.9695,3.0293,3.0187,3.0617,3.1151,3.0797,3.0918,3.119,3.119,3.0938,3.0679,3.0679,3.0141,2.9321,2.8283,2.7954,2.7614,2.6547,2.6487,2.6691,2.6691,2.6691,2.6691,2.6691,2.6691,2.6691,2.6691,2.6691,2.6691,2.6691,2.6691,2.6691,2.6691,2.6691,2.6691,2.6691,2.6691,2.6624,2.6419,2.5961,2.5589,2.5471,2.4946,2.4674,2.4747,2.5023,2.5173,2.5173,2.5457,2.5794,2.6183,2.6183,2.6378,2.6752,2.7061,2.7046,1.577,1.5559,1.5376,1.6744,1.7357,1.7674,1.7802,1.8141,1.8468,1.8618,1.882,1.9008,1.9008,1.9183,1.9409,1.956,1.9585,1.9635,1.9786,1.9673,1.9421,1.8982,1.932,1.9762,2.0194,2.0396,2.1167,2.2706,2.2935,2.346,2.4471,2.4687,2.4781,2.4781,2.4979,2.4979,2.4781,2.4979,2.5091,2.5091,2.4866,2.5007,2.5398,2.5618,2.5987,2.651,2.6721,2.6982,2.728,2.693,2.6982,2.7331,2.7524,2.76,2.7635,2.8091,2.8904,2.9761,2.9496,2.9957,3.0638,3.0187,3.0351,3.074,3.0898,3.0518,3.0102,3.0251,2.9518,2.8506,2.7758,2.7357,2.6992,2.6385,2.6377,2.6556,2.6674,2.6691,2.6691,2.6691,2.6691,2.6691,2.6691,2.6691,2.6691,2.6691,2.686,2.6928,2.6725,2.6877,2.7097,2.73,2.7317,2.7317,2.7317,2.6879,2.6653,2.6747,2.6255,2.5917,2.5856,2.603,2.6057,2.5884,2.6063,2.6378,2.6881,2.6881,2.7136,2.76,2.76,2.76,1.3602,1.4839,1.6459,1.6497,1.735,1.8317,1.8832,1.897,1.9121,1.9648,1.9334,1.9008,1.9008,1.8581,1.843,1.8945,1.902,1.9208,1.9736,1.9346,1.8945,1.8723,1.8903,1.8957,0.0,1.9423,2.0101,2.0747,2.1262,2.1816,2.2355,2.2896,2.3155,2.3155,2.3943,2.3972,2.3198,2.3943,2.4321,2.4321,2.3531,2.3946,2.5425,2.6149,2.6484,2.6537,2.7255,2.7178,2.659,2.728,2.7178,2.659,2.7331,2.76,2.76,2.7625,2.8018,2.8654,2.9203,2.9429,2.9451,2.9429,2.9451,2.9563,3.0145,2.9908,2.9563,3.0145,2.9854,2.9192,2.8451,2.779,2.723,2.6953,2.6434,2.6156,2.6607,2.6691,2.6691,2.6691,2.6691,2.6691,2.6691,2.6691,2.6691,2.6691,2.73,2.7503,2.6793,2.7317,2.806,2.8857,2.8925,2.8925,2.8925,2.8431,2.8127,2.8124,2.7636,2.7079,2.6501,2.7093,2.7164,2.6581,2.721,2.754,2.757,2.757,2.757,2.76,2.76,2.76,1.568,1.6245,1.6763,1.7879,1.8444,1.8734,1.8785,1.879,1.8638,1.8069,1.7789,1.7578,1.7326,1.7459,1.7521,1.7306,1.8252,1.8921,1.8691,1.9156,1.937,1.8968,1.9282,0.0,0.0,0.0,0.0,2.0641,2.1207,2.1732,2.2284,2.2807,2.3108,2.3108,2.3365,2.3365,2.3108,2.3365,2.3514,2.3514,2.3215,2.3365,2.393,2.5189,2.5755,2.5783,2.6027,2.6534,2.7163,2.6428,2.6283,2.6563,2.7306,2.7306,2.693,2.7408,2.7735,2.7919,2.8125,2.8717,2.9339,2.8927,2.9065,2.9429,2.9651,2.9271,2.885,2.9058,2.8342,2.737,2.6696,2.6273,2.5916,2.5377,2.5627,2.6033,2.6209,2.647,2.6691,2.6691,2.7097,2.7418,2.7418,2.7875,2.8231,2.8231,2.7994,2.7891,2.8197,2.8433,2.8687,2.8976,2.8993,2.8993,2.8993,2.8829,2.8772,2.885,2.8706,2.853,2.8427,2.8248,2.8076,2.7876,2.7705,2.76,2.76,2.76,2.76,2.76,2.76,2.7839,1.6685,1.7099,1.7357,1.8363,1.8732,1.8751,1.8195,1.8257,1.8156,1.7291,1.6947,1.6717,1.6444,1.6574,1.6622,1.6425,1.7703,1.8647,1.8435,1.9044,1.937,1.8955,1.9244,1.9358,0.0,0.0,0.0,2.0352,2.1094,2.1644,2.1995,2.2694,2.3108,2.3108,2.3108,2.3108,2.3108,2.3108,2.3108,2.3108,2.3108,2.3108,2.3125,2.441,2.5147,2.5398,2.5398,2.5946,2.6733,2.5783,2.5673,2.6149,2.6628,2.6837,2.693,2.7111,2.7382,2.76,2.76,2.81,2.8693,2.8295,2.8424,2.8787,2.8996,2.8662,2.8238,2.8439,2.7762,2.6866,2.6422,2.5909,2.5402,2.5178,2.5413,2.5779,2.5959,2.6367,2.6776,2.7046,2.7469,2.7891,2.8197,2.8653,2.9094,2.9365,2.8958,2.8804,2.933,2.9381,2.9482,2.9771,2.9788,2.9788,2.9788,2.9788,2.9823,2.9909,2.9922,2.9857,2.9723,2.9134,2.8709,2.8511,2.791,2.76,2.76,2.76,2.772,2.7959,2.7959,2.8334,1.6563,1.7355,1.8139,1.8036,1.8334,1.839,1.7281,1.743,1.7701,1.7265,1.6705,1.629,1.623,1.5861,1.5706,1.6183,1.7369,1.8368,1.8833,1.8983,1.8957,1.8773,1.8915,1.8969,1.8773,1.9397,0.0,1.9849,0.0,2.1493,2.1531,2.2518,2.3108,2.3108,2.3108,2.3108,2.3108,2.3108,2.3108,2.3108,2.3125,2.3125,2.3138,2.3972,2.4709,2.5342,2.5342,2.5398,2.5453,2.537,2.5398,2.5453,2.5398,2.6269,2.7458,2.6747,2.6956,2.76,2.76,2.76,2.76,2.76,2.76,2.771,2.8271,2.8042,2.771,2.8286,2.8042,2.7585,2.751,2.6542,2.5725,2.6143,2.5691,2.5316,2.5852,2.6365,2.6928,2.7672,2.7874,2.8162,2.8976,2.9111,2.9365,3.0057,3.0176,3.0176,3.0176,3.0176,3.0429,3.1123,3.119,3.119,3.119,3.119,3.119,3.119,3.119,3.0938,3.0372,2.9761,2.9157,2.8559,2.7944,2.7665,2.7645,2.7645,2.8004,2.8652,2.8652,2.9011,1.7378,1.7872,1.8186,1.9078,1.8786,1.8146,1.7761,1.7139,1.6359,1.5413,1.5095,1.4756,1.4011,1.4477,1.4904,1.4583,1.6603,1.8099,1.7776,1.8808,1.9571,1.9541,1.9545,1.9571,1.9515,1.9695,0.0,0.0,2.1119,2.1669,2.2083,2.2732,2.3108,2.3108,2.3108,2.3108,2.3108,2.3108,2.3108,2.3108,2.3708,2.3679,2.3138,2.4496,2.4922,2.4567,2.4567,2.5203,2.6122,2.5035,2.5231,2.6149,2.5618,2.5973,2.6747,2.6563,2.6956,2.76,2.76,2.76,2.76,2.76,2.76,2.7625,2.7785,2.771,2.7625,2.7785,2.771,2.7375,2.6363,2.5869,2.5368,2.452,2.4466,2.4752,2.5297,2.6243,2.7163,2.7686,2.872,2.9734,3.0497,3.0632,3.07,3.0886,3.092,3.092,3.092,3.092,3.0987,3.1173,3.119,3.119,3.119,3.119,3.119,3.119,3.119,3.1131,3.0975,3.0393,2.9783,2.918,2.8567,2.8301,2.8338,2.8338,2.8682,2.9367,2.9367,2.9669,1.725,1.769,1.7815,1.8031,1.7807,1.7254,1.6226,1.5924,1.5473,1.4165,1.3913,1.3681,1.2848,1.3673,1.4365,1.4008,1.6151,1.7798,1.7701,1.8722,1.9547,1.9773,1.9798,1.9798,1.9798,1.9798,2.0137,0.0,2.1345,2.1732,2.2284,2.2807,2.3108,2.3108,2.3108,2.3108,2.3108,2.3454,2.3454,2.3108,2.3914,2.406,2.3649,2.4866,2.5175,2.4766,0.0,2.4766,2.5481,2.4652,2.4794,2.5481,2.5063,2.5563,2.6457,2.6149,2.6496,2.7126,2.7126,2.7126,2.7178,2.7484,2.76,2.76,2.76,2.76,2.76,2.76,2.739,2.7001,2.6228,2.5615,2.4963,2.4216,2.4393,2.4835,2.5144,2.6354,2.7688,2.8614,2.9768,3.0717,3.1123,3.119,3.119,3.119,3.119,3.119,3.119,3.119,3.119,3.119,3.119,3.119,3.119,3.119,3.119,3.119,3.119,3.119,3.119,3.0617,3.0016,2.9406,2.91,2.8832,2.8607,2.8891,2.937,2.9983,2.9983,3.0328,1.6513,1.6955,1.7059,1.6186,1.6302,1.6151,1.4289,1.4563,1.4799,1.3394,1.3093,1.2926,1.2401,1.3225,1.4,1.4105,1.589,1.7463,1.8016,1.8607,1.9171,1.9648,1.9761,1.9798,1.9798,1.9798,2.0238,2.1292,2.1443,2.1757,2.2355,2.2844,2.3108,2.3108,2.3108,2.3155,2.3245,2.3943,2.4002,2.3412,2.4105,2.4452,2.4452,2.5119,2.5398,2.537,2.4709,2.4452,2.4452,2.4452,2.4509,2.4567,2.4379,2.5203,2.6404,2.5673,2.5783,2.6363,2.6484,2.6457,2.6469,2.7214,2.7524,2.76,2.76,2.76,2.7585,2.748,2.7061,2.6557,2.6378,2.5457,2.459,2.4485,2.4776,2.5125,2.5182,2.6642,2.8415,2.9956,3.0768,3.119,3.119,3.119,3.119,3.119,3.119,3.119,3.119,3.119,3.119,3.119,3.119,3.119,3.119,3.119,3.119,3.119,3.119,3.119,3.119,3.0699,3.0177,2.9685,2.9643,2.9402,2.9004,2.9484,3.0028,3.0642,3.0642,3.0928,1.5539,1.5654,1.5719,1.6206,1.6022,1.5636,1.5325,1.4732,1.4038,1.3324,1.2842,1.2517,1.2399,1.2921,1.3668,1.4585,1.5819,1.6873,1.7473,1.8368,1.9033,1.9121,1.9547,1.9798,1.9798,1.9798,0.0,0.0,2.1257,2.1933,2.2907,2.3058,2.3108,2.3108,2.3108,2.3424,2.4089,2.4234,2.4538,2.5007,2.5147,2.5203,2.5203,2.5342,2.5398,2.5398,2.5259,0.0,2.5203,2.5203,2.5563,2.6014,2.4794,2.5203,2.6404,2.5673,2.5481,2.5673,2.6283,2.6095,2.5701,2.6443,2.7086,2.76,2.76,2.76,2.748,2.6941,2.6701,2.6333,2.5232,2.4769,2.4455,2.3909,2.4166,2.4657,2.5089,2.7092,2.923,3.0717,3.1106,3.119,3.119,3.119,3.119,3.119,3.119,3.119,3.119,3.119,3.119,3.119,3.119,3.119,3.119,3.119,3.119,3.119,3.119,3.119,3.119,3.1112,3.1044,3.1041,3.0521,3.0508,3.1081,3.0585,3.0687,3.1331,3.1331,3.1391,1.5042,1.5226,1.5112,1.4921,1.5408,1.5626,1.4499,1.4156,1.3723,1.2589,1.1934,1.147,1.1167,1.2045,1.2929,1.3196,1.4604,1.5874,1.649,1.7501,1.8356,1.8933,1.9459,1.9798,1.9798,1.9798,2.0037,2.0641,2.1207,2.1845,2.2631,2.3361,2.3901,2.4266,2.4295,2.4467,2.4879,2.4879,2.5035,2.5398,2.5783,2.5987,2.5987,2.6375,2.6322,2.5987,2.5987,0.0,2.4879,2.5231,2.537,2.5315,2.5007,2.5287,2.5864,2.5536,2.5398,2.5453,2.5783,2.5701,2.5453,2.581,2.6443,2.7034,2.7034,2.7306,2.7465,2.6806,2.6348,2.5854,2.4859,2.4335,2.4014,2.3684,2.4012,2.484,2.6422,2.7717,2.9101,3.0864,3.119,3.119,3.119,3.119,3.119,3.119,3.119,3.119,3.119,3.119,3.119,3.119,3.119,3.119,3.119,3.119,3.119,3.119,3.119,3.119,3.119,3.119,3.1254,3.1412,3.1078,3.1128,3.1606,3.1215,3.1182,3.1511,3.1511,3.1511,1.4634,1.4815,1.4604,1.3609,1.4666,1.5417,1.3304,1.3383,1.3443,1.1738,1.0978,1.05,1.014,1.1198,1.2092,1.202,1.3544,1.498,1.5669,1.6814,1.7877,1.8719,1.9384,1.9798,1.9798,1.9798,0.0,2.0478,2.1127,2.1868,2.2696,2.3579,2.4423,2.5163,2.5053,2.5121,2.5409,2.5409,2.5561,2.5892,2.631,2.659,2.6747,2.7178,2.7111,2.6747,2.6747,2.5973,0.0,2.5563,2.5453,2.4823,2.5398,2.5646,2.5618,2.5453,2.5287,2.5175,2.5342,2.5175,2.4951,2.5119,2.5646,2.6283,2.6457,2.6904,2.7219,2.6578,2.6019,2.5397,2.459,2.3977,2.3638,2.373,2.4202,2.5257,2.7508,2.8214,2.8883,3.051,3.1015,3.1151,3.1035,3.1114,3.119,3.119,3.119,3.119,3.119,3.119,3.119,3.119,3.119,3.119,3.119,3.119,3.119,3.119,3.119,3.119,3.119,3.1343,3.1567,3.1817,3.183,3.198,3.2237,3.19,3.1754,3.1739,3.1582,3.1511,1.4026,1.3928,1.3762,1.3135,1.391,1.4407,1.2682,1.2795,1.2814,1.1119,1.0354,1.0103,1.0543,1.0753,1.1348,1.2817,1.3679,1.4532,1.5565,1.7102,1.8166,1.8267,1.9183,1.9798,1.9798,1.9798,1.9823,1.9874,2.0927,2.2337,2.4034,2.3653,2.3725,2.4461,2.3898,2.4198,2.5475,2.55,2.6137,2.7382,2.68,2.6852,2.7484,2.6878,2.693,2.7484,2.7484,2.7034,0.0,2.7086,2.6956,2.6283,2.6363,2.6404,2.631,2.5646,2.4979,2.4509,2.5175,2.4496,2.3424,2.4176,2.4908,2.5618,2.6283,2.6537,2.646,2.5857,2.5659,2.5315,2.4029,2.3655,2.3709,2.4204,2.4823,2.57,2.7077,2.829,2.9214,2.9506,3.0456,3.1035,3.0477,3.0838,3.119,3.119,3.119,3.119,3.119,3.119,3.119,3.119,3.119,3.119,3.119,3.119,3.119,3.119,3.119,3.119,3.119,3.1853,3.2506,3.3187,3.3282,3.3651,3.4308,3.3114,3.2492,3.2492,3.1824,3.1511,1.4756,1.4618,1.4283,1.4037,1.4629,1.4802,1.3114,1.2986,1.2788,1.129,1.0402,1.0033,1.0444,1.0631,1.0933,1.1644,0.0,1.3358,1.4137,1.5658,1.6948,1.7626,1.8681,1.9459,1.9773,1.9798,2.0091,2.0836,2.1328,2.2429,2.4303,2.4175,2.4359,2.5104,2.4423,2.4547,2.555,2.552,2.5802,2.6393,2.651,2.6713,2.6976,2.6688,2.6935,2.76,2.76,2.7178,0.0,2.6826,2.6774,2.651,2.651,2.651,2.6457,2.6176,2.5591,2.5007,2.5287,2.4696,2.3884,2.4205,2.4163,2.4237,2.5481,2.6149,2.6454,2.6258,2.5914,2.5495,2.4941,2.4807,2.4852,2.5084,2.5341,2.5864,2.7145,2.7822,2.8433,2.924,3.0081,3.058,3.0335,3.0797,3.119,3.119,3.119,3.119,3.119,3.119,3.119,3.119,3.119,3.119,3.119,3.119,3.119,3.119,3.119,3.1393,3.1853,3.1775,3.2247,3.345,3.3092,3.3266,3.3987,3.3066,3.2586,3.2586,3.1853,3.1511,1.5166,1.5171,1.4926,1.4744,1.5037,1.4915,1.3254,1.2919,1.2553,1.1115,1.0405,1.0097,1.0235,1.0457,1.0646,0.0,0.0,1.2676,1.3435,1.4931,1.6296,1.7285,1.8216,1.897,1.9522,1.971,2.0246,2.1274,2.1516,2.2305,2.387,2.4139,2.4549,2.5292,2.4611,2.4587,2.5292,2.5257,2.536,2.5615,2.6078,2.6303,2.6303,2.6303,2.6557,2.7016,2.7016,2.6846,0.0,2.6523,2.6651,2.6826,2.6826,2.6826,2.68,2.659,2.6041,2.5398,2.5398,2.4922,2.435,2.4538,2.4076,2.3708,2.5007,2.5618,2.5873,2.5923,2.5619,2.5278,2.5278,2.5435,2.5615,2.5615,2.5749,2.6122,2.7033,2.7535,2.8,2.874,2.9651,3.0251,3.0043,3.0679,3.119,3.119,3.119,3.119,3.119,3.119,3.119,3.119,3.119,3.119,3.119,3.119,3.1275,3.1495,3.1532,3.187,3.2598,3.2381,3.2657,3.3482,3.3242,3.3278,3.3582,3.2922,3.2695,3.2868,3.1951,3.1511,1.4824,1.5197,1.5454,1.4858,1.475,1.4364,1.2688,1.236,1.1924,1.0257,1.0173,1.0298,0.997,1.0186,1.0481,1.0661,1.166,0.0,1.3934,1.5467,1.6722,1.7335,1.7877,1.843,1.8958,1.9497,2.008,2.0759,2.1355,0.0,2.2686,2.3282,2.3917,2.459,2.3962,2.3917,2.4605,2.4597,2.4948,2.5615,2.5615,2.5615,2.5615,2.5615,2.5615,2.563,2.563,2.5989,0.0,2.6602,2.6976,2.76,2.76,2.76,2.7484,2.6774,2.6041,2.5398,2.5398,2.4922,2.4436,2.5147,2.4908,2.4423,2.5175,2.4908,2.4332,2.4409,2.4472,2.4507,2.4507,2.5047,2.5615,2.5615,2.6108,2.6572,2.6611,2.7594,2.8319,2.7735,2.9073,3.0123,2.9518,3.0414,3.119,3.119,3.119,3.119,3.119,3.119,3.119,3.119,3.119,3.119,3.119,3.119,3.1495,3.2242,3.2293,3.2632,3.3372,3.4083,3.4153,3.3498,3.4213,3.426,3.3582,3.2922,3.2949,3.3556,3.2145,3.1511,1.3692,1.3556,1.3472,1.3636,1.3383,1.2857,1.2021,1.1839,1.1608,1.0764,1.0496,1.0494,1.0808,1.0616,1.0807,1.2012,1.2307,0.0,1.4419,1.5412,1.6308,1.7285,1.8518,1.9535,0.0,0.0,2.093,2.2011,2.2291,2.2657,2.3275,2.3486,2.3699,2.3924,2.3714,2.3699,2.3924,2.4365,2.447,2.4238,2.4694,2.4918,2.4918,2.4918,2.5158,2.5615,2.5615,2.5734,0.0,2.5914,2.6303,2.6926,2.6926,2.721,2.7575,2.7331,2.68,2.6095,2.5563,2.4922,2.4263,2.393,2.3679,2.3501,2.3754,2.4047,2.4304,2.4381,2.4732,2.5122,2.5177,2.5687,2.633,2.6847,2.7136,2.7285,2.7285,2.7585,2.7835,2.765,2.84,2.9134,2.9361,3.0059,3.072,3.1151,3.119,3.119,3.119,3.119,3.119,3.119,3.119,3.119,3.119,3.119,3.1318,3.1606,3.1634,3.1968,3.2753,3.3006,3.3275,3.3573,3.3799,3.3811,3.3582,3.2922,3.2449,3.2145,3.171,3.1511,1.2831,1.2899,1.279,1.3116,1.2766,1.2205,1.1712,1.1515,1.131,1.0821,1.0738,1.082,1.1103,1.0833,1.0961,1.2083,1.217,1.268,1.4362,1.5236,1.6195,1.7539,1.8999,0.0,0.0,2.0895,2.1571,2.2626,2.2694,2.2965,2.3573,2.3595,2.3595,2.3595,2.3595,2.3595,2.3595,2.4007,2.4007,2.361,2.4007,2.4216,2.4216,2.4216,2.444,2.4852,2.4852,0.0,0.0,2.5217,2.5779,2.6587,2.6587,2.7016,2.76,2.76,2.6956,2.6014,2.5563,2.4922,2.4263,2.4047,2.3959,2.3872,2.3275,2.3454,2.3865,2.3889,2.4428,2.4996,2.505,2.5756,2.6616,2.7086,2.7408,2.76,2.76,2.76,2.76,2.76,2.8091,2.863,2.9012,2.9761,3.0435,3.0801,3.1055,3.119,3.119,3.119,3.119,3.119,3.119,3.119,3.119,3.1464,3.164,3.172,3.1972,3.2353,3.2885,3.3167,3.3401,3.3608,3.3582,3.3469,3.3209,3.2788,3.2216,3.1511,3.1796,3.1768,0.0,1.2766,1.2881,1.286,1.2492,1.2005,1.1527,1.1255,0.0,1.0527,1.0902,1.1259,1.1079,1.0993,1.1065,1.1374,1.1635,1.2344,1.3972,1.5173,1.6459,1.8016,1.9305,0.0,2.0109,2.1111,2.2053,2.2717,2.2762,2.3009,2.3573,2.3595,2.3595,2.3595,2.3595,2.3595,2.3595,2.3595,2.3595,2.3595,2.3595,2.3595,2.3595,2.3595,2.3595,0.0,2.3595,0.0,0.0,2.453,2.5277,2.6452,2.6452,2.6881,2.7465,2.751,2.6605,2.5356,2.5398,2.4895,2.4341,2.5021,2.5231,2.4979,2.3531,2.3108,2.3108,2.3108,2.3632,2.4234,2.4292,2.5315,2.6363,2.6484,2.6982,2.7458,2.7575,2.756,2.7549,2.76,2.8042,2.8439,2.8487,2.9429,3.0187,3.023,3.074,3.1151,3.1151,3.1171,3.119,3.119,3.119,3.1171,3.1151,3.185,3.2328,3.2412,3.3034,3.3453,3.354,3.4137,3.4161,3.3531,3.3547,3.3182,3.252,3.252,3.2176,3.1511,3.2188,3.2132,0.994,0.0,0.971,0.9504,0.9473,0.9518,0.0,0.9956,1.0321,1.0695,1.1057,1.1553,1.2359,1.197,1.1994,1.3474,1.3612,1.3946,1.5148,1.6635,1.7765,1.8154,1.9631,2.0791,2.1267,2.1992,2.2725,2.3341,2.3399,2.3443,2.3595,2.3595,2.3595,2.3595,2.3595,2.3595,2.3595,2.3595,2.3595,2.3595,2.3595,2.3595,2.3595,2.3595,2.3595,2.3595,0.0,0.0,2.3849,2.3849,2.4306,2.5068,2.5068,2.5495,2.6138,2.6632,2.6001,2.4918,2.5271,2.4611,2.3616,2.3641,2.3636,2.356,2.3215,2.3108,2.3108,2.3108,2.3258,2.3501,2.4147,2.4567,2.5091,2.6229,2.6203,2.6242,2.7357,2.7178,2.693,2.7484,2.771,2.7944,2.8415,2.8748,2.9065,2.954,3.0123,3.0518,3.0518,3.0918,3.119,3.119,3.119,3.1015,3.0539,3.161,3.2328,3.2412,3.261,3.2777,3.2837,3.2986,3.3002,3.2841,3.2841,3.2477,3.1768,3.1768,3.1668,3.1496,3.1697,3.1668,0.8504,0.9131,0.9617,0.9254,0.9533,0.9865,0.9843,1.0107,1.0425,1.0635,1.101,1.1527,1.2269,1.229,1.262,1.3922,1.4305,1.4902,1.6275,1.7476,1.8499,1.9307,2.0472,2.1462,0.0,2.2748,2.3246,2.3573,2.3595,2.3595,2.3595,2.3595,2.3595,2.3595,2.3595,2.3595,2.3595,2.3595,2.3595,2.3595,2.3595,2.3595,2.3595,2.3595,2.3595,2.3595,0.0,0.0,2.3595,2.3595,2.4014,2.4605,2.4605,2.5187,2.6063,2.6123,2.5692,2.502,2.4696,2.4069,2.3375,2.3175,2.3335,2.3573,2.3215,2.3108,2.3108,2.3108,2.3108,2.3198,2.3632,2.4031,2.4509,2.5287,2.5425,2.5618,2.6428,2.6283,2.6203,2.6956,2.71,2.7316,2.7968,2.8319,2.8606,2.8943,2.9496,2.9908,2.9908,3.0414,3.0797,3.0797,3.1035,3.1055,3.074,3.1991,3.2429,3.1582,3.2462,3.2725,3.2132,3.2707,3.2922,3.2629,3.2586,3.2244,3.1511,3.1511,3.1511,3.1511,3.1511,3.1511,0.7943,0.946,1.0849,1.0091,1.0591,1.1175,1.0817,1.0893,1.0998,1.0871,1.1288,1.182,1.2261,1.272,1.3266,1.4016,1.4585,1.551,1.7175,1.7852,1.8832,2.0471,2.1287,0.0,2.2626,2.3246,2.3595,2.3595,2.3595,2.3595,2.3595,2.3595,2.3595,2.3595,2.3595,2.3595,2.3595,2.3595,2.3595,2.3595,2.3595,2.3595,2.3595,2.3595,2.3595,2.3595,0.0,0.0,2.3595,2.3595,2.3939,2.4455,2.4455,2.5128,2.6078,2.563,2.5291,2.4916,2.3802,2.3527,2.3634,2.323,2.3649,2.4147,2.3335,2.3108,2.3108,2.3108,2.3108,2.3108,2.3108,2.3603,2.4147,2.4263,2.4681,2.5119,2.5342,2.5315,2.5453,2.6203,2.6431,2.6695,2.7331,2.7944,2.8367,2.8367,2.8873,2.9248,2.9248,2.9783,3.0187,3.0293,3.0777,3.1055,3.1055,3.232,3.236,3.0617,3.2434,3.2971,3.1553,3.2637,3.2997,3.2437,3.2437,3.212,3.1511,3.1511,3.1511,3.1511,3.1511,3.1511,0.9251,1.0579,1.1153,0.9037,0.9578,1.0695,1.0904,1.1322,1.1891,1.2701,1.3151,1.3799,1.5101,1.4643,1.4501,1.5856,1.5769,1.5997,0.0,0.0,1.8692,1.9967,0.0,2.1969,2.2626,2.3246,2.3595,2.3595,2.3595,2.3595,2.3595,2.3595,2.3595,2.3595,2.3595,2.3595,2.3595,2.3595,2.3595,2.3595,2.3595,2.3595,2.3595,2.3595,2.3595,2.3595,0.0,2.3595,2.3595,2.3595,2.3655,2.3759,2.3759,2.3879,2.4118,2.4575,2.4063,2.3083,2.2705,2.3689,2.4885,2.3522,2.3649,2.4147,2.3335,2.3108,2.3108,2.3108,2.3108,2.3108,2.3108,2.3198,2.3454,2.4147,2.3884,2.3813,2.5119,2.4894,2.4681,2.5425,2.6068,2.6537,2.6642,2.7265,2.7735,2.7735,2.8247,2.8654,2.8654,2.9157,2.9739,3.0251,3.0393,3.0435,3.0435,3.1232,3.1357,3.0541,3.2434,3.2971,3.1553,3.171,3.1752,3.1668,3.1668,3.1611,3.1511,3.1511,3.1511,3.1511,3.1511,3.1511,0.8656,1.0009,1.094,0.9617,1.0921,1.264,1.2939,1.3079,1.333,1.3984,1.4384,1.4848,1.5632,1.5624,1.5808,1.6778,0.0,1.6886,1.7714,1.8304,1.9208,0.0,0.0,2.2086,2.3098,2.3443,2.3595,2.3595,2.3595,2.3595,2.3595,2.3595,2.3595,2.3595,2.3595,2.3595,2.3595,2.3595,2.3595,2.3595,2.3595,2.3595,2.3595,2.3595,2.3595,2.3595,0.0,2.3595,2.3595,2.3595,2.3595,2.3595,2.3595,2.3819,2.4171,2.4485,2.3798,2.279,2.3334,2.3934,2.434,2.3909,2.4002,2.4147,2.3335,2.3108,2.3108,2.3108,2.3108,2.3108,2.3108,2.3108,2.3185,2.356,2.3365,2.3305,2.4018,2.3872,2.3884,2.4652,2.5063,2.5563,2.6363,2.6774,2.7137,2.7549,2.7835,2.8018,2.8018,2.8543,2.9035,2.9293,2.9913,3.0293,3.0293,3.1299,3.1862,3.1663,3.2149,3.2351,3.2104,3.171,3.1511,3.1511,3.1511,3.1511,3.1511,3.1511,3.1511,3.1511,3.1511,3.1511,0.8289,0.9561,1.0777,1.0699,1.2273,1.3996,1.4647,1.4542,1.4515,1.5317,1.5689,1.5956,1.6272,1.6642,1.6935,1.7085,1.7271,1.7632,1.8314,1.8897,1.9921,2.1712,2.1922,2.2363,2.3486,2.3595,2.3595,2.3595,2.3595,2.3595,2.3595,2.3595,2.3595,2.3595,2.3595,2.3595,2.3595,2.3595,2.3595,2.3595,2.3595,2.3595,2.3595,2.3595,2.3595,2.3595,2.3595,2.3595,2.3595,2.3595,2.3595,2.3595,2.3595,2.3924,2.4365,2.4365,2.3859,2.3267,2.4192,2.4408,2.4287,2.4317,2.4436,2.4366,2.3395,2.3108,2.3108,2.3108,2.3108,2.3108,2.3108,2.3108,2.3108,2.3108,2.3108,2.3108,2.3108,2.3108,2.3275,2.3884,2.4176,2.4652,2.5783,2.6122,2.6443,2.6993,2.7214,2.7331,2.7331,2.7894,2.8343,2.8487,2.9316,2.9935,3.0092,3.1238,3.1997,3.2114,3.1734,3.1739,3.2327,3.1796,3.1511,3.1511,3.1511,3.1511,3.1511,3.1511,3.1511,3.1511,3.1511,3.1511,0.942,1.0269,1.102,1.1919,1.2293,1.2914,1.4673,1.4659,1.4906,1.7049,1.7516,1.7709,1.8365,1.8221,1.7672,1.6697,1.7021,1.7778,1.8871,0.0,2.0587,2.2403,2.2626,2.2875,2.353,2.3595,2.3595,2.3595,2.3595,2.3595,2.3595,2.3595,2.3595,2.3595,2.3595,2.3595,2.3595,2.3595,2.3595,2.3595,2.3595,2.3595,2.3595,2.3595,2.3595,2.3595,2.3595,2.3595,2.3595,2.3595,2.3595,2.3595,2.3595,2.3625,2.367,2.367,2.3999,2.4461,2.4496,2.5331,2.6159,2.4762,2.4766,2.5035,2.356,2.3108,2.3108,2.3108,2.3108,2.3108,2.3108,2.3108,2.3108,2.3108,2.3108,2.3108,2.3108,2.3108,2.3138,2.3198,2.3796,2.4321,2.4423,2.5035,2.5508,2.5563,2.6149,2.659,2.659,2.7214,2.7885,2.8439,2.8583,2.8879,2.9492,3.0223,3.0643,3.0661,3.118,3.1524,3.1582,3.1524,3.1511,3.1511,3.1511,3.1511,3.1511,3.1511,3.1511,3.1511,3.1511,3.1511,0.8651,1.007,1.144,1.1578,1.2901,1.4456,1.5589,1.595,1.6503,1.8115,1.8454,1.8422,1.8341,1.8475,1.8263,1.7167,1.8104,1.899,1.9091,2.023,2.1476,2.2575,2.2694,2.2957,2.353,2.3595,2.3595,2.3595,2.3595,2.3595,2.3595,2.3595,2.3752,2.4095,2.3773,2.3752,2.4095,2.3773,2.3595,2.3595,2.3595,2.3595,2.3595,2.3595,2.3595,2.3595,2.3595,2.3595,2.3595,2.3595,2.3595,2.364,2.4073,2.3984,2.3655,2.4066,2.438,2.4649,2.5056,2.5803,2.6406,2.5328,2.5175,2.5119,2.356,2.3108,2.3108,2.3108,2.3108,2.3108,2.3108,2.3108,2.3108,2.3108,2.3108,2.3108,2.3108,2.3108,2.3108,2.3108,2.3335,2.3708,2.4205,2.4538,2.4879,2.5315,2.5646,2.5987,2.6457,2.6747,2.7188,2.787,2.8286,2.8766,2.9447,3.0103,3.0497,3.049,3.1122,3.1511,3.1511,3.1511,3.1511,3.1511,3.1511,3.1511,3.1511,3.1511,3.1511,3.1511,3.1511,3.1511,0.8415,0.9912,1.1484,1.1537,1.3248,1.5226,1.6365,1.6899,1.7485,1.8652,1.9024,1.8987,1.8458,1.865,0.0,0.0,1.8862,1.9836,1.9697,2.1019,2.2262,2.292,2.2987,2.3143,2.3551,2.3595,2.3595,2.3595,2.3595,2.3595,2.3595,2.3752,2.4012,2.4389,2.4032,2.4032,2.441,2.3879,2.3595,2.3595,2.3595,2.3595,2.3595,2.3595,2.3595,2.3595,2.3595,2.3595,2.3595,2.3595,2.3595,2.367,2.4335,2.4321,2.3999,2.4664,2.4918,2.4978,2.545,2.6033,2.6426,2.5414,2.5232,2.5119,2.356,2.3108,2.3108,2.3108,2.3108,2.3108,2.3108,2.3108,2.3108,2.3108,2.3108,2.3108,2.3108,2.3108,2.3108,2.3108,2.3108,2.3275,2.3826,2.3914,2.4076,2.461,2.4894,2.5315,2.6068,2.6363,2.6774,2.7524,2.7968,2.8397,2.8857,2.9715,3.0224,3.022,3.1017,3.1511,3.1511,3.1511,3.1511,3.1511,3.1511,3.1511,3.1511,3.1511,3.1511,3.1511,3.1511,3.1511,0.9104,0.994,1.1064,1.2062,1.3234,1.4703,1.6828,1.7313,1.7597,1.8685,1.9332,1.953,1.9006,1.8893,0.0,1.8204,1.9114,2.0139,2.0808,2.1924,2.292,2.3515,2.3595,2.3595,2.3595,2.3595,2.3595,2.3595,2.3595,2.3595,2.3595,2.4116,2.441,2.441,2.441,2.441,2.441,2.3879,2.3595,2.3595,2.3595,2.3595,2.3595,2.3595,2.3595,2.3595,2.3595,2.3595,2.3595,2.3595,2.3595,2.367,2.4335,2.4605,2.4679,2.5337,2.5615,2.5615,2.5615,2.6033,2.6352,2.4882,2.486,2.5119,2.356,2.3108,2.3108,2.3108,2.3108,2.3108,2.3108,2.3108,2.3108,2.3108,2.3108,2.3108,2.3108,2.3108,2.3108,2.3108,2.3108,2.3108,2.3108,2.3108,2.3108,2.3108,2.3767,2.4567,2.5287,2.6041,2.6774,2.7524,2.76,2.76,2.76,2.8843,2.9606,2.9621,3.0806,3.1511,3.1511,3.1511,3.1511,3.1511,3.1511,3.1511,3.1511,3.1511,3.1511,3.1511,3.1511,3.1511,0.9361,1.0826,1.2565,1.3201,1.5358,1.7394,1.7658,1.7803,1.8071,1.8757,1.9024,1.9095,1.893,1.9207,0.0,1.8746,1.9676,2.04,2.022,2.1647,2.2782,2.2951,2.3325,2.3595,2.3595,2.3595,2.3595,2.3595,2.3595,2.3595,2.3595,2.4116,2.4556,2.4953,2.4612,2.4592,2.4969,2.443,2.397,2.3595,2.397,2.3985,2.3595,2.3595,2.3595,2.3595,2.3595,2.3595,2.3595,2.3595,2.3595,2.367,2.4335,2.4605,2.4679,2.5337,2.5615,2.5615,2.5615,2.6033,2.6352,2.4882,2.486,2.5119,2.356,2.3108,2.3108,2.3108,2.3108,2.3108,2.3108,2.3108,2.3108,2.3108,2.3108,2.3108,2.3108,2.3108,2.3108,2.3108,2.3108,2.3108,2.3108,2.3108,2.3108,2.3108,2.3305,2.393,2.5231,2.6041,2.6774,2.7524,2.76,2.7794,2.8248,2.9112,2.9786,3.0208,3.1017,3.1511,3.1511,3.1511,3.1511,3.1511,3.1511,3.1511,3.1511,3.1511,3.1511,3.1511,3.1511,3.1511,1.0543,1.2048,1.3757,1.4718,1.6637,1.8363,1.8573,1.8513,1.856,1.9115,1.9225,1.9225,1.9225,1.9479,0.0,1.9262,2.0038,2.0593,2.0255,2.1426,2.2298,2.2298,2.2868,2.3236,2.3236,2.3445,2.3595,2.3595,2.3595,2.3702,2.3921,2.443,2.4969,2.5503,2.5186,2.5202,2.5505,2.4989,2.445,2.3921,2.4246,2.4116,2.3595,2.3595,2.3595,2.3595,2.3595,2.3595,2.3595,2.3595,2.3595,2.367,2.4335,2.4605,2.4709,2.5659,2.5839,2.5615,2.5615,2.5869,2.5966,2.4491,2.446,2.4764,2.3483,2.3108,2.3108,2.3108,2.3108,2.3108,2.3108,2.3108,2.3108,2.3108,2.3108,2.3108,2.3108,2.3108,2.3108,2.3108,2.3108,2.3108,2.3108,2.3108,2.3108,2.3108,2.3365,2.3901,2.4838,2.5864,2.6669,2.7126,2.7433,2.7869,2.8547,2.9205,2.9849,3.0462,3.1122,3.1511,3.1511,3.1511,3.1511,3.1511,3.1511,3.1511,3.1511,3.1511,3.1511,3.1511,3.1511,3.1511,1.2103,1.328,1.4587,1.6278,1.7294,1.8192,1.9405,1.9332,1.9114,1.9603,1.9708,1.9708,1.9708,1.9708,1.9708,1.9708,2.0213,2.0598,2.0598,2.1201,2.1625,2.1649,2.2214,2.2649,2.275,2.3173,2.3475,2.3595,2.3578,2.3819,2.4369,2.4953,2.5503,2.5979,2.6013,2.6013,2.6013,2.5521,2.4992,2.4471,2.4471,2.4199,2.3681,2.3616,2.3595,2.3595,2.3595,2.3595,2.3595,2.3595,2.3595,2.3655,2.4261,2.4545,2.4754,2.6033,2.6078,2.5525,2.5585,2.557,2.5275,2.3865,2.3857,2.4245,2.3352,2.3108,2.3108,2.3108,2.3108,2.3108,2.3108,2.3108,2.3108,2.3108,2.3108,2.3108,2.3108,2.3108,2.3108,2.3108,2.3108,2.3108,2.3108,2.3108,2.3108,2.3108,2.3708,2.4205,2.4292,2.5481,2.6336,2.6484,2.71,2.7823,2.8622,2.9235,2.9864,3.0552,3.1152,3.1511,3.1511,3.1511,3.1511,3.1511,3.1511,3.1511,3.1511,3.1511,3.1511,3.1511,3.1511,3.1511,1.1485,1.281,1.4458,1.6263,1.7997,1.9346,1.9633,1.9603,1.9566,1.969,1.9708,1.9708,1.9708,1.9708,1.9708,1.9708,1.9828,1.9932,1.9932,2.0498,2.1035,2.1348,2.1704,2.226,2.309,2.2531,2.2517,2.352,2.3503,2.3731,2.4358,2.5316,2.5888,2.5995,2.6013,2.6013,2.6013,2.5888,2.5559,0.0,2.5028,2.4752,2.4204,2.3794,2.3595,2.3595,2.3595,2.3595,2.3595,2.3595,2.3595,2.361,2.3759,2.4126,2.4709,2.5501,2.5382,2.4889,2.5435,2.5247,2.4644,2.3699,2.3857,2.4245,2.3352,2.3108,2.3108,2.3108,2.3108,2.3108,2.3108,2.3108,2.3108,2.3108,2.3108,2.3108,2.3108,2.3108,2.3108,2.3108,2.3108,2.3108,2.3108,2.3108,2.3108,2.3108,2.3258,2.3603,2.4234,2.4567,2.5231,2.6377,2.6642,2.7466,2.9238,2.9532,3.0073,3.1212,3.1421,3.1511,3.1511,3.1511,3.1511,3.1511,3.1511,3.1511,3.1511,3.1511,3.1511,3.1511,3.1511,3.1511,1.2327,1.3888,1.5666,1.7645,1.8927,1.9708,1.9708,1.9708,1.9708,1.9708,1.9708,1.9708,1.9708,1.9708,1.9708,1.9708,1.9708,1.9708,1.9708,2.0174,2.0587,2.0789,2.1422,2.2068,2.2616,2.2459,2.2601,2.326,2.3588,2.4002,2.4563,2.5493,2.6103,2.6332,2.6332,2.6332,2.6332,2.6332,2.5944,2.5202,2.5202,2.4776,2.4012,2.373,2.3595,2.3595,2.3595,2.3595,2.3595,2.3595,2.3595,2.3595,2.3595,2.3819,2.4201,2.4874,2.4694,2.4216,2.4889,2.4482,2.3658,2.3459,2.3429,2.3392,2.3157,2.3108,2.3108,2.3108,2.3108,2.3108,2.3108,2.3108,2.3108,2.3108,2.3108,2.3108,2.3108,2.3108,2.3108,2.3108,2.3108,2.3108,2.3108,2.3108,2.3108,2.3108,2.3108,2.3245,2.3649,2.406,2.4595,2.537,2.5755,2.681,2.8855,2.9028,2.9727,3.1392,3.1511,3.1511,3.1511,3.1511,3.1511,3.1511,3.1511,3.1511,3.1511,3.1511,3.1511,3.1511,3.1511,3.1511,1.2935,1.4929,1.7056,1.9208,1.9834,1.9909,1.9909,1.9909,1.9909,1.9909,1.98,1.9711,1.98,1.9747,1.9747,1.9892,1.9871,1.9836,1.9909,2.021,2.0449,2.0533,2.1304,2.1902,2.2081,2.2427,2.2756,2.2976,2.3535,2.4139,2.4771,2.552,2.6164,2.6691,2.6691,2.6691,2.6691,2.6691,2.6245,2.5335,2.5163,2.4552,2.3595,2.3595,2.3595,2.3595,2.3595,2.3595,2.3595,2.3595,2.3595,2.3595,2.3595,2.3595,2.3684,2.435,2.4171,2.3699,2.4365,2.3828,2.2956,2.3437,2.3133,2.2654,2.3156,2.3215,2.3108,2.3108,2.3108,2.3108,2.3108,2.3108,2.3108,2.3108,2.3108,2.3108,2.3108,2.3108,2.3108,2.3108,2.3108,2.3108,2.3108,2.3108,2.3108,2.3108,2.3108,2.3108,2.3108,2.3679,2.4147,2.4292,2.4851,2.6022,2.8026,2.8311,2.9216,3.1159,3.1409,3.1511,3.1511,3.1511,3.1511,3.1511,3.1511,3.1511,3.1511,3.1511,3.1511,3.1511,3.1511,3.1511,1.0824,1.3802,1.7194,1.9339,2.0353,2.0829,2.0829,2.0829,2.0829,2.0829,2.0225,1.9818,2.0158,1.9945,1.996,2.0698,2.0499,2.0348,2.0764,2.0862,2.1039,2.1383,2.1246,2.1504,2.2426,2.1762,2.1757,2.2897,2.293,2.3441,2.4723,2.5347,2.5982,2.6674,2.6691,2.6691,2.6691,2.6691,2.6436,2.5888,2.4953,2.4199,2.3595,2.3595,2.3595,2.3595,2.3595,2.3595,2.3595,2.3595,2.3595,2.3595,2.3595,2.3595,2.3684,2.435,2.4171,2.3699,2.4365,2.4112,2.3585,2.4149,2.3853,2.3363,2.3951,2.3649,2.3108,2.3108,2.3108,2.3108,2.3108,2.3108,2.3108,2.3108,2.3108,2.3108,2.3108,2.3108,2.3108,2.3108,2.3108,2.3108,2.3108,2.3108,2.3108,2.3108,2.3108,2.3108,2.3108,2.3185,2.3543,2.4234,2.4408,2.5237,2.7185,2.7997,2.8973,3.0377,3.1117,3.1511,3.1511,3.1511,3.1511,3.1511,3.1511,3.1511,3.1511,3.1511,3.1511,3.1511,3.1511,3.1511,1.2477,1.4675,1.6933,1.9314,2.0145,2.0495,2.0911,2.0991,2.0991,2.0991,2.0698,2.0482,2.0649,2.0549,2.0549,2.0942,2.0829,2.0748,2.0959,2.1197,2.1399,2.1582,2.1675,2.1897,2.2395,2.2024,2.197,2.2552,2.2901,2.354,2.4594,2.5242,2.5947,2.6674,2.6691,2.6691,2.6691,2.6691,2.6315,2.554,2.4756,2.4116,2.3595,2.3595,2.3595,2.3595,2.3595,2.3595,2.3595,2.3595,2.3595,2.3595,2.3595,2.3595,2.364,2.3939,2.3864,2.364,2.3939,2.3629,2.3192,2.376,2.3752,2.3532,2.368,2.3754,2.3679,2.3215,2.3108,2.3108,2.3108,2.3108,2.3108,2.3108,2.3108,2.3108,2.3108,2.3108,2.3108,2.3108,2.3108,2.3108,2.3108,2.3108,2.3108,2.3108,2.3108,2.3108,2.3108,2.3108,2.3258,2.3603,2.3927,2.4793,2.6449,2.7165,2.8337,3.0166,3.0614,3.1029,3.1467,3.1511,3.1511,3.1511,3.1511,3.1511,3.1511,3.1511,3.1511,3.1511,3.1511,3.1511,1.3229,1.4696,1.5998,1.8473,1.9499,2.0127,2.0869,2.1193,2.1323,2.1323,2.1323,2.1323,2.1323,2.115,2.1055,2.1291,2.1245,2.1181,2.1307,2.16,2.1779,2.1779,2.2092,2.2296,2.2296,2.2296,2.2296,2.2296,2.2818,2.3427,2.4186,2.4915,2.5659,2.6387,2.659,2.6691,2.6691,2.659,2.607,2.5202,2.4776,2.4246,2.3595,2.3745,2.373,2.3595,2.3595,2.3595,2.3595,2.3595,2.3595,2.3595,2.3595,2.3595,2.3595,2.3595,2.3595,2.3595,2.3595,2.3312,2.3065,2.3795,2.3938,2.383,2.3823,2.4063,2.4147,2.3335,2.3108,2.3108,2.3108,2.3108,2.3108,2.3108,2.3108,2.3108,2.3108,2.3108,2.3108,2.3108,2.3108,2.3108,2.3108,2.3108,2.3108,2.3108,2.3108,2.3108,2.3108,2.3108,2.3158,2.3308,2.374,2.4538,2.5853,2.6532,2.7773,2.9846,3.0178,3.0644,3.1467,3.1511,3.1511,3.1511,3.1511,3.1511,3.1511,3.1511,3.1511,3.1511,3.1511,3.1511,1.0879,1.24,1.4072,1.6298,1.8446,2.0203,2.1005,2.1731,2.2223,2.2223,2.2223,2.2223,2.2223,2.1554,2.126,2.2092,2.1869,2.1718,2.218,2.2254,2.2268,2.2268,2.2282,2.2296,2.2296,2.2296,2.2296,2.2296,2.233,2.2682,2.341,2.4169,2.4897,2.5626,2.6336,2.6691,2.6691,2.6262,2.5744,2.5202,2.5182,2.4612,2.3616,2.4137,2.4074,2.3595,2.3595,2.3595,2.3595,2.3595,2.3595,2.3595,2.3595,2.3595,2.3595,2.3595,2.3595,2.3595,2.3595,2.3573,2.3775,2.5075,2.5018,2.4562,2.5119,2.4824,2.4147,2.3335,2.3108,2.3108,2.3108,2.3108,2.3108,2.3108,2.3108,2.3108,2.3108,2.3108,2.3108,2.3108,2.3108,2.3108,2.3108,2.3108,2.3108,2.3108,2.3108,2.3108,2.3108,2.3108,2.3308,2.3891,2.3979,2.445,2.5526,2.6414,2.7519,2.8961,2.9858,3.0644,3.1467,3.1511,3.1511,3.1511,3.1511,3.1511,3.1511,3.1511,3.1511,3.1511,3.1511,3.1511,1.0697,1.1509,1.2575,1.5317,1.6959,1.8211,1.9435,2.0699,2.1583,2.1583,2.1972,2.2296,2.2296,2.2049,2.193,2.2254,2.2149,2.2106,2.2282,2.2296,2.2296,2.2296,2.2296,2.2296,2.2296,2.2296,2.2296,2.2296,2.2296,2.2617,2.3359,2.3646,2.434,2.5559,2.5862,2.6218,2.6691,2.6522,2.6192,2.5707,2.5707,2.5335,2.4632,2.4471,2.4287,2.4095,2.3752,2.3595,2.3595,2.3595,2.3595,2.3595,2.3595,2.3595,2.3595,2.3595,2.3595,2.3595,2.3595,2.3595,2.3684,2.4163,2.4721,2.5087,2.4347,2.4518,2.4724,2.3442,2.3108,2.3108,2.3108,2.3108,2.3108,2.3108,2.3108,2.3108,2.3108,2.3108,2.3108,2.3108,2.3108,2.3108,2.3108,2.3108,2.3108,2.3108,2.3108,2.3108,2.3108,2.3108,2.3333,2.3941,2.4318,2.482,2.5536,2.6227,2.7328,2.8894,2.9286,3.0072,3.1438,3.1511,3.1511,3.1511,3.1511,3.1511,3.1511,3.1511,3.1511,3.1511,3.1511,3.1511,1.0094,1.0538,1.14,1.4166,1.5233,1.6164,1.8398,1.9498,2.0276,2.1038,2.1583,2.2006,2.2245,2.2296,2.2296,2.2296,2.2296,2.2296,2.2296,2.2296,2.2296,2.2296,2.2296,2.2296,2.2296,2.2296,2.2296,2.2296,2.2296,0.0,2.3004,2.3274,2.4086,2.5542,2.5592,2.5947,2.6691,2.6691,2.6453,2.6013,2.6156,2.5872,2.5182,2.4831,2.4572,2.4369,2.3837,2.3595,2.3595,2.3595,2.3595,2.3595,2.3595,2.3595,2.3595,2.3595,2.3595,2.3595,2.3595,2.3595,2.364,2.3864,2.4702,2.5417,2.441,2.4703,2.5119,2.3855,2.3305,2.3108,2.3108,2.3108,2.3108,2.3108,2.3108,2.3108,2.3108,2.3108,2.3108,2.3108,2.3108,2.3108,2.3108,2.3108,2.3108,2.3108,2.3108,2.3108,2.3108,2.3108,2.3396,2.4192,2.4607,2.5109,2.5824,2.6273,2.7095,2.8492,2.8556,2.9192,3.0614,3.094,3.1087,3.1087,3.1351,3.1511,3.1511,3.1511,3.1511,3.1511,3.1511,3.163,0.0,0.0,0.0,1.2753,1.332,1.4294,1.7924,1.8228,1.8369,2.0645,2.1136,2.1393,2.2141,2.2279,2.2296,2.2296,2.2296,2.2296,2.2296,2.2296,2.2296,2.2296,2.2296,2.2296,2.2296,2.2296,2.2296,2.2296,2.2296,2.2296,2.2296,2.3004,2.4052,2.549,2.5576,2.5947,2.6657,2.6691,2.647,2.6031,2.647,2.6176,2.5221,2.5221,2.491,2.4369,2.3837,2.3595,2.3595,2.3595,2.3595,2.3595,2.3595,2.3595,2.3595,2.3595,2.3595,2.3595,2.3595,2.3595,2.3714,2.435,2.5038,2.5563,2.5491,2.545,2.5259,2.4509,2.3708,2.3108,2.3108,2.3108,2.3108,2.3108,2.3108,2.3108,2.3108,2.3108,2.3108,2.3108,2.3108,2.3108,2.3108,2.3108,2.3108,2.3108,2.3108,2.3108,2.3108,2.3108,2.3534,2.4675,2.4788,2.5272,2.6399,2.6499,2.685,2.7637,2.7703,2.8084,2.8971,2.9858,3.0299,3.0269,3.1058,3.1467,3.1467,3.1511,3.1511,3.1511,3.1511,3.1869,0.9347,0.0,0.0,0.0,0.0,0.0,0.0,0.0,1.6914,1.8607,1.98,2.073,2.1386,2.1938,2.2296,2.2296,2.2296,2.2296,2.2296,2.2296,2.2296,2.2296,2.2296,2.2296,2.2296,2.2296,2.2296,0.0,2.2296,2.2296,2.2296,2.3004,2.3579,2.4002,2.505,2.571,2.5896,2.642,2.6641,2.6505,2.6641,2.6384,2.5779,2.5373,2.491,2.4369,2.3837,2.3595,2.3595,2.3595,2.3595,2.3595,2.3595,2.3595,2.3595,2.3595,2.3595,2.3595,2.3595,2.3595,2.3625,2.3819,2.4672,2.5488,2.493,2.5059,2.5259,2.4509,2.3708,2.3108,2.3108,2.3108,2.3108,2.3108,2.3108,2.3108,2.3108,2.3108,2.3108,2.3108,2.3108,2.3108,2.3108,2.3108,2.3108,2.3108,2.3108,2.3108,2.3108,2.3108,2.3534,2.4675,2.4788,2.5272,2.6399,2.6499,2.685,2.7637,2.7703,2.8084,2.8971,2.9858,3.0011,2.938,3.0208,3.0614,3.0614,3.1219,3.1511,3.1511,3.1511,3.2108,0.0,0.0,0.0,0.0,0.0,0.0,1.4059,1.4503,1.5078,0.0,1.8671,1.9563,2.0526,2.1045,2.1451,2.1786,2.1837,2.1955,2.2245,2.2296,2.2296,2.2296,2.2296,2.2296,2.2296,2.2296,2.2296,2.2296,2.2296,2.2296,2.2296,2.2716,2.3088,2.3376,2.4526,2.5287,2.5592,2.6336,2.6691,2.6691,2.6691,2.6453,2.5979,2.567,2.524,2.4732,2.441,2.4137,2.3927,2.3927,2.3794,2.3595,2.3595,2.3595,2.3595,2.3595,2.3595,2.3595,2.3595,2.3595,2.3595,2.3595,2.4507,2.5529,2.5096,2.5371,2.5755,2.5342,2.4439,2.3501,2.3198,2.3108,2.3108,2.3108,2.3108,2.3108,2.3108,2.3108,2.3108,2.3108,2.3108,2.3108,2.3108,2.3108,2.3108,2.3108,2.3108,2.3108,2.3108,2.3308,2.381,2.47,2.4988,2.5498,2.6411,2.6499,2.6679,2.7162,2.7196,2.7417,2.7953,2.878,2.8971,2.846,2.9317,2.995,3.0299,3.0777,3.1161,3.1511,3.1511,3.1914,0.0,0.0,0.0,0.0,0.0,0.0,1.483,1.4014,1.3548,0.0,1.7588,1.807,1.9445,1.9835,2.017,2.0794,2.1087,2.1471,2.2209,2.2296,2.2296,2.2296,2.2296,2.2296,2.2296,2.2296,2.2296,2.2296,2.2296,2.2296,2.2296,2.2296,2.2598,2.3257,2.4068,2.4812,2.5473,2.6285,2.6691,2.6691,2.6691,2.6453,2.6013,2.6013,2.5707,2.5202,2.5202,2.491,2.441,2.441,2.4095,2.3595,2.3595,2.3595,2.3595,2.3595,2.3595,2.3595,2.3595,2.3595,2.3595,2.3595,2.4507,2.5615,2.5615,2.6021,2.6484,2.6283,2.5259,2.4002,2.3275,2.3108,2.3108,2.3108,2.3108,2.3108,2.3108,2.3108,2.3108,2.3108,2.3108,2.3108,2.3108,2.3108,2.3108,2.3108,2.3108,2.3133,2.3195,2.3678,2.423,2.4845,2.5322,2.5824,2.6449,2.6499,2.6499,2.6499,2.6499,2.6499,2.6499,2.7263,2.767,2.7571,2.8524,2.938,3.0178,3.0329,3.0807,3.1511,3.1511,3.154,0.0,0.0,0.0,0.0,0.0,0.0,1.3471,1.396,1.4717,0.0,1.6266,1.6906,1.7687,1.8843,1.9523,1.9028,2.0338,2.1644,2.222,2.2296,2.2296,2.2296,2.2296,2.2296,2.2296,2.2296,2.2296,2.2296,2.2296,2.2296,2.2296,2.2296,2.2364,2.2513,2.3814,2.4558,2.4711,2.6015,2.6691,2.6691,2.6691,2.6453,2.6013,2.6013,2.5707,2.5202,2.5202,2.491,2.441,2.441,2.4095,2.3595,2.3595,2.3595,2.3595,2.3595,2.3595,2.3595,2.3595,2.3595,2.3595,2.3595,2.4507,2.5615,2.5615,2.6021,2.6256,2.5063,2.406,2.3305,2.3125,2.3108,2.3108,2.3108,2.3108,2.3108,2.3108,2.3108,2.3108,2.3108,2.3108,2.3108,2.3108,2.3108,2.3108,2.3108,2.3108,2.3271,2.3766,2.3929,2.4368,2.5335,2.5536,2.5824,2.6449,2.6499,2.6499,2.6499,2.6499,2.6499,2.6499,2.7263,2.7384,2.6748,2.8247,2.9097,2.9254,3.0614,3.1351,3.1511,3.1511,3.1795,0.0,0.0,0.0,1.5364,0.0,0.0,0.0,1.4603,1.4826,1.6455,1.6204,1.6167,1.7665,1.8246,1.8481,1.846,1.9549,2.0492,2.0776,2.1664,2.2296,2.2296,2.2296,2.2296,2.2296,2.2296,2.2296,2.2296,2.2296,2.2296,2.2296,2.2296,2.2296,2.2296,2.3729,2.4491,2.4491,2.5963,2.6691,2.6691,2.6691,2.6453,2.6013,2.6244,2.6068,2.5615,2.5854,2.5672,2.5202,2.5202,2.4716,2.397,2.3702,2.3595,2.3595,2.3595,2.3595,2.3595,2.3595,2.3595,2.3595,2.3595,2.4507,2.5615,2.5615,2.6268,2.6826,2.5701,2.5119,2.4625,2.3872,2.3708,2.359,2.3198,2.3108,2.3108,2.3108,2.3108,2.3108,2.3108,2.3108,2.3108,2.3108,2.3108,2.3108,2.3108,2.3346,2.3665,2.3966,2.4469,2.4996,2.5536,2.585,2.6172,2.6461,2.6499,2.6499,2.6499,2.6499,2.6499,2.6499,2.6871,2.6905,2.6499,2.7736,2.833,2.8363,3.0072,3.1117,3.1511,3.1511,3.1675,0.0,0.0,0.0,0.0,0.0,1.622,0.0,0.0,0.0,0.0,0.0,0.0,0.0,0.0,0.0,1.7834,0.0,0.0,0.0,2.0421,0.0,2.1651,2.1921,2.2076,2.2076,2.1941,2.1975,2.2279,2.2026,2.1992,2.2279,2.2296,2.2296,2.2296,2.3579,2.4355,2.4491,2.5812,2.6556,2.6691,2.6691,2.6487,2.6156,2.6539,2.6487,2.6156,2.6539,2.6436,2.6013,2.6013,2.5373,2.4348,2.3921,2.3702,2.3595,2.3595,2.3595,2.3595,2.3595,2.3595,2.3625,2.3759,2.4702,2.5824,2.5959,2.6648,2.7255,2.6669,2.6404,2.6014,2.4823,2.4408,2.4147,2.3484,2.3215,2.3108,2.3108,2.3108,2.3108,2.3108,2.3108,2.3108,2.3108,2.3108,2.3145,2.3258,2.3703,2.4067,2.428,2.5059,2.5636,2.5749,2.6223,2.6499,2.6499,2.6499,2.6499,2.6499,2.6499,2.6499,2.6499,2.6499,2.6499,2.6499,2.7284,2.7703,2.7703,2.9286,3.0464,3.1278,3.1438,3.1511,0.0,0.0,0.0,0.0,1.8755,0.0,0.0,0.0,1.7423,1.6837,0.0,0.0,0.0,0.0,0.0,0.0,0.0,0.0,1.6546,1.8232,1.9545,1.9319,2.0496,2.1326,2.1326,2.0673,2.0842,2.2195,2.1028,2.0859,2.2229,2.2296,2.2296,2.2296,2.3105,2.3848,2.4491,2.5304,2.6048,2.6691,2.6691,2.6674,2.6624,2.6674,2.6674,2.6624,2.6674,2.6436,2.6013,2.6013,2.5373,2.4389,2.4328,2.4012,2.3595,2.3595,2.3595,2.3595,2.3595,2.3595,2.3699,2.4291,2.5382,2.6587,2.7195,2.7019,2.6616,2.6537,2.6041,2.5481,2.5315,2.4794,2.4292,2.4176,2.3619,2.3108,2.3108,2.3108,2.3108,2.3108,2.3108,2.3108,2.3108,2.3108,2.3283,2.3828,2.3954,2.4343,2.5297,2.5523,2.5787,2.6336,2.6449,2.6499,2.6499,2.6499,2.6499,2.6499,2.6499,2.6499,2.6499,2.6499,2.6499,2.6499,2.7284,2.7703,2.7703,2.8684,2.9597,3.045,3.1161,3.1511,0.0,0.0,0.0,0.0,0.0,0.0,1.8048,0.0,1.7826,0.0,0.0,0.0,0.0,0.0,0.0,0.0,1.6817,0.0,0.0,0.0,1.7426,0.0,0.0,0.0,2.0433,2.02,2.0471,2.1583,2.0623,2.0487,2.16,2.2073,2.2296,2.2296,2.3021,2.3763,2.4491,2.5236,2.5981,2.6691,2.6691,2.6691,2.6691,2.6691,2.6691,2.6691,2.6691,2.659,2.6401,2.6401,2.5801,2.4855,2.4855,2.4348,2.3595,2.3595,2.3595,2.3595,2.3595,2.3864,2.435,2.542,2.6138,2.6746,2.7405,2.7382,2.7137,2.7137,2.693,2.6587,2.6149,2.5481,2.4823,2.4408,2.3679,2.3108,2.3108,2.3108,2.3108,2.3108,2.3108,2.3108,2.3108,2.3108,2.3296,2.3916,2.4268,2.4745,2.5498,2.5921,2.6223,2.6461,2.6499,2.6499,2.6499,2.6499,2.6499,2.6499,2.6499,2.6499,2.6499,2.6499,2.6499,2.6499,2.685,2.7007,2.7007,2.7835,2.8684,2.9535,2.9889,3.0584,2.262,0.0,0.0,0.0,0.0,0.0,0.0,0.0,0.0,0.0,0.0,0.0,0.0,0.0,0.0,0.0,0.0,1.6122,0.0,1.5019,0.0,0.0,0.0,0.0,0.0,1.9456,1.9592,2.0771,1.9773,1.9722,2.1123,2.1701,2.2076,2.2296,2.2818,2.3545,2.4491,2.5033,2.5761,2.6691,2.6691,2.6691,2.6691,2.6691,2.6691,2.6691,2.6691,2.6691,2.6691,2.6691,2.6105,2.5202,2.5202,2.4536,2.3595,2.3595,2.3595,2.3595,2.3595,2.4163,2.5053,2.6213,2.6707,2.6971,2.745,2.76,2.76,2.76,2.76,2.7484,2.693,2.6242,2.5508,2.4794,2.3989,2.3365,2.3138,2.3108,2.3145,2.3308,2.3346,2.3384,2.3547,2.3446,2.3534,2.4142,2.4695,2.5222,2.5762,2.6235,2.6499,2.6499,2.6499,2.6499,2.6499,2.6499,2.6499,2.6499,2.6499,2.6499,2.6499,2.6499,2.6499,2.6499,2.6499,2.6499,2.6499,2.7095,2.7802,2.8652,2.8907,2.9889,0.0,0.0,0.0,2.0962,0.0,0.0,0.0,0.0,1.9597,0.0,0.0,0.0,0.0,0.0,0.0,0.0,0.0,0.0,0.0,0.0,0.0,0.0,0.0,0.0,0.0,1.8065,1.7693,0.0,1.8031,1.8093,2.1038,2.1207,2.1563,2.2279,2.2313,2.3038,2.4491,2.4508,2.5269,2.6691,2.6691,2.6691,2.6691,2.6691,2.6691,2.6691,2.6691,2.6691,2.6691,2.6691,2.6105,2.5202,2.5202,2.4536,2.3595,2.3595,2.3595,2.3595,2.3595,2.4462,2.5689,2.6378,2.7046,2.757,2.7585,2.76,2.76,2.76,2.76,2.76,2.7575,2.7008,2.6283,2.5536,2.4794,2.406,2.3275,2.3108,2.3271,2.3866,2.3966,2.4142,2.4669,2.4318,2.4155,2.4675,2.5234,2.5774,2.6386,2.6487,2.6499,2.6499,2.6499,2.6499,2.6499,2.6499,2.6499,2.6499,2.6499,2.6499,2.6499,2.6499,2.6499,2.6499,2.6499,2.6499,2.6499,2.6521,2.6939,2.7769,2.862,2.9889,0.0,0.0,2.3868,2.2429,0.0,0.0,0.0,0.0,0.0,0.0,0.0,0.0,0.0,0.0,0.0,0.0,0.0,0.0,0.0,0.0,0.0,0.0,0.0,0.0,0.0,0.0,0.0,0.0,1.8302,0.0,2.0331,2.138,2.204,2.2279,2.2296,2.2784,2.3763,2.4254,2.4998,2.5981,2.6471,2.6691,2.6691,2.6691,2.6691,2.6691,2.6691,2.6691,2.6691,2.6691,2.6105,2.5202,2.5202,2.4536,2.3595,2.3595,2.3595,2.3729,2.4627,2.551,2.6363,2.7046,2.742,2.76,2.76,2.76,2.76,2.76,2.76,2.76,2.76,2.7034,2.6457,2.6203,2.5563,2.4951,2.4696,2.4524,2.4477,2.4684,2.4613,2.4607,2.4763,2.4946,2.5121,2.531,2.5485,2.5799,2.6411,2.6499,2.6499,2.6499,2.6499,2.6499,2.6499,2.6499,2.6499,2.6499,2.6499,2.6499,2.6499,2.6499,2.6499,2.6499,2.6499,2.6499,2.6499,2.6499,2.6905,2.7703,2.7451,2.8247,2.452,2.441,0.0,2.3217,2.2611,0.0,2.0768,0.0,2.0535,0.0,0.0,0.0,0.0,0.0,0.0,0.0,0.0,0.0,0.0,1.3803,0.0,0.0,0.0,0.0,0.0,1.6136,1.6678,1.7715,1.7507,0.0,0.0,2.0944,2.1738,2.2279,2.2296,2.2649,2.3393,2.4135,2.488,2.5609,2.6353,2.6691,2.6691,2.6691,2.6691,2.6691,2.6691,2.6691,2.6691,2.6691,2.6105,2.5202,2.5202,2.4536,2.3625,2.3879,2.4118,2.4477,2.557,2.6243,2.6692,2.739,2.76,2.76,2.76,2.76,2.76,2.76,2.76,2.76,2.76,2.7255,2.6826,2.6563,2.6149,2.5728,2.5453,2.5253,2.5156,2.5353,2.5223,2.5159,2.5372,2.5686,2.5871,2.5624,2.5774,2.6072,2.6449,2.6499,2.6499,2.6499,2.6499,2.6499,2.6499,2.6499,2.6499,2.6499,2.6499,2.6499,2.6499,2.6499,2.6499,2.6499,2.6499,2.6499,2.6499,2.6499,2.6782,2.7263,2.6748,2.7061]}]]